[[{"header":{"parameterUnit":"m.s-1","parameterCategory":1,"la1":30.6,"la2":28.766,"lo1":-90.7593,"lo2":-88.6598,"dy":0.0162,"dx":0.0183,"nx":116,"ny":114,"refTime":"2023-09-20T18:00:00:Z","depth":0,"parameterNumber":2,"parameterNumberName":"U-component_of_WINDS"},"data":[0.0,0.0,0.0,0.0,0.0,0.0,0.0,0.0,0.0,0.0,0.0,0.0,0.0,0.0,0.0,0.0,0.0,0.0,0.0,0.0,0.0,0.0,0.0,0.0,0.0,0.0,0.0,0.0,0.0,0.0,0.0,0.0,0.0,0.0,0.0,0.0,0.0,0.0,0.0,0.0,0.0,0.0,0.0,0.0,0.0,0.0,0.0,0.0,0.0,0.0,0.0,0.0,0.0,0.0,0.0,0.0,0.0,0.0,0.0,0.0,0.0,0.0,0.0,0.0,0.0,0.0,0.0,0.0,0.0,0.0,0.0,0.0,0.0,0.0,0.0,0.0,0.0,0.0,0.0,0.0,0.0,0.0,0.0,0.0,0.0,0.0,0.0,0.0,0.0,0.0,0.0,0.0,0.0,0.0,0.0,0.0,0.0,0.0,0.0,0.0,0.0,0.0,0.0,0.0,0.0,0.0,0.0,0.0,0.0,0.0,0.0,0.0,0.0,0.0,0.0,0.0,0.0,0.0,0.0,0.0,0.0,0.0,0.0,0.0,0.0,0.0,0.0,0.0,0.0,0.0,0.0,0.0,0.0,0.0,0.0,0.0,0.0,0.0,0.0,0.0,0.0,0.0,0.0,0.0,0.0,0.0,0.0,0.0,0.0,0.0,0.0,0.0,0.0,0.0,0.0,0.0,0.0,0.0,0.0,0.0,0.0,0.0,0.0,0.0,0.0,0.0,0.0,0.0,0.0,0.0,0.0,0.0,0.0,0.0,0.0,0.0,0.0,0.0,0.0,0.0,0.0,0.0,0.0,0.0,0.0,0.0,0.0,0.0,0.0,0.0,0.0,0.0,0.0,0.0,0.0,0.0,0.0,0.0,0.0,0.0,0.0,0.0,0.0,0.0,0.0,0.0,0.0,0.0,0.0,0.0,0.0,0.0,0.0,0.0,0.0,0.0,0.0,0.0,0.0,0.0,0.0,0.0,0.0,0.0,0.0,0.0,0.0,0.0,0.0,0.0,0.0,0.0,0.0,0.0,0.0,0.0,0.0,0.0,0.0,0.0,0.0,0.0,0.0,0.0,0.0,0.0,0.0,0.0,0.0,0.0,0.0,0.0,0.0,0.0,0.0,0.0,0.0,0.0,0.0,0.0,0.0,0.0,0.0,0.0,0.0,0.0,0.0,0.0,0.0,0.0,0.0,0.0,0.0,0.0,0.0,0.0,0.0,0.0,0.0,0.0,0.0,0.0,0.0,0.0,0.0,0.0,0.0,0.0,0.0,0.0,0.0,0.0,0.0,0.0,0.0,0.0,0.0,0.0,0.0,0.0,0.0,0.0,0.0,0.0,0.0,0.0,0.0,0.0,0.0,0.0,0.0,0.0,0.0,0.0,0.0,0.0,0.0,0.0,0.0,0.0,0.0,0.0,0.0,0.0,0.0,0.0,0.0,0.0,0.0,0.0,0.0,0.0,0.0,0.0,0.0,0.0,0.0,0.0,0.0,0.0,0.0,0.0,0.0,0.0,0.0,0.0,0.0,0.0,0.0,0.0,0.0,0.0,0.0,0.0,0.0,0.0,0.0,0.0,0.0,0.0,0.0,0.0,0.0,0.0,0.0,0.0,0.0,0.0,0.0,0.0,0.0,0.0,0.0,0.0,0.0,0.0,0.0,0.0,0.0,0.0,0.0,0.0,0.0,0.0,0.0,0.0,0.0,0.0,0.0,0.0,0.0,0.0,0.0,0.0,0.0,0.0,0.0,0.0,0.0,0.0,0.0,0.0,0.0,0.0,0.0,0.0,0.0,0.0,0.0,0.0,0.0,0.0,0.0,0.0,0.0,0.0,0.0,0.0,0.0,0.0,0.0,0.0,0.0,0.0,0.0,0.0,0.0,0.0,0.0,0.0,0.0,0.0,0.0,0.0,0.0,0.0,0.0,0.0,0.0,0.0,0.0,0.0,0.0,0.0,0.0,0.0,0.0,0.0,0.0,0.0,0.0,0.0,0.0,0.0,0.0,0.0,0.0,0.0,0.0,0.0,0.0,0.0,0.0,0.0,0.0,0.0,0.0,0.0,0.0,0.0,0.0,0.0,0.0,0.0,0.0,0.0,0.0,0.0,0.0,0.0,0.0,0.0,0.0,0.0,0.0,0.0,0.0,0.0,0.0,0.0,0.0,0.0,0.0,0.0,0.0,0.0,0.0,0.0,0.0,0.0,0.0,0.0,0.0,0.0,0.0,0.0,0.0,0.0,0.0,0.0,0.0,0.0,0.0,0.0,0.0,0.0,0.0,0.0,0.0,0.0,0.0,0.0,0.0,0.0,0.0,0.0,0.0,0.0,0.0,0.0,0.0,0.0,0.0,0.0,0.0,0.0,0.0,0.0,0.0,0.0,0.0,0.0,0.0,0.0,0.0,0.0,0.0,0.0,0.0,0.0,0.0,0.0,0.0,0.0,0.0,0.0,0.0,0.0,0.0,0.0,0.0,0.0,0.0,0.0,0.0,0.0,0.0,0.0,0.0,0.0,0.0,0.0,0.0,0.0,0.0,0.0,0.0,0.0,0.0,0.0,0.0,0.0,0.0,0.0,0.0,0.0,0.0,0.0,0.0,0.0,0.0,0.0,0.0,0.0,0.0,0.0,0.0,0.0,0.0,0.0,0.0,0.0,0.0,0.0,0.0,0.0,0.0,0.0,0.0,0.0,0.0,0.0,0.0,0.0,0.0,0.0,0.0,0.0,0.0,0.0,0.0,0.0,0.0,0.0,0.0,0.0,0.0,0.0,0.0,0.0,0.0,0.0,0.0,0.0,0.0,0.0,0.0,0.0,0.0,0.0,0.0,0.0,0.0,0.0,0.0,0.0,0.0,0.0,0.0,0.0,0.0,0.0,0.0,0.0,0.0,0.0,0.0,0.0,0.0,0.0,0.0,0.0,0.0,0.0,0.0,0.0,0.0,0.0,0.0,0.0,0.0,0.0,0.0,0.0,0.0,0.0,0.0,0.0,0.0,0.0,0.0,0.0,0.0,0.0,0.0,0.0,0.0,0.0,0.0,0.0,0.0,0.0,0.0,0.0,0.0,0.0,0.0,0.0,0.0,0.0,0.0,0.0,0.0,0.0,0.0,0.0,0.0,0.0,0.0,0.0,0.0,0.0,0.0,0.0,0.0,0.0,0.0,0.0,0.0,0.0,0.0,0.0,0.0,0.0,0.0,0.0,0.0,0.0,0.0,0.0,0.0,0.0,0.0,0.0,0.0,0.0,0.0,0.0,0.0,0.0,0.0,0.0,0.0,0.0,0.0,0.0,0.0,0.0,0.0,0.0,0.0,0.0,0.0,0.0,0.0,0.0,0.0,0.0,0.0,0.0,0.0,0.0,0.0,0.0,0.0,0.0,0.0,0.0,0.0,0.0,0.0,0.0,0.0,0.0,0.0,0.0,0.0,0.0,0.0,0.0,0.0,0.0,0.0,0.0,0.0,0.0,0.0,0.0,0.0,0.0,0.0,0.0,0.0,0.0,0.0,0.0,0.0,0.0,0.0,0.0,0.0,0.0,0.0,0.0,0.0,0.0,0.0,0.0,0.0,0.0,0.0,0.0,0.0,0.0,0.0,0.0,0.0,0.0,0.0,0.0,0.0,0.0,0.0,0.0,0.0,0.0,0.0,0.0,0.0,0.0,0.0,0.0,0.0,0.0,0.0,0.0,0.0,0.0,0.0,0.0,0.0,0.0,0.0,0.0,0.0,0.0,0.0,0.0,0.0,0.0,0.0,0.0,0.0,0.0,0.0,0.0,0.0,0.0,0.0,0.0,0.0,0.0,0.0,0.0,0.0,0.0,0.0,0.0,0.0,0.0,0.0,0.0,0.0,0.0,0.0,0.0,0.0,0.0,0.0,0.0,0.0,0.0,0.0,0.0,0.0,0.0,0.0,0.0,0.0,0.0,0.0,0.0,0.0,0.0,0.0,0.0,0.0,0.0,0.0,0.0,0.0,0.0,0.0,0.0,0.0,0.0,0.0,0.0,0.0,0.0,0.0,0.0,0.0,0.0,0.0,0.0,0.0,0.0,0.0,0.0,0.0,0.0,0.0,0.0,0.0,0.0,0.0,0.0,0.0,0.0,0.0,0.0,0.0,0.0,0.0,0.0,0.0,0.0,0.0,0.0,0.0,0.0,0.0,0.0,0.0,0.0,0.0,0.0,0.0,0.0,0.0,0.0,0.0,0.0,0.0,0.0,0.0,0.0,0.0,0.0,0.0,0.0,0.0,0.0,0.0,0.0,0.0,0.0,0.0,0.0,0.0,0.0,0.0,0.0,0.0,0.0,0.0,0.0,0.0,0.0,0.0,0.0,0.0,0.0,0.0,0.0,0.0,0.0,0.0,0.0,0.0,0.0,0.0,0.0,0.0,0.0,0.0,0.0,0.0,0.0,0.0,0.0,0.0,0.0,0.0,0.0,0.0,0.0,0.0,0.0,0.0,0.0,0.0,0.0,0.0,0.0,0.0,0.0,0.0,0.0,0.0,0.0,0.0,0.0,0.0,0.0,0.0,0.0,0.0,0.0,0.0,0.0,0.0,0.0,0.0,0.0,0.0,0.0,0.0,0.0,0.0,0.0,0.0,0.0,0.0,0.0,0.0,0.0,0.0,0.0,0.0,0.0,0.0,0.0,0.0,0.0,0.0,0.0,0.0,0.0,0.0,0.0,0.0,0.0,0.0,0.0,0.0,0.0,0.0,0.0,0.0,0.0,0.0,0.0,0.0,0.0,0.0,0.0,0.0,0.0,0.0,0.0,0.0,0.0,0.0,0.0,0.0,0.0,0.0,0.0,0.0,0.0,0.0,0.0,0.0,0.0,0.0,0.0,0.0,0.0,0.0,0.0,0.0,0.0,0.0,0.0,0.0,0.0,0.0,0.0,0.0,0.0,0.0,0.0,0.0,0.0,0.0,0.0,0.0,0.0,0.0,0.0,0.0,0.0,0.0,0.0,0.0,0.0,0.0,0.0,0.0,0.0,0.0,0.0,0.0,0.0,0.0,0.0,0.0,0.0,0.0,0.0,0.0,0.0,0.0,0.0,0.0,0.0,0.0,0.0,0.0,0.0,0.0,0.0,0.0,0.0,0.0,0.0,0.0,0.0,0.0,0.0,0.0,0.0,0.0,0.0,0.0,0.0,0.0,0.0,0.0,0.0,0.0,0.0,0.0,0.0,0.0,0.0,0.0,0.0,0.0,0.0,0.0,0.0,0.0,0.0,0.0,0.0,0.0,0.0,0.0,0.0,0.0,0.0,0.0,0.0,0.0,0.0,0.0,0.0,0.0,0.0,0.0,0.0,0.0,0.0,0.0,0.0,0.0,0.0,0.0,0.0,0.0,0.0,0.0,0.0,0.0,0.0,0.0,0.0,0.0,0.0,0.0,0.0,0.0,0.0,0.0,0.0,0.0,0.0,0.0,0.0,0.0,0.0,0.0,0.0,0.0,0.0,0.0,0.0,0.0,0.0,0.0,0.0,0.0,0.0,0.0,0.0,0.0,0.0,0.0,0.0,0.0,0.0,0.0,0.0,0.0,0.0,0.0,0.0,0.0,0.0,0.0,0.0,0.0,0.0,0.0,0.0,0.0,0.0,0.0,0.0,0.0,0.0,0.0,0.0,0.0,0.0,0.0,0.0,0.0,0.0,0.0,0.0,0.0,0.0,0.0,0.0,0.0,0.0,0.0,0.0,0.0,0.0,0.0,0.0,0.0,0.0,0.0,0.0,0.0,0.0,0.0,0.0,0.0,0.0,0.0,0.0,0.0,0.0,0.0,0.0,0.0,0.0,0.0,0.0,0.0,0.0,0.0,0.0,0.0,0.0,0.0,0.0,0.0,0.0,0.0,0.0,0.0,0.0,0.0,0.0,0.0,0.0,0.0,0.0,0.0,0.0,0.0,0.0,0.0,0.0,0.0,0.0,0.0,0.0,0.0,0.0,0.0,0.0,0.0,0.0,0.0,0.0,0.0,0.0,0.0,0.0,0.0,0.0,0.0,0.0,0.0,0.0,0.0,0.0,0.0,0.0,0.0,0.0,0.0,0.0,0.0,0.0,0.0,0.0,0.0,0.0,0.0,0.0,2.125,2.0804,0.0,0.0,0.0,0.0,0.0,0.0,0.0,0.0,0.0,0.0,0.0,0.0,0.0,0.0,0.0,0.0,0.0,0.0,0.0,0.0,0.0,0.0,0.0,0.0,0.0,0.0,0.0,0.0,0.0,0.0,0.0,0.0,0.0,0.0,0.0,0.0,0.0,0.0,1.6367,1.6804,1.6845,1.6605,1.6536,1.6582,0.0,0.0,0.0,0.0,0.0,0.0,0.0,0.0,0.0,0.0,0.0,0.0,0.0,0.0,0.0,0.0,0.0,0.0,0.0,0.0,0.0,0.0,0.0,0.0,0.0,0.0,0.0,0.0,0.0,0.0,0.0,0.0,0.0,0.0,0.0,0.0,0.0,0.0,0.0,0.0,0.0,0.0,0.0,0.0,0.0,0.0,0.0,0.0,0.0,0.0,0.0,0.0,0.0,0.0,0.0,0.0,0.0,0.0,0.0,0.0,0.0,0.0,0.0,0.0,0.0,0.0,0.0,0.0,0.0,0.0,2.2316,2.1495,0.0,0.0,0.0,0.0,0.0,0.0,0.0,0.0,0.0,0.0,0.0,0.0,0.0,0.0,0.0,0.0,0.0,0.0,0.0,0.0,0.0,0.0,0.0,1.3231,1.3541,1.3626,1.4036,1.4299,0.0,0.0,0.0,0.0,0.0,0.0,0.0,1.5935,1.5905,1.5733,1.6755,1.7492,1.7959,1.8007,1.8129,1.8314,1.8127,0.0,0.0,0.0,0.0,0.0,0.0,0.0,0.0,0.0,0.0,0.0,0.0,0.0,0.0,0.0,0.0,0.0,0.0,0.0,0.0,0.0,0.0,0.0,0.0,0.0,0.0,0.0,0.0,0.0,0.0,0.0,0.0,0.0,0.0,0.0,0.0,0.0,0.0,0.0,0.0,0.0,0.0,0.0,0.0,0.0,0.0,0.0,0.0,0.0,0.0,0.0,0.0,0.0,0.0,0.0,0.0,0.0,0.0,0.0,0.0,0.0,0.0,0.0,2.5102,2.5388,2.5853,2.5654,2.5619,2.5585,2.3302,2.221,2.2038,2.2316,0.0,0.0,0.0,0.0,0.0,0.0,0.0,0.0,0.0,0.0,0.0,0.0,0.0,0.0,0.0,0.0,0.0,0.0,0.0,0.0,0.0,1.3457,1.3696,1.4144,1.4263,1.4299,1.4299,0.0,0.0,0.0,0.0,0.0,1.5803,1.5935,1.6208,1.6624,1.719,1.7562,1.7747,1.7977,1.8337,1.8789,1.8357,1.8432,1.8783,0.0,0.0,0.0,0.0,0.0,0.0,0.0,0.0,0.0,0.0,0.0,0.0,0.0,0.0,0.0,0.0,0.0,0.0,0.0,0.0,0.0,0.0,0.0,0.0,0.0,0.0,0.0,0.0,0.0,0.0,0.0,0.0,0.0,0.0,0.0,0.0,0.0,0.0,0.0,0.0,0.0,2.0541,2.1017,0.0,0.0,0.0,0.0,0.0,0.0,0.0,0.0,0.0,0.0,0.0,0.0,0.0,2.4559,2.5506,2.5975,2.6517,2.7113,2.7523,2.7996,2.8471,2.7457,2.7269,2.7636,2.6206,0.0,2.4107,2.415,0.0,0.0,0.0,0.0,0.0,0.0,0.0,0.0,0.0,0.0,0.0,0.0,0.0,0.0,0.0,0.0,0.0,0.0,0.0,0.0,0.0,1.3948,1.4552,1.5091,1.5139,1.5271,1.556,1.5502,0.0,0.0,0.0,1.5803,1.5803,1.6159,1.6752,1.7588,1.7752,1.8132,1.8659,1.8783,1.9247,1.995,1.9528,1.9146,1.8786,1.7943,0.0,0.0,0.0,0.0,0.0,0.0,0.0,0.0,0.0,0.0,0.0,0.0,0.0,0.0,0.0,0.0,0.0,0.0,0.0,0.0,0.0,0.0,0.0,0.0,0.0,0.0,0.0,0.0,0.0,0.0,0.0,0.0,0.0,0.0,0.0,0.0,0.0,0.0,0.0,2.0891,2.1696,2.192,2.2221,2.2395,0.0,0.0,0.0,0.0,0.0,0.0,0.0,0.0,0.0,2.5321,2.5306,2.5615,2.6324,2.6864,2.7473,2.8129,2.8256,2.864,2.9256,2.8615,2.8431,2.8631,2.8066,2.7249,2.6264,2.5757,2.5006,2.4177,0.0,0.0,0.0,0.0,2.454,2.4744,0.0,0.0,0.0,0.0,0.0,0.0,0.0,0.0,0.0,0.0,0.0,0.0,1.3824,1.4675,1.5479,1.6151,1.6211,1.6379,1.6775,1.6295,1.5996,1.5996,1.5996,1.5996,1.5996,1.6634,1.7322,1.8062,1.8237,1.8642,1.9292,1.9461,1.9895,2.0549,2.0317,1.9863,1.9247,1.8445,1.8174,1.8175,0.0,0.0,0.0,0.0,0.0,0.0,0.0,0.0,0.0,0.0,0.0,0.0,0.0,0.0,0.0,0.0,0.0,0.0,0.0,0.0,0.0,0.0,0.0,0.0,0.0,0.0,0.0,0.0,0.0,0.0,0.0,0.0,0.0,0.0,0.0,0.0,0.0,2.2246,2.2985,2.3138,2.3625,2.4026,0.0,0.0,0.0,0.0,0.0,0.0,2.6393,2.563,2.5613,2.6573,2.656,2.677,2.7246,2.779,2.835,2.888,2.891,2.9198,2.9724,2.9447,2.934,2.934,2.934,2.8873,2.8044,2.71,2.6147,2.5253,2.5511,2.5475,2.5304,2.5547,2.5751,2.5927,0.0,0.0,0.0,0.0,0.0,0.0,0.0,0.0,0.0,0.0,0.0,1.3824,1.5483,1.572,1.6175,1.7231,1.7327,1.7327,1.7363,1.6859,1.6559,1.6559,1.6559,1.6559,1.6559,1.7461,1.7864,1.7723,1.8495,1.8886,1.8939,1.9579,1.9898,1.9956,2.0124,2.0454,2.0803,1.9495,1.868,1.8186,1.691,0.0,0.0,0.0,0.0,0.0,0.0,0.0,0.0,0.0,0.0,0.0,0.0,0.0,0.0,0.0,0.0,0.0,0.0,0.0,0.0,0.0,0.0,0.0,0.0,0.0,0.0,0.0,0.0,0.0,0.0,0.0,0.0,0.0,0.0,0.0,0.0,0.0,0.0,2.5372,2.5954,0.0,0.0,0.0,0.0,2.7272,2.6845,2.7062,2.8212,2.7981,2.8271,2.9261,2.8639,2.8486,2.8961,2.9387,2.9601,2.9658,3.0083,3.0331,3.0362,3.0095,2.9957,2.9957,2.9957,2.9671,2.9137,2.8068,2.7029,2.6154,2.6146,2.587,2.5565,2.6283,2.6185,2.5802,0.0,0.0,0.0,0.0,0.0,0.0,0.0,0.0,1.1835,1.2467,1.3226,1.4069,1.4993,1.5975,1.6665,1.6871,1.6847,1.6938,1.7188,1.6786,1.6714,1.7099,1.6738,1.666,1.6912,1.78,1.833,1.847,1.9308,1.9818,1.9996,2.0508,2.0888,2.1182,2.1271,2.1401,2.1464,1.9789,1.9042,1.8918,1.79,1.7347,0.0,0.0,0.0,0.0,0.0,0.0,0.0,0.0,0.0,0.0,0.0,0.0,0.0,0.0,0.0,0.0,0.0,0.0,0.0,0.0,0.0,0.0,0.0,0.0,0.0,0.0,0.0,0.0,0.0,0.0,0.0,0.0,0.0,0.0,0.0,0.0,0.0,2.6405,2.6844,0.0,2.7589,2.7455,2.7778,2.8831,2.8066,2.814,2.9498,2.8726,2.8809,3.0029,2.9816,3.0025,3.0758,3.099,3.1228,3.1439,3.1522,3.1643,3.1809,3.1535,3.1427,3.1427,3.1427,3.0995,3.0299,2.9912,2.9102,2.8036,2.7738,2.7516,2.741,2.7656,2.7461,2.7135,0.0,0.0,0.0,0.0,0.0,0.0,0.0,0.0,1.1761,1.2473,1.3404,1.4339,1.524,1.6396,1.7061,1.6977,1.6908,1.6955,1.7127,1.6716,1.6638,1.7055,1.6834,1.7013,1.769,1.8262,1.8869,1.9477,2.0044,2.0583,2.1055,2.1445,2.1884,2.2335,2.2305,2.2393,2.2433,2.0898,2.0109,1.9812,1.907,1.8642,1.8345,0.0,0.0,0.0,0.0,0.0,0.0,0.0,0.0,0.0,0.0,0.0,0.0,0.0,0.0,0.0,0.0,0.0,0.0,0.0,0.0,0.0,0.0,0.0,0.0,0.0,0.0,0.0,0.0,0.0,0.0,0.0,0.0,0.0,0.0,2.6793,2.764,2.7708,2.8027,2.8433,2.8866,2.8783,2.9122,3.0129,2.9345,2.9286,3.0417,2.9887,2.9981,3.0896,3.0962,3.1272,3.1869,3.1969,3.2107,3.2316,3.2233,3.228,3.2452,3.228,3.2198,3.2198,3.2198,3.1876,3.1348,3.1348,3.0866,3.0067,2.9273,2.894,2.8956,2.9046,2.8777,2.8462,0.0,0.0,0.0,0.0,0.0,0.0,0.0,1.1175,1.1906,1.3129,1.3701,1.4643,1.6376,1.6977,1.7363,1.7598,1.7581,1.7431,1.7179,1.6683,1.6393,1.6417,1.6889,1.7696,1.8857,1.8932,1.949,2.0605,2.0644,2.1094,2.1954,2.2353,2.2783,2.3225,2.3162,2.3396,2.375,2.293,2.1918,2.0848,2.0345,1.9905,1.9468,0.0,0.0,0.0,0.0,0.0,0.0,0.0,0.0,0.0,0.0,0.0,0.0,0.0,0.0,0.0,0.0,0.0,0.0,0.0,0.0,0.0,0.0,0.0,0.0,0.0,0.0,0.0,0.0,0.0,0.0,0.0,0.0,0.0,2.7419,2.8548,2.9387,2.9349,2.958,3.0086,3.1017,3.0298,3.0165,3.1148,3.0744,3.063,3.1032,3.1591,3.1929,3.192,3.2114,3.2228,3.2237,3.2237,3.2237,3.2237,3.2237,3.2237,3.2237,3.2237,3.2237,3.2237,3.2237,3.2237,3.2218,3.2218,3.2208,3.2062,3.0617,3.003,3.0066,3.0334,3.0074,2.9618,0.0,0.0,0.0,0.0,0.0,0.0,0.0,1.069,1.1475,1.2829,1.3453,1.4214,1.5391,1.6143,1.6397,1.5925,1.6263,1.6438,1.6275,1.63,1.6483,1.6818,1.7837,1.8369,1.8243,1.949,2.0296,2.0605,2.1534,2.2256,2.2781,2.3232,2.3662,2.4072,2.4049,2.4108,2.4228,2.3994,2.3528,2.2859,2.163,2.0919,2.0578,0.0,0.0,0.0,0.0,0.0,0.0,0.0,0.0,0.0,0.0,0.0,0.0,0.0,0.0,0.0,0.0,0.0,0.0,0.0,0.0,0.0,0.0,0.0,0.0,0.0,0.0,0.0,0.0,0.0,0.0,0.0,2.8961,2.9856,2.9336,2.9172,2.9405,3.0149,3.0234,3.0477,3.1169,3.1197,3.1413,3.2019,3.1712,3.168,3.2127,3.2116,3.224,3.2554,3.262,3.2764,3.3076,3.3076,3.3076,3.3076,3.3076,3.3076,3.3076,3.3076,3.3076,3.3076,3.3076,3.29,3.2627,3.2627,3.2472,3.212,3.1387,3.0917,3.0652,3.0729,3.0455,2.998,0.0,0.0,0.0,0.0,0.0,0.0,0.0,1.0502,1.1315,1.2715,1.3222,1.3865,1.4979,1.5539,1.568,1.5323,1.5586,1.5718,1.5604,1.5986,1.6501,1.7133,1.8033,1.8641,1.8918,1.9916,2.0712,2.1265,2.2176,2.2889,2.3396,2.3825,2.4277,2.4697,2.4859,2.5045,2.5244,2.5244,2.5098,2.4799,2.3705,2.2805,2.2039,2.1325,2.1059,2.0956,2.0211,1.9704,1.938,1.9185,0.0,0.0,0.0,0.0,0.0,0.0,0.0,0.0,0.0,0.0,0.0,0.0,0.0,0.0,0.0,0.0,0.0,0.0,0.0,0.0,0.0,0.0,0.0,0.0,2.9772,3.0583,3.0845,3.0382,3.0234,3.0818,3.0872,3.1088,3.1604,3.1831,3.2167,3.2772,3.263,3.2814,3.3465,3.3317,3.334,3.3584,3.3418,3.3447,3.3691,3.3516,3.3386,3.3386,3.3386,3.3386,3.3386,3.3386,3.3386,3.3386,3.3386,3.3281,3.3057,3.3057,3.291,3.2637,0.0,0.0,0.0,0.0,3.0869,3.0392,0.0,0.0,0.0,0.0,0.0,0.0,0.0,1.0397,1.1169,1.2511,1.2848,1.3437,1.4687,1.4913,1.5032,1.5148,1.5162,1.5188,1.5257,1.5857,1.6582,1.7405,1.7964,1.8842,2.0129,2.0301,2.0992,2.2212,2.2669,2.3222,2.39,2.4293,2.4746,2.5258,2.561,2.6055,2.6455,2.6455,2.6455,2.6426,2.601,2.499,2.361,2.2906,2.2619,2.248,2.1629,2.1182,2.0907,2.0449,0.0,0.0,0.0,0.0,0.0,0.0,0.0,0.0,0.0,0.0,0.0,0.0,0.0,0.0,0.0,0.0,0.0,0.0,0.0,0.0,0.0,0.0,0.0,0.0,3.0364,3.0584,3.1856,3.1763,3.1541,3.1473,3.1613,3.1904,3.2374,3.2462,3.2795,3.3474,3.3533,3.3864,3.4658,3.4697,0.0,0.0,0.0,3.4153,3.4104,3.3691,3.3435,3.3386,3.3386,3.3386,3.3386,3.3386,3.3386,3.3386,3.3386,3.3386,3.3386,3.3386,3.3386,3.3308,3.2549,3.2237,3.2119,3.152,3.1062,3.0557,0.0,0.0,0.0,0.0,0.0,0.0,0.0,0.9761,1.0319,1.1251,1.1808,1.2396,1.3084,1.3478,1.3682,1.3696,1.4091,1.4721,1.5631,1.6449,1.713,1.7627,1.9013,1.9832,1.9952,2.0956,2.1783,2.2362,2.2981,2.3721,2.4514,2.4818,2.5395,2.6157,2.6221,2.6504,2.6869,2.6869,2.6869,2.6885,2.6807,2.5962,2.4755,2.4384,2.4058,2.3686,2.298,2.2431,2.203,2.1607,2.1024,2.0504,2.0688,2.0577,0.0,0.0,0.0,0.0,0.0,0.0,0.0,0.0,0.0,0.0,0.0,0.0,0.0,0.0,0.0,0.0,0.0,0.0,0.0,3.1225,3.155,3.165,3.1612,3.2127,3.2521,3.2525,3.2824,3.3223,3.3694,3.4046,3.4277,3.4443,3.4453,3.4521,3.4687,3.4697,3.4697,3.4697,3.4619,3.4414,3.4104,3.4026,3.3769,3.3386,3.3386,0.0,3.3386,3.3386,3.3386,3.3386,3.3386,3.3386,3.3386,3.3386,3.3386,3.3338,3.2871,3.2501,3.2018,3.0519,2.9921,2.9619,0.0,0.0,0.0,0.0,0.0,0.0,0.0,0.9652,1.0086,1.0893,1.1172,1.1562,1.2262,1.2554,1.2777,1.2979,1.3673,1.4428,1.5196,1.6313,1.7228,1.7867,1.9278,2.0151,2.0345,2.1407,2.2139,2.2543,2.3287,2.3933,2.4526,2.5213,2.5785,2.6222,2.6811,2.7174,2.7353,2.7568,2.7656,2.7656,2.7656,2.7139,2.6319,2.5496,2.5083,2.4811,2.4038,2.3416,2.2926,2.2717,2.193,2.1046,2.1325,2.1153,2.0889,0.0,0.0,0.0,0.0,0.0,0.0,0.0,0.0,0.0,0.0,0.0,0.0,0.0,0.0,2.8862,3.0329,0.0,3.0522,3.1482,3.1937,3.2135,3.2151,3.2705,3.3027,3.2822,3.3164,3.3506,3.3721,3.4131,3.4473,3.4678,3.4912,3.5137,3.5351,3.5361,3.5361,3.5361,3.5156,3.4941,3.4769,3.4534,3.4277,3.4062,3.4062,3.4062,3.4053,3.3848,3.375,3.374,3.3516,3.3386,3.3355,3.2629,3.226,3.2008,3.1102,3.0917,3.1049,2.9852,2.8816,2.7751,0.0,0.0,0.0,0.0,0.0,0.0,0.0,0.9589,0.9952,1.0641,1.0636,1.0874,1.1655,1.1818,1.2055,1.2533,1.3427,1.4202,1.4799,1.613,1.726,1.8126,1.9391,2.0269,2.0724,2.1655,2.2346,2.2755,2.3569,2.4123,2.4434,2.5572,2.6126,2.6232,2.7237,2.7741,2.7839,2.8144,2.8291,2.8291,2.8291,2.8073,2.7565,2.6391,2.5913,2.5708,2.4742,2.4098,2.3646,2.3398,2.2445,2.1417,2.1534,2.1346,2.1142,2.1344,2.1643,0.0,0.0,0.0,0.0,0.0,0.0,0.0,0.0,2.7752,2.8626,2.9559,2.9651,2.9933,3.1176,3.0763,3.0653,3.1912,3.2166,3.238,3.2861,3.315,3.3206,3.2959,3.3291,3.3545,3.3545,3.3935,3.4336,3.4678,3.5127,3.5537,3.5879,3.5976,3.5982,3.5982,3.5693,3.5478,3.5391,3.5019,3.4785,3.4697,3.4697,3.4566,3.4284,3.4248,3.4011,3.3647,3.318,3.2797,3.2406,3.1249,3.0587,3.0157,2.896,2.8806,2.9229,2.8697,2.7516,2.5916,0.0,0.0,0.0,0.0,0.0,0.0,0.0,0.0,0.9457,0.9722,0.9937,1.0267,1.0788,1.0966,1.1341,1.2101,1.2919,1.395,1.5237,1.6461,1.7527,1.834,1.986,2.0641,2.0533,2.168,2.2465,2.2887,2.3813,2.4457,2.485,2.588,2.6557,2.6912,2.7451,2.7897,2.8249,2.8271,2.8291,2.8291,2.8291,2.8073,2.7633,2.708,2.6641,2.6152,2.4849,2.4355,2.4124,2.299,2.2375,2.2059,2.1899,2.2134,2.2531,2.2784,2.3139,2.3443,2.3443,2.3926,2.4691,2.5845,2.6789,2.7754,0.0,2.9762,3.0511,3.0991,3.1298,3.1782,3.2698,3.2118,3.1963,3.3341,3.2851,3.2529,3.3228,3.3114,3.306,3.3296,3.374,3.4036,3.4036,3.4375,3.4648,3.4697,3.5127,3.542,3.5459,3.582,3.5982,3.5982,3.5976,3.5771,3.54,3.5342,3.5107,3.4697,3.4697,3.402,3.2799,3.4071,3.3677,3.2031,3.169,3.0669,2.9198,2.9067,2.8796,2.8435,2.7908,2.7023,2.6014,2.6013,2.5672,2.5011,0.0,0.0,0.0,0.0,0.0,0.0,0.0,0.0,0.0,0.9311,0.9511,0.9724,0.9925,1.0309,1.087,1.1675,1.2487,1.3497,1.4791,1.6011,1.715,1.8184,1.9539,2.0345,2.0491,2.1682,2.2506,2.2904,2.3522,2.4074,2.4507,2.5714,2.6378,2.657,2.7593,2.8125,2.8291,2.8291,2.8291,2.8271,2.8054,2.7848,2.7594,2.6631,2.5996,2.5542,2.4707,2.4102,0.0,2.2783,2.2102,2.1617,2.1658,2.1747,2.1955,2.2662,2.3103,2.3509,2.4263,2.5378,2.6505,2.7285,2.8509,2.9677,3.0349,3.0951,3.1434,3.1854,3.1441,3.1363,3.252,3.1946,3.1643,3.2761,3.2601,3.2476,3.2775,3.2858,3.2953,3.307,3.3085,3.3206,3.364,3.4082,3.4336,3.4336,3.4746,3.5107,3.5381,3.5557,3.5771,3.5982,3.5982,3.5937,3.5762,3.5762,3.5664,3.5435,3.4599,3.3836,3.3282,3.3618,3.2951,3.1498,3.0105,2.9091,2.8345,2.7519,2.6955,2.6547,2.5525,2.4663,2.4051,2.4775,2.4404,2.3429,0.0,0.0,0.0,0.0,0.0,0.0,0.0,0.0,0.0,0.0,0.9332,0.9392,0.9443,0.9911,1.052,1.1265,1.2064,1.3047,1.4258,1.5453,1.6616,1.7724,1.9034,1.9868,2.0152,2.1462,2.2286,2.2574,2.3173,2.368,2.4144,2.5399,2.605,2.6193,2.7398,2.7939,2.7939,2.7939,2.7939,2.792,2.7607,2.737,2.7021,2.5957,2.5059,2.4349,2.4004,2.3428,2.2726,2.2021,2.1366,2.085,2.0879,2.1018,2.1308,2.2035,2.3044,2.4131,2.5228,2.6889,2.8387,2.875,2.9916,3.1105,3.1505,3.1742,3.1932,3.2083,3.1361,3.0949,3.1803,3.1378,3.1164,3.2037,3.2147,3.2162,3.2371,3.2445,3.2486,3.258,3.2248,3.2207,3.2756,3.3267,3.3674,3.3887,3.4287,3.4726,3.5176,3.5322,3.5586,3.5972,3.5982,3.5982,3.5982,3.5597,3.5382,3.5382,3.3762,3.277,3.2368,3.1729,3.0982,3.0107,2.837,2.7345,2.6814,2.5767,2.5128,2.4689,2.3665,2.3099,2.3003,2.3827,2.3385,2.2358,0.0,0.0,0.0,0.0,0.0,0.0,0.0,0.0,0.0,0.0,0.0,0.0,0.0,0.9839,1.0249,1.0866,1.1641,1.2634,1.3842,1.5053,1.6074,1.6908,1.8467,1.9329,1.9338,2.0903,2.1714,2.1733,2.2788,2.3508,2.3936,2.4941,2.5632,2.6041,2.6728,2.7025,2.7025,2.7025,2.7025,2.7051,2.7041,2.6508,2.5718,2.5273,2.4053,2.2588,2.2557,2.2295,2.1749,2.043,1.9962,1.9864,1.9491,2.0161,2.1109,2.1146,2.3422,2.6049,2.6667,2.8675,3.0563,3.0468,3.1101,3.1876,3.2262,3.2212,3.1965,3.1529,3.1388,3.1219,3.0754,3.0637,3.0882,3.1667,3.1537,3.157,3.2301,3.1777,3.1452,3.1787,3.1499,3.1242,3.1261,3.193,3.2664,3.3377,3.3848,3.4277,3.4697,3.5146,3.5586,3.5972,3.5982,3.5982,3.5982,3.4574,3.3875,3.384,3.1913,3.0244,2.8816,2.7706,2.72,2.72,2.6487,2.5169,2.3536,2.3509,2.3263,2.2962,2.2934,2.29,2.2893,2.2955,2.2733,2.2385,0.0,0.0,0.0,0.0,0.0,0.0,0.0,0.0,0.0,0.0,0.0,0.0,0.0,0.0,0.0,0.0,1.1237,1.2101,1.3038,1.4222,1.537,1.6451,1.7532,1.8357,1.8898,1.996,2.0647,2.0903,2.1522,2.2184,2.2866,2.3697,2.4359,2.4907,2.5613,2.6004,2.6147,2.6147,2.6147,2.6089,2.5503,2.5093,2.4693,2.3447,2.2257,2.1123,0.0,2.0039,2.0117,1.9648,1.9288,1.9104,1.957,1.9982,2.0578,2.2016,2.4213,2.6547,2.814,2.9315,3.0507,3.2207,3.2516,3.2359,3.2167,3.2069,3.1661,3.028,3.0005,2.9958,2.9841,2.9596,2.9693,3.0527,3.0383,3.0337,3.0856,3.0916,3.0947,3.1071,3.0714,3.0769,3.1513,3.1817,3.2054,3.2322,3.3216,3.3836,3.403,3.4914,3.5485,3.5665,3.5879,3.5416,3.4167,3.3639,3.2743,3.1456,2.9837,2.878,2.8226,2.6153,2.5784,2.666,2.48,2.3631,2.3065,2.3065,2.2996,2.2893,2.2893,2.2893,2.2893,2.2893,2.2833,2.2712,0.0,0.0,0.0,0.0,0.0,0.0,0.0,0.0,0.0,0.0,0.0,0.0,0.0,0.0,0.0,0.0,0.0,1.1464,1.2413,1.3346,1.4337,1.543,1.6355,1.7112,1.7651,1.872,1.9392,1.9639,2.02,2.0784,2.1462,2.2179,2.2792,2.333,2.4063,2.449,2.4674,2.4674,2.4633,2.4508,2.3942,2.3532,2.3103,2.1719,2.0635,0.0,1.8576,1.8164,1.8201,1.8523,1.8418,1.8322,1.9171,1.9864,2.0771,2.2764,2.4895,2.7008,2.8807,3.0057,3.1225,3.2823,3.2847,3.2302,3.1759,3.1342,3.0622,2.9203,2.8795,2.8625,2.8437,2.8303,2.8447,2.9153,2.9326,2.9537,2.992,3.0159,3.0368,3.0516,3.0173,3.0274,3.1152,3.1349,3.1584,3.1995,3.2873,3.3488,3.37,3.4547,3.508,3.5289,3.4962,3.4202,3.2996,3.193,3.0397,2.8477,2.7534,2.6939,2.667,2.4921,2.4594,2.5344,2.3646,2.2893,2.2893,2.2893,2.2893,2.2893,2.2893,2.2893,2.2893,2.2893,2.2893,2.2893,0.0,0.0,0.0,0.0,0.0,0.0,0.0,0.0,0.0,0.0,0.0,0.0,0.0,0.0,0.0,0.0,0.0,0.0,1.1926,1.241,1.3023,1.3898,1.4995,1.5627,1.5726,1.7206,1.7981,1.7981,1.8769,1.9373,1.9795,2.0418,2.0953,2.1394,2.2038,2.2456,2.2669,2.265,2.2539,2.2352,2.2313,2.1805,2.0966,2.0079,1.921,1.8364,1.7578,1.678,1.6202,1.7096,1.7458,1.7673,1.8488,1.9923,2.1679,2.3389,2.5484,2.7562,2.8884,3.0911,3.2602,3.2522,3.2231,3.1811,3.1119,3.009,2.9059,2.8257,2.7763,2.7289,2.6591,2.682,2.7215,2.7637,2.839,2.9069,2.9482,2.9574,2.9748,3.0121,2.9868,2.9803,3.0195,3.0589,3.1269,3.2294,3.2764,3.3213,3.3638,3.4107,3.4446,3.4765,3.3362,3.2499,3.2324,2.9409,2.7005,2.5159,2.5159,2.4819,2.4195,2.3901,2.3607,2.3272,2.3034,2.2893,2.2893,2.2893,2.2893,2.2893,2.2893,2.2893,2.2893,2.2893,2.2893,2.2893,0.0,0.0,0.0,0.0,0.0,0.0,0.0,0.0,0.0,0.0,0.0,0.0,0.0,0.0,0.0,0.0,0.0,0.0,1.0724,1.1517,1.2279,1.2995,1.3695,1.4294,1.4817,1.5796,1.6312,1.6312,1.7119,1.7724,1.8119,1.8294,1.8861,1.9724,1.9896,2.0252,2.0709,2.0552,2.0468,2.0372,1.9817,1.9455,1.9134,1.7954,1.7181,1.6666,1.6113,1.5771,1.5762,1.6989,1.8223,1.9424,2.0274,2.1727,2.3418,2.4801,2.6541,2.8494,3.0679,3.1528,3.21,3.3334,3.2725,3.1517,3.0543,2.9638,2.8547,2.6911,2.6239,2.5741,2.4955,2.5141,2.5645,2.6334,2.7132,2.7913,2.8619,2.9234,2.9647,2.9748,2.9941,3.0195,3.0598,3.0992,3.1492,3.2046,3.2749,3.3192,3.3308,3.4227,3.4171,3.2849,3.2657,3.1368,2.8816,2.6605,2.5242,2.4747,2.4747,2.4563,2.4195,2.3901,2.3607,2.3272,2.3034,2.2893,2.2893,2.2893,2.2893,2.2893,2.2893,2.2893,2.2893,2.2893,2.2893,2.2893,0.0,0.0,0.0,0.0,0.0,0.0,0.0,0.0,0.0,0.0,0.0,0.0,0.0,0.0,0.0,0.0,0.0,0.0,0.0,1.0523,1.1131,1.1629,1.2351,1.2944,1.3352,1.4383,1.4915,1.4915,1.5542,1.5957,1.6193,1.6358,1.6774,1.7357,1.7701,1.804,1.8338,1.84,1.8312,0.0,0.0,1.7376,1.7103,1.6205,1.5723,1.5483,1.5225,1.5625,1.6475,1.78,1.9228,2.0664,2.1748,2.3262,2.4908,2.6401,2.7939,2.9571,3.1549,3.1959,3.2096,3.3077,3.2131,3.0765,2.9802,2.8563,2.716,2.5542,2.4737,2.4115,2.3488,2.384,2.45,2.5333,2.6297,2.7233,2.8032,2.884,2.9473,2.981,3.0213,3.069,3.1267,3.1524,3.19,3.2496,3.2954,3.3209,3.3211,3.3328,3.2927,3.186,3.0705,2.8852,2.6247,2.5139,2.4599,2.4599,2.4599,2.4416,2.4008,2.3884,2.3534,2.3113,2.2974,2.2893,2.2893,2.2893,2.2893,2.2893,2.2893,2.2893,2.2893,2.2893,2.2893,2.2893,0.0,0.0,0.0,0.0,0.0,0.0,0.0,0.0,0.0,0.0,0.0,0.0,0.0,0.0,0.0,0.0,0.0,0.0,0.0,0.0,0.996,1.0207,1.1059,1.1586,1.1709,1.2964,1.363,1.3658,1.4121,1.4335,1.4344,1.4698,1.4891,1.4964,1.5696,1.6011,1.6009,1.6356,1.6262,1.5889,1.5845,1.5635,1.5281,0.0,1.4665,1.4726,1.4847,1.6001,1.7683,1.9022,2.0322,2.162,2.301,2.46,2.6303,2.8037,2.9414,3.0644,3.1944,3.2374,3.2404,3.2284,3.1181,2.9901,2.89,2.7188,2.5471,2.422,2.3272,2.2538,2.214,2.2726,2.355,2.4409,2.5601,2.6747,2.7591,2.8509,2.9372,3.0112,3.0598,3.1167,3.1937,3.2056,3.2395,3.3131,3.3241,3.3269,3.3269,3.2158,3.1296,3.0899,2.8084,2.5932,2.4599,2.4599,2.4599,2.4599,2.4599,2.4335,2.381,2.381,2.3475,2.2893,2.2893,2.2893,2.2893,2.2893,2.2893,2.2893,2.2893,2.2893,2.2893,2.2893,2.2893,2.2893,0.0,0.0,0.0,0.0,0.0,0.0,0.0,0.0,0.0,0.0,0.9264,0.0,0.0,0.0,0.0,0.0,0.0,0.0,0.0,0.0,0.0,0.9708,0.9998,1.0331,1.0731,1.1688,1.2244,1.2413,1.3153,1.3506,1.3506,1.358,1.3796,1.4117,1.4371,1.4658,1.4956,1.4914,1.4855,1.4753,1.4536,1.4658,1.4887,1.4044,0.0,0.0,1.5053,1.6426,1.8154,1.9814,2.1231,2.2578,2.4242,2.5952,2.7692,2.9365,3.0537,3.1494,3.2432,3.2957,3.3003,3.2113,3.1193,2.998,2.7946,2.6222,2.4572,2.2969,2.1975,2.1288,2.0885,2.148,2.2272,2.3096,2.4574,2.6013,2.7142,2.8573,2.9684,3.014,3.0837,3.1469,3.1955,3.2304,3.2698,3.315,3.3523,3.3716,3.3716,3.2298,3.0332,2.7759,2.5932,2.4888,2.4599,2.4599,2.4599,2.4599,2.4599,2.4335,2.381,2.381,2.3475,2.2893,2.2893,2.2893,2.2893,2.2893,2.2893,2.2893,2.2893,2.2893,2.2893,2.2893,2.2893,2.2893,0.0,0.0,0.0,0.0,0.0,0.0,0.0,0.0,0.0,0.0,0.9214,0.8894,0.0,0.0,0.0,0.0,0.0,0.0,0.0,0.0,0.0,0.0,0.0,0.0,1.0175,1.0935,1.1382,1.1479,0.0,1.2364,1.2373,1.2648,1.2855,1.2974,1.341,1.3565,1.3596,1.4048,1.4159,1.4019,1.3889,1.415,1.4516,0.0,0.0,0.0,1.4956,1.6211,1.791,1.9423,2.1064,2.283,2.4805,2.6602,2.8357,3.0049,3.1172,3.2041,3.2891,3.2988,3.2615,3.1475,3.0308,2.8897,2.6737,2.4986,2.3349,2.17,2.0711,2.0108,1.9895,2.0363,2.1156,2.2382,2.3605,2.4913,2.6371,2.7775,2.8968,2.9773,2.9942,3.0278,3.1032,3.0622,3.0523,3.1095,3.13,3.1763,3.2552,3.0367,2.804,2.5793,2.4998,2.4599,2.4599,2.4599,2.4599,2.4599,2.4599,2.4335,2.381,2.381,2.3475,2.2893,2.2893,2.2893,2.2893,2.2893,2.2893,2.2893,2.2893,2.2893,2.2893,2.2893,2.2893,2.2893,0.0,0.0,0.0,0.0,0.0,0.0,0.0,0.9692,0.9548,0.9513,0.9094,0.8789,0.8755,0.8484,0.8305,0.0,0.0,0.0,0.0,0.0,0.0,0.0,0.0,0.0,0.9986,0.0,0.0,1.096,1.1369,0.0,0.0,0.0,0.0,0.0,1.2685,1.2778,1.2462,1.3482,1.3738,0.0,0.0,1.4036,1.4432,0.0,0.0,0.0,0.0,1.5885,1.7331,1.8682,2.0459,2.2461,2.4508,2.6553,2.8496,3.0234,3.1319,3.208,3.2827,3.2652,3.1945,3.0677,2.9293,2.7713,2.5626,2.3785,2.2071,2.0555,1.9593,1.9045,1.9045,1.9288,1.9964,2.1392,2.2243,2.3327,2.4924,2.6388,2.7759,2.8956,2.8793,2.8967,3.0002,2.8948,2.844,2.9087,2.8849,2.9254,3.0438,2.8228,2.6188,2.4636,2.4599,2.4599,2.4599,2.4599,2.4599,2.4599,2.4539,2.4269,2.3803,2.3743,2.3415,2.2893,2.2893,2.2893,2.2893,2.2893,2.2893,2.2893,2.2893,2.2893,2.2893,2.2893,2.2893,2.2893,0.0,0.0,0.0,0.0,0.0,0.0,0.0,0.9899,0.9639,0.9279,0.899,0.8759,0.8631,0.8421,0.8305,0.0,0.0,0.0,0.0,0.0,0.0,0.0,0.0,0.0,0.0,0.0,0.0,1.1163,1.1578,0.0,0.0,0.0,0.0,0.0,0.0,1.242,1.2115,1.3177,0.0,0.0,0.0,0.0,0.0,0.0,0.0,0.0,0.0,1.5776,1.6476,1.8108,1.9591,2.1094,2.2863,2.5415,2.8083,2.9756,3.0615,3.1132,3.1687,3.1796,3.1432,2.9958,2.8697,2.7158,2.4847,2.2736,2.0924,1.9668,1.876,1.821,1.821,1.8193,1.8445,1.9256,1.9931,2.0833,2.2262,2.4327,2.6134,2.7297,2.7856,2.8471,2.9299,2.8661,2.8379,2.878,2.7765,2.715,2.7332,2.7048,2.6188,2.4636,2.4599,2.4599,2.4599,2.4599,2.4599,2.4599,2.4332,2.4075,2.3797,2.3487,2.318,2.2893,2.2893,2.2893,2.2893,2.2893,2.2893,2.2893,2.2893,2.2893,2.2893,2.2893,2.2893,2.2893,0.0,0.0,0.0,0.0,0.0,0.0,0.0,0.9613,0.9333,0.9223,0.8894,0.8659,0.8603,0.853,0.8488,0.0,0.0,0.0,0.0,0.0,0.0,0.0,0.0,0.0,0.0,0.0,1.0765,1.0844,1.1358,0.0,0.0,0.0,0.0,0.0,0.0,1.2584,1.2414,1.3191,0.0,0.0,0.0,0.0,0.0,0.0,0.0,0.0,0.0,0.0,1.6256,1.6878,1.8115,1.9619,2.083,2.2754,2.5107,2.7888,2.916,2.9808,3.0393,3.06,3.0257,2.8783,2.754,2.6098,2.392,2.202,2.0411,1.9201,1.8302,1.7743,1.7743,1.7498,1.7527,1.8319,1.874,1.9399,2.0662,2.2344,2.3941,2.5246,2.5369,2.5679,2.6618,2.5829,2.5452,2.5991,2.572,2.5536,2.5536,2.5536,2.5249,2.4636,2.4599,2.4599,2.4599,2.4599,2.4512,2.4376,2.4255,2.3955,2.35,2.3345,2.3153,2.2893,2.2893,2.2893,2.2893,2.2893,2.2893,2.2893,2.2893,2.2893,2.2893,2.2893,2.2893,2.2893,0.0,0.0,0.0,0.0,0.0,0.0,0.9717,0.9346,0.9081,0.9028,0.8781,0.8607,0.8607,0.8638,0.8645,0.8607,0.0,0.0,0.0,0.0,0.0,0.0,0.0,0.0,0.0,0.0,1.0898,1.0954,1.1373,1.157,0.0,0.0,1.2434,1.2261,0.0,0.0,0.0,0.0,0.0,0.0,0.0,0.0,0.0,0.0,0.0,0.0,0.0,0.0,0.0,0.0,0.0,1.803,1.9043,2.0371,2.2236,2.5718,2.7341,2.8172,2.8758,2.8984,2.8719,2.7343,2.6117,2.4748,2.2817,2.1123,1.9657,1.8577,1.7798,1.7321,1.7321,1.6767,1.6524,1.7269,1.7357,1.772,1.8855,2.0416,2.1928,2.3333,2.3314,2.359,2.4601,2.3935,2.3667,2.4168,2.4439,2.4599,2.4599,2.4519,2.4512,2.4599,2.4519,2.4472,2.4472,2.4386,2.4282,2.4075,2.3988,2.3692,2.3292,2.3233,2.3073,2.2893,2.2893,2.2893,2.2893,2.2893,2.2893,2.2893,2.2893,2.2893,2.2893,2.2893,2.2893,2.2893,0.0,0.0,0.0,0.0,0.0,0.0,0.0,0.9225,0.8978,0.8656,0.8607,0.8607,0.8607,0.8717,0.8745,0.861,0.0,0.0,0.0,0.0,0.0,0.0,0.0,0.0,0.0,0.0,1.1595,1.1783,1.1783,1.1728,1.1607,1.214,1.2224,1.1929,0.0,0.0,0.0,0.0,0.0,0.0,0.0,0.0,0.0,0.0,0.0,0.0,0.0,0.0,0.0,0.0,0.0,0.0,0.0,1.8623,2.0019,2.3415,2.5189,2.6138,2.6705,2.6924,2.6768,2.5697,2.4473,2.3096,2.1502,1.9859,1.8485,1.7678,1.7193,1.6908,1.6908,1.5927,1.5288,1.583,1.5433,1.5424,1.6565,1.8509,2.0322,2.1663,2.222,2.291,2.3919,2.3887,2.3924,2.4182,2.4439,2.4599,2.4599,2.4369,2.4342,2.4586,2.4356,2.4209,2.4209,2.3921,2.3817,2.381,2.348,2.3299,2.3278,2.3041,2.29,2.2893,2.2893,2.2893,2.2893,2.2893,2.2893,2.2893,2.2893,2.2893,2.2893,2.2893,2.2893,2.2893,0.0,0.0,0.0,0.0,0.0,0.0,0.0,0.886,0.8719,0.8621,0.8607,0.8607,0.8607,0.8724,0.8782,0.8745,0.0,0.0,0.0,0.0,0.0,0.0,0.0,0.0,0.0,0.0,1.1739,1.1801,1.244,1.2745,1.2707,1.3374,1.3447,1.2997,1.3166,1.2974,0.0,0.0,0.0,0.0,0.0,0.0,1.5768,0.0,0.0,0.0,0.0,0.0,0.0,0.0,0.0,0.0,0.0,0.0,0.0,1.9523,2.1632,2.355,2.4278,2.4514,2.4376,2.3716,2.2691,2.1581,2.0518,1.9245,1.8063,1.7266,1.6991,1.6826,1.6534,1.5731,1.5415,1.6368,1.5477,1.5199,1.6755,1.7733,1.8747,2.0011,2.1334,2.2362,2.2863,2.3241,2.3507,2.3601,2.3881,2.4042,2.4042,2.3955,2.4042,2.4329,2.4062,2.3944,2.3944,2.385,2.3667,2.3467,2.3339,2.3213,2.3006,2.294,2.2893,2.2893,2.2893,2.2893,2.2893,2.2893,2.2893,2.2893,2.2893,2.2893,2.2893,2.2893,2.2893,2.2893,0.0,0.0,0.0,0.0,0.0,0.0,0.0,0.8683,0.8607,0.8607,0.8607,0.8607,0.8607,0.8724,0.8803,0.8803,0.0,0.0,0.0,0.0,0.0,0.0,0.0,0.0,0.0,1.1866,1.2048,1.2325,1.2901,1.3343,1.3631,1.4093,1.413,1.3795,1.359,1.3303,0.0,0.0,0.0,0.0,0.0,0.0,1.5635,0.0,0.0,0.0,0.0,0.0,0.0,0.0,0.0,0.0,0.0,0.0,0.0,0.0,1.8695,2.0523,2.1836,2.2306,2.2324,2.1873,2.1087,2.0173,1.9208,1.8292,1.7413,1.6615,1.6569,1.6606,1.6341,1.579,1.5673,1.6638,1.5972,1.5748,1.6941,1.7732,1.8563,1.9584,2.1049,2.2058,2.2238,2.2906,2.3292,2.3292,2.3607,2.381,2.381,2.3661,2.3688,2.3868,2.3701,2.3607,2.3607,2.3522,2.3375,2.3153,2.3153,2.3053,2.2893,2.2893,2.2893,2.2893,2.2893,2.2893,0.0,2.2893,2.2893,2.2893,2.2893,2.2893,2.2893,2.2893,2.2893,2.2893,0.0,0.0,0.0,0.0,0.0,0.0,0.0,0.0,0.0,0.0,0.8607,0.8607,0.8607,0.8724,0.8816,0.0,0.0,0.0,0.0,0.0,0.0,0.0,0.0,0.0,0.0,1.2032,1.2487,1.3198,1.3243,1.3645,1.4349,1.4385,1.4395,1.4325,1.3795,1.3517,0.0,0.0,0.0,0.0,0.0,0.0,0.0,0.0,0.0,0.0,0.0,0.0,0.0,0.0,0.0,0.0,0.0,0.0,0.0,0.0,0.0,0.0,0.0,2.0184,2.046,2.0101,1.9552,1.8797,1.7678,1.7101,0.0,1.5824,1.6001,1.6296,1.6268,1.6024,1.6081,1.6781,1.6746,1.6771,1.7144,1.8303,1.9397,2.0117,2.1269,2.1984,2.1984,2.2779,2.3258,2.3258,2.3547,2.3743,2.3743,2.344,2.3258,2.3258,2.3258,2.3258,2.3258,2.311,2.2996,2.2893,2.2996,2.2996,2.2893,2.2893,2.2962,2.3065,2.3065,2.3065,2.3065,2.3065,2.2996,2.2893,2.2893,2.2893,2.2893,2.2893,2.2893,2.2893,0.0,0.0,0.0,0.0,0.0,0.0,0.0,0.0,0.0,0.0,0.8607,0.8607,0.8607,0.8724,0.8919,0.0,0.0,0.0,0.0,0.0,0.0,0.0,0.0,0.0,0.0,1.2303,1.2615,1.3198,1.3777,1.4303,1.4831,1.5262,1.5226,1.4807,1.4339,1.3678,0.0,0.0,0.0,0.0,0.0,0.0,0.0,0.0,0.0,0.0,1.6324,1.6042,0.0,0.0,0.0,0.0,0.0,0.0,0.0,0.0,1.5138,1.5886,1.6401,0.0,1.8015,1.8218,1.764,1.6962,0.0,1.6341,1.5835,1.534,1.5817,1.6204,1.59,1.6068,1.66,1.7619,1.679,1.6523,1.798,1.8843,1.9554,2.0134,2.1269,2.1984,2.1984,2.2619,2.3007,2.3007,2.3074,2.3114,2.3114,2.3047,2.3007,2.3007,2.3007,2.3007,2.3007,2.4007,2.3972,2.2893,2.4006,2.3938,2.2893,2.2893,2.3502,2.4508,2.4508,2.4508,2.4508,2.4508,2.387,2.2893,2.2893,2.2893,2.2893,2.2893,2.2893,2.2893,0.0,0.0,0.0,0.0,0.0,0.0,0.0,0.0,0.0,0.0,0.0,0.0,0.0,0.0,0.0,0.0,0.0,0.0,0.0,0.0,0.0,0.0,0.0,0.0,1.2392,1.2731,1.3166,1.37,1.4327,1.4876,1.5372,1.566,1.5659,1.5347,1.4618,1.3898,0.0,0.0,0.0,0.0,1.4438,0.0,0.0,0.0,0.0,0.0,1.65,1.6315,0.0,1.5988,1.5186,1.4245,0.0,0.0,0.0,0.0,1.428,1.4849,1.5068,1.5932,1.6833,1.7049,1.6607,1.6097,1.5974,1.5829,1.5595,1.5184,1.5737,1.6286,1.6257,1.6613,1.7286,1.8455,1.8264,1.8358,1.9523,1.9531,1.9615,2.0137,2.1269,2.1984,2.1984,2.2552,2.2893,2.2893,2.2893,2.2893,2.2893,2.2893,2.2833,2.2665,2.3262,2.3696,2.387,2.4602,2.4602,2.387,2.4643,2.4602,2.387,2.3663,2.4031,2.4814,2.4609,2.4178,2.3611,2.3611,2.3183,2.2492,2.2492,2.2572,2.2659,2.2659,2.278,2.2893,0.0,0.0,0.0,0.0,0.0,0.0,0.0,0.0,0.0,0.0,0.0,0.0,0.0,0.0,0.0,0.0,0.0,0.0,0.0,0.0,0.0,0.0,0.0,1.2413,1.2449,1.3145,1.3758,1.4299,1.477,1.5277,1.5803,1.5803,1.5767,1.5647,1.4703,1.4084,0.0,0.0,1.3071,1.3428,1.4481,0.0,0.0,0.0,0.0,0.0,0.0,0.0,0.0,1.6262,1.5467,1.448,1.4388,0.0,0.0,0.0,0.0,0.0,1.457,1.541,1.6196,1.6321,1.6107,1.5794,1.5539,1.5624,1.5645,1.5314,1.5845,1.6497,1.6844,1.7385,1.8128,1.9219,1.9982,2.0468,2.0599,1.9941,1.9633,2.0137,2.1413,2.2161,2.201,2.2674,2.3086,2.2928,2.2893,2.288,2.2833,2.2827,2.2659,2.2358,2.3446,2.4292,2.4862,2.5063,2.5156,2.5122,2.5156,2.5156,2.5115,2.4591,2.4532,2.4807,2.4246,2.338,2.2306,2.2372,2.228,2.2083,2.2083,2.2237,2.2418,2.2352,2.2539,2.2833,0.0,0.0,0.0,0.0,0.0,0.0,0.0,0.0,0.0,0.0,0.0,0.0,0.0,0.0,0.0,0.0,0.0,0.0,0.0,0.0,0.0,0.0,1.2282,1.2475,1.2656,1.3209,1.3758,1.4299,1.477,1.5277,1.5803,1.5803,1.5552,1.5109,1.4546,1.4084,1.3659,1.3129,1.3307,1.4022,1.4651,0.0,0.0,0.0,0.0,0.0,0.0,0.0,0.0,1.5634,1.5039,1.4411,1.3907,0.0,0.0,0.0,0.0,0.0,1.4094,1.4621,1.5225,1.5961,1.5886,1.5756,1.6207,1.6125,1.593,1.5874,1.6374,1.6835,1.6899,1.8064,1.9201,1.9721,2.0008,1.9766,1.8632,1.9211,1.986,2.0164,2.2027,2.2939,2.2089,2.3317,2.3833,2.2942,2.2893,2.2786,2.2498,2.2485,2.2352,2.2064,2.2249,2.298,2.4228,2.5352,2.5869,2.5772,2.5869,2.5869,2.5707,2.4575,2.4708,2.5782,2.4615,2.3984,2.3789,2.4082,2.3504,2.2405,2.2405,2.2439,2.2447,2.2183,2.2238,2.2525,0.0,0.0,0.0,0.0,0.0,0.0,0.0,0.0,0.0,0.0,0.0,0.0,0.0,0.0,0.0,0.0,0.0,0.0,0.0,0.0,0.0,1.293,1.2984,1.3113,1.334,1.387,1.432,1.4682,1.5179,1.5552,1.5803,1.5803,1.5672,1.5408,1.4902,1.4661,1.4582,1.4052,1.4094,1.4576,0.0,0.0,0.0,0.0,0.0,0.0,0.0,0.0,0.0,0.0,1.4732,1.3978,1.3693,0.0,0.0,0.0,0.0,0.0,1.3929,1.425,1.4742,1.6094,1.6065,1.588,1.6513,1.6656,1.6682,1.6787,1.7374,1.7944,1.8164,1.9164,2.0144,2.0778,2.0612,2.0237,1.97,1.9722,1.9967,2.0421,2.1664,2.2576,2.2773,2.2983,2.3195,2.3474,2.282,2.2365,2.2191,2.2184,2.2051,2.1796,2.2445,2.3057,2.3554,2.418,2.4647,2.4948,2.4973,2.4973,2.4908,2.4092,2.4235,2.5017,2.42,2.353,2.3035,2.3195,2.2748,2.2018,2.2018,2.2024,2.2031,2.2219,2.2368,2.2491,0.0,0.0,0.0,0.0,0.0,0.0,0.0,0.0,0.0,0.0,0.0,0.0,0.0,0.0,0.0,0.0,0.0,0.0,0.0,0.0,1.3331,1.3577,1.3531,1.3632,1.3883,1.4432,1.4796,1.5002,1.554,1.5803,1.5803,1.5803,1.5803,1.5779,1.5273,1.5181,1.5362,1.4958,1.4904,1.5132,0.0,0.0,0.0,0.0,0.0,0.0,0.0,0.0,0.0,0.0,0.0,0.0,0.0,0.0,0.0,1.2905,1.2905,1.3079,1.388,1.4182,1.465,1.6287,1.6443,1.636,1.7007,1.7475,1.7804,1.7842,1.8506,1.9177,1.9512,2.0463,2.1257,2.1433,2.1267,2.099,2.0672,2.0211,2.0094,2.0646,2.1445,2.2347,2.3386,2.2794,2.2813,2.3934,2.2766,2.1957,2.1923,2.1917,2.1783,2.1489,2.244,2.2852,2.2615,2.2647,2.3206,2.4297,2.4015,2.408,2.4425,2.3813,2.3758,2.4144,2.3506,2.281,2.2111,2.2174,2.208,2.1828,2.1765,2.1624,2.1547,2.2103,2.2277,2.2318,0.0,0.0,0.0,0.0,0.0,0.0,0.0,0.0,0.0,0.0,0.0,0.0,0.0,0.0,0.0,0.0,0.0,0.0,0.0,0.0,1.3843,1.3866,1.3628,1.3632,1.3883,1.4432,1.4796,1.5002,1.554,1.5803,1.5803,1.5803,1.5803,1.5779,1.5367,1.5273,1.5404,1.5363,1.5466,1.5683,1.6164,0.0,0.0,0.0,0.0,0.0,0.0,0.0,0.0,0.0,0.0,0.0,0.0,0.0,1.2905,1.2905,1.2905,1.3079,1.388,1.442,1.5059,1.6365,1.6996,1.7444,1.8046,1.8881,1.9411,1.8985,1.9588,2.0237,2.0386,2.1993,2.2724,2.1053,2.1626,2.1617,1.9796,1.9876,2.029,2.0672,2.2054,2.3136,2.3452,2.3439,2.356,2.3977,2.2766,2.1897,2.1629,2.1616,2.1482,2.1149,2.1231,2.1249,2.1235,2.1235,2.2487,2.4919,2.3734,2.3991,2.5459,2.4185,2.3767,2.4046,2.2762,2.2174,2.2111,2.2456,2.2543,2.2519,2.2205,2.1684,2.1176,2.1541,2.1648,2.1688,0.0,0.0,0.0,0.0,0.0,0.0,0.0,0.0,0.0,0.0,0.0,0.0,0.0,0.0,0.0,0.0,0.0,0.0,0.0,0.0,1.4072,1.3913,1.38,1.3876,1.414,1.4506,1.4967,1.5492,1.5696,1.5803,1.5803,1.5803,1.5803,1.5813,1.604,1.6049,1.5923,1.6258,1.6325,1.6208,1.6386,1.6481,0.0,0.0,0.0,0.0,0.0,0.0,0.0,0.0,1.4106,1.3752,1.3101,1.3308,1.3658,1.3065,1.3113,1.3451,1.3962,1.4439,1.518,1.6738,1.7861,1.8668,1.9042,1.9601,2.0157,2.0493,2.1027,2.1612,2.2258,2.2586,2.2442,2.152,2.1455,2.1152,2.0034,2.0254,2.0615,2.0909,2.1501,2.254,2.4276,2.2952,2.2726,2.4483,2.2638,2.139,2.1283,2.1276,2.1223,2.1109,2.1109,2.1109,2.1109,2.1109,2.1601,2.256,2.2097,2.2317,2.3098,2.2598,2.2661,2.3129,2.2637,2.2519,2.2738,2.2863,2.2793,2.2543,2.2017,2.1639,2.1432,2.1554,2.1595,2.1635,0.0,0.0,0.0,0.0,0.0,0.0,0.0,0.0,0.0,0.0,0.0,0.0,0.0,0.0,0.0,0.0,0.0,0.0,1.4273,1.4308,1.4179,1.3913,1.3816,1.3943,1.4285,1.4398,1.4818,1.5581,1.5658,1.5737,1.5803,1.5803,1.5825,1.588,1.6349,1.6511,1.6489,1.7026,1.7047,1.6723,1.686,1.6733,0.0,0.0,0.0,0.0,0.0,0.0,0.0,0.0,1.42,1.3965,1.332,1.3658,1.4142,1.3356,1.3356,1.3672,1.4001,1.4537,1.5386,1.6998,1.8447,1.9631,2.0188,2.0788,2.1333,2.1728,2.2378,2.3075,2.3782,2.3659,2.3151,2.214,2.1864,2.138,2.0335,2.0488,2.0782,2.1076,2.1109,2.1971,2.4193,2.2772,2.2466,2.4286,2.274,2.1538,2.1109,2.1506,2.1727,2.1727,2.1727,2.1727,2.1727,2.1324,2.0881,2.043,2.0564,2.0786,2.1127,2.167,2.1978,2.216,2.2574,2.2887,2.3106,2.3106,2.2887,2.2543,2.1985,2.1702,2.1583,2.1488,2.145,2.1484,0.0,0.0,0.0,0.0,0.0,0.0,0.0,0.0,0.0,0.0,0.0,0.0,0.0,0.0,0.0,0.0,0.0,0.0,1.4308,1.4308,1.4179,1.3913,1.3644,1.3752,1.4275,1.4041,1.431,1.5097,1.5368,1.5603,1.5803,1.5803,1.5869,1.6012,1.6144,1.65,1.7034,1.7574,1.7557,1.723,1.7629,1.7225,1.6392,0.0,0.0,0.0,0.0,0.0,0.0,0.0,1.4651,1.4926,1.3906,1.3919,1.4212,1.3729,1.3597,1.3684,1.4001,1.4738,1.5732,1.7077,1.8662,2.0264,2.1592,2.258,2.3076,2.2612,2.3584,2.4579,2.4762,2.5427,2.5183,2.2791,2.2945,2.2622,2.0513,2.0481,2.0775,2.1069,2.1102,2.1625,2.2976,2.31,2.31,2.31,2.31,2.2514,2.1197,2.2365,2.3107,2.3107,2.3107,2.3107,2.3107,2.1751,2.0367,1.9004,1.9374,1.9763,2.0144,2.1814,2.2034,2.117,2.2505,2.3106,2.3106,2.3106,2.2887,2.2574,2.2237,2.1891,2.1544,2.1235,2.1109,2.1109,0.0,0.0,0.0,0.0,0.0,0.0,0.0,0.0,0.0,0.0,0.0,0.0,0.0,0.0,0.0,0.0,0.0,0.0,1.4308,1.4308,1.41,1.3644,1.3543,1.357,1.3733,1.4089,1.462,1.5379,1.5457,1.5603,1.5803,1.5803,1.5869,1.6021,1.6445,1.6605,1.6605,1.7154,1.7113,1.6725,1.6839,1.6691,1.6382,0.0,0.0,0.0,0.0,0.0,0.0,0.0,0.0,0.0,1.3416,1.3928,1.4628,1.3442,1.3545,1.4024,1.409,1.499,1.6197,1.75,1.9129,2.0732,2.2031,2.2754,2.3331,2.4051,2.4842,2.5384,2.5256,2.4252,2.3228,2.2516,2.1533,2.0642,2.0003,2.018,2.0394,2.045,2.0464,2.0995,2.2343,2.2373,2.2373,2.2464,2.2615,2.2525,2.2155,2.2766,2.3512,2.4409,2.3566,2.3107,2.3107,2.0785,1.9425,1.9004,1.839,1.8294,1.8684,2.0411,2.1145,2.117,2.2505,2.3106,2.3106,2.3106,2.2887,2.2574,2.248,2.2268,2.1954,2.1828,2.1796,2.1765,0.0,0.0,0.0,0.0,0.0,0.0,0.0,0.0,0.0,0.0,0.0,0.0,0.0,0.0,0.0,0.0,0.0,0.0,0.0,0.0,1.3944,1.3514,1.3399,1.3438,1.3652,1.4125,1.4722,1.5502,1.539,1.5502,1.5803,1.5803,1.5903,1.6088,1.6412,1.6616,1.6746,1.7063,1.7042,1.6789,1.6789,1.6586,1.6307,0.0,0.0,0.0,0.0,0.0,0.0,0.0,0.0,0.0,1.3693,1.407,1.457,1.349,1.366,1.4228,1.4349,1.5342,1.668,1.8154,1.9687,2.126,2.29,2.3618,2.4235,2.5184,2.5743,2.6007,2.59,2.4499,2.3202,2.2732,2.1449,2.0349,1.9859,2.0017,2.0204,2.0204,2.0614,2.1233,2.2028,2.2973,2.3121,2.2178,2.2744,2.2675,2.1683,2.2799,2.3627,2.404,2.3772,2.3463,2.31,2.036,1.8716,1.8197,1.7102,1.6412,1.6134,1.8625,1.996,2.0373,2.2278,2.3106,2.3106,2.3106,2.2988,2.2801,2.2637,2.2487,2.2268,2.2142,2.2111,2.208,0.0,0.0,0.0,0.0,0.0,0.0,0.0,0.0,0.0,0.0,0.0,0.0,0.0,0.0,0.0,0.0,0.0,0.0,0.0,0.0,1.3783,1.3505,1.3235,1.3353,1.3925,1.4182,1.4701,1.5536,1.5266,1.5356,1.5803,1.5803,1.5936,1.6189,1.6189,1.6522,1.7136,1.7136,1.7136,1.7136,1.7136,1.6746,1.62,1.6189,0.0,0.0,0.0,0.0,0.0,0.0,0.0,0.0,1.4398,1.4235,1.4142,1.367,1.3852,1.4277,1.4688,1.5762,1.7171,1.8885,2.0391,2.1971,2.3942,2.4889,2.5473,2.5995,2.6289,2.6454,2.6427,2.5459,2.4242,2.3038,2.2014,2.1028,1.993,1.9957,2.0124,2.0124,2.1096,2.1799,2.1918,2.4021,2.4409,2.209,2.3082,2.278,2.0459,2.2661,2.3608,2.2778,2.3807,2.3923,2.3012,2.0188,1.8128,1.691,1.5681,1.4449,1.3347,1.6802,1.8697,1.9377,2.1912,2.304,2.3062,2.3062,2.3084,2.3074,2.2762,2.2637,2.2613,2.2299,2.2198,2.2205,0.0,0.0,0.0,0.0,0.0,0.0,0.0,0.0,0.0,0.0,0.0,0.0,0.0,0.0,0.0,0.0,0.0,0.0,0.0,0.0,1.3783,1.3505,1.3249,1.3445,1.4197,1.4277,1.4767,1.5737,1.5524,1.5547,1.5803,1.5803,1.5892,1.6044,1.6044,1.6241,1.6565,1.6565,1.6597,1.665,1.6586,1.6426,1.6189,1.6077,1.5935,0.0,0.0,0.0,0.0,0.0,0.0,0.0,1.3906,1.3752,1.3658,1.3188,1.3563,1.4218,1.468,1.6001,1.7585,1.8963,2.1299,2.3447,2.4215,2.4943,2.5582,2.601,2.6514,2.6526,2.5405,2.4186,2.2974,2.1765,2.0608,1.9773,1.9517,1.9542,1.9582,1.9582,1.9809,2.0328,2.1292,2.1861,2.1976,2.1408,2.1839,2.1921,2.1487,2.3064,2.3972,2.3866,2.4022,2.3557,2.2413,1.8723,1.6726,1.6414,1.5054,1.4381,1.4422,1.658,1.8865,2.1163,2.2011,2.2513,2.2694,2.2694,2.2848,2.3074,2.3012,2.2981,2.2988,2.2926,2.2894,2.2856,0.0,0.0,0.0,0.0,0.0,0.0,0.0,0.0,0.0,0.0,0.0,0.0,0.0,0.0,0.0,0.0,0.0,0.0,0.0,0.0,0.0,1.3134,1.2981,1.3349,1.4287,1.43,1.4789,1.5803,1.568,1.5703,1.5803,1.5803,1.5869,1.5999,1.5999,1.611,1.6297,1.6297,1.6318,1.6351,1.6318,1.622,1.61,1.6033,1.5924,1.5803,1.5803,0.0,0.0,0.0,0.0,0.0,0.0,0.0,1.3513,1.3041,1.3477,1.4202,1.4668,1.607,1.7859,1.9746,2.1845,2.3454,2.3442,2.4357,2.5008,2.4247,2.4934,2.5485,2.491,2.3348,2.1936,2.1288,2.0191,1.9395,1.9395,1.9395,1.9395,1.9395,1.9902,2.0723,2.1936,2.2049,2.2305,2.289,2.1981,2.1452,2.1509,2.2237,2.2483,2.212,2.2591,2.2342,2.1263,1.8576,1.7195,1.7195,1.5689,1.5335,1.6092,1.7546,1.9131,2.0788,2.1615,2.2144,2.241,2.241,2.2593,2.2848,2.2848,2.2974,2.3106,2.3106,2.3106,2.3082,0.0,0.0,0.0,0.0,0.0,0.0,0.0,0.0,0.0,0.0,0.0,0.0,0.0,0.0,0.0,0.0,0.0,0.0,0.0,0.0,0.0,1.2727,1.2785,1.33,1.4275,1.4373,1.4873,1.5803,1.5803,1.5803,1.5803,1.5803,1.587,1.5979,1.5979,1.6044,1.62,1.6189,1.6188,1.6233,1.6177,1.61,1.5999,1.5979,1.5902,1.5803,1.5803,1.5803,1.5803,1.5803,0.0,0.0,0.0,0.0,1.3622,1.3162,1.3544,1.4211,1.4676,1.6236,1.8262,2.0489,2.1919,2.2726,2.2469,2.3334,2.3802,2.2364,2.3166,2.4115,2.4027,2.238,2.0985,2.0757,1.9894,1.9247,1.9247,1.9247,1.9247,1.9247,2.0145,2.1289,2.268,2.2456,2.2883,2.4471,2.238,2.1006,2.1006,2.1256,2.0874,1.9669,2.0876,2.1055,2.008,1.8732,1.8088,1.8052,1.6733,1.668,1.7757,1.8726,1.9352,1.9789,2.0989,2.1725,2.2036,2.2096,2.2271,2.2519,2.2509,2.2729,2.3001,2.3021,2.3012,2.3012,0.0,0.0,0.0,0.0,0.0,0.0,0.0,0.0,0.0,0.0,0.0,0.0,0.0,0.0,0.0,0.0,0.0,0.0,1.4763,0.0,0.0,1.2736,1.3155,1.3683,1.4287,1.4696,1.5203,1.5803,1.5803,1.5803,1.5803,1.5803,1.5814,1.5836,1.5836,1.5969,1.6188,1.6077,1.6154,1.6349,1.6121,1.6022,1.5988,1.5869,1.5825,1.5803,1.5803,1.5803,1.5803,1.5803,1.5491,0.0,0.0,0.0,1.4118,1.3634,1.3826,1.4282,1.4684,1.6881,1.926,2.0178,2.0971,2.1704,2.2329,2.1914,2.1611,2.2584,2.3298,2.3185,2.1255,2.0642,2.0072,1.9042,1.8715,1.8611,1.8611,1.8611,1.8611,1.8611,1.8771,1.9686,2.1836,2.025,2.0395,2.3527,2.1573,2.0236,2.0236,2.1515,2.126,1.9095,2.0473,2.0694,1.9508,1.8217,1.7587,1.7587,1.7374,1.7784,1.8722,1.8858,1.9261,1.9844,2.0527,2.1031,2.1348,2.1664,2.195,2.2234,2.2185,2.2376,2.2664,2.2661,2.2668,2.2668,0.0,0.0,0.0,0.0,0.0,0.0,0.0,0.0,0.0,0.0,0.0,0.0,0.0,0.0,0.0,1.5171,1.5073,1.476,1.4225,1.3881,1.3404,1.2736,1.3216,1.3765,1.4346,1.4777,1.5307,1.5913,1.5847,1.5803,1.5803,1.5803,1.5803,1.5803,1.5803,1.587,1.5969,1.5914,1.5957,1.6057,1.5947,1.5891,1.588,1.5825,1.5803,1.5803,1.5803,1.5803,1.5803,1.5803,1.5659,1.5446,1.5176,0.0,0.0,0.0,1.3882,1.4325,1.4872,1.6509,1.8275,1.9181,1.9992,2.0712,2.1259,2.1026,2.0602,2.0318,2.0502,2.0834,2.1133,2.0154,1.9298,1.9394,1.8885,1.849,1.849,1.849,1.849,1.849,1.849,1.9161,2.0846,1.9484,1.9942,2.3393,2.1452,2.0668,2.1998,2.1465,2.0646,1.9591,1.9654,1.9429,1.8906,1.8348,1.8058,1.8058,1.8058,1.8658,1.9805,1.9805,1.9787,1.9812,2.0089,2.0466,2.0931,2.1083,2.1336,2.161,2.1441,2.1658,2.2072,2.188,2.193,2.2105,0.0,0.0,0.0,0.0,0.0,0.0,0.0,0.0,0.0,0.0,0.0,0.0,0.0,0.0,0.0,0.0,1.5118,1.4705,1.386,1.3802,1.3561,1.3001,1.3486,1.4048,1.459,1.5033,1.5417,1.5768,1.5669,1.5626,1.5626,1.5626,1.5692,1.5803,1.5803,1.5825,1.5859,1.5814,1.5825,1.5859,1.5814,1.5803,1.5803,1.5803,1.5803,1.5803,1.5803,1.5803,1.5803,1.5803,1.5803,1.5737,1.539,1.5277,0.0,0.0,0.0,1.4307,1.4895,1.5873,1.6972,1.8057,1.8779,1.9415,2.0053,1.9976,1.9507,1.8523,1.8248,1.8766,2.0651,1.9463,1.8544,1.9695,1.8903,1.8177,1.8177,1.811,1.8036,1.8036,1.8279,1.8804,1.9805,1.9272,2.0102,2.3083,2.1667,2.1301,2.2769,2.1288,2.015,1.9588,1.8871,1.849,1.849,1.849,1.865,1.8919,1.8968,1.9646,2.081,2.0883,2.0602,2.009,2.0177,2.0469,2.0872,2.0687,2.0787,2.1052,2.0792,2.108,2.1657,2.1316,2.1405,2.1734,0.0,0.0,0.0,0.0,0.0,0.0,0.0,0.0,0.0,0.0,0.0,0.0,1.4525,1.471,1.4832,1.4832,1.5109,1.4941,1.4125,1.4076,1.3984,1.3742,1.4258,0.0,1.5148,1.5684,1.5678,1.5153,1.5142,1.5142,1.5142,1.5142,1.5368,1.5803,1.5803,1.5869,1.599,1.5859,1.5869,1.599,1.5859,1.5803,1.5803,1.5803,1.5803,1.5803,1.5803,1.5803,1.5803,1.5803,1.5803,1.5803,1.577,1.5759,1.567,0.0,0.0,0.0,1.4543,1.5137,1.5946,1.7009,1.7216,1.7534,1.9031,1.8435,1.7751,1.8433,1.807,1.7829,1.8479,1.786,1.769,1.902,1.8135,1.7273,1.7273,1.6999,1.6794,1.6794,1.7646,1.8369,1.8758,1.9467,2.058,2.2163,2.2223,2.1775,2.0807,2.106,2.0272,1.8171,1.8371,1.849,1.849,1.849,1.9023,2.0023,2.0261,2.0826,2.1653,2.1906,2.1582,2.0874,2.1171,2.1331,2.1324,2.0623,2.048,2.0716,2.0444,2.09,2.1664,2.1329,2.1405,2.1705,0.0,0.0,0.0,0.0,0.0,0.0,0.0,0.0,0.0,0.0,0.0,0.0,0.0,1.5455,1.5512,1.5512,1.5624,1.5446,1.4905,1.4869,1.4701,1.4321,1.4739,1.5098,1.5325,1.5384,1.5356,1.5232,1.48,1.4582,1.4582,1.4582,1.4674,1.4869,1.5513,1.5836,1.5869,1.5825,1.5836,1.5869,1.5825,1.5803,1.5839,1.6175,1.6307,1.6355,1.6703,1.6823,1.6823,1.6823,1.6607,1.6307,1.6307,1.6079,1.5637,1.4766,1.4077,1.3636,1.3841,1.4444,1.5218,1.6028,1.6587,1.7225,1.8282,1.7649,1.6975,1.7532,1.6728,1.6332,1.7591,1.7316,1.7273,1.848,1.7679,1.6892,1.6892,1.6774,1.695,1.7598,1.8079,1.8466,1.8622,1.9016,1.9553,2.0152,2.0662,2.1076,2.1351,2.072,2.0085,1.9493,1.829,1.7742,1.7929,1.7909,1.8458,1.9519,1.9794,2.0903,2.2731,2.301,2.306,2.2917,2.234,2.1357,2.0123,2.0011,1.9935,1.9869,1.9747,2.0154,2.075,2.0418,2.0628,2.1088,0.0,0.0,0.0,0.0,0.0,0.0,0.0,0.0,0.0,0.0,0.0,0.0,0.0,0.0,1.5786,1.5896,1.5905,1.574,1.5354,1.5325,1.5219,1.4975,1.518,1.5421,1.5659,1.5347,1.5108,1.496,1.4363,1.4071,1.406,1.4025,1.4095,1.4293,1.4915,1.5334,1.557,1.557,1.5659,1.5827,1.5995,1.6067,1.6127,1.6667,1.6871,1.6919,1.7279,1.7399,1.7399,1.7399,1.7171,1.6835,1.6655,1.6098,1.5311,1.4351,1.3648,1.3217,1.328,1.3751,1.4408,1.5124,1.5627,1.6192,1.7126,1.6609,1.6,1.6294,1.5718,1.54,1.634,1.6281,1.6635,1.8137,1.7358,1.656,1.656,1.6473,1.6799,1.7889,1.8423,1.8801,1.9008,1.9749,2.0152,1.9979,2.0711,2.1285,2.1657,2.08,2.0102,1.9625,1.7919,1.712,1.7314,1.7772,1.8584,1.9752,2.0491,2.1946,2.3982,2.3865,2.3741,2.3493,2.2442,2.1125,1.9764,1.9575,1.9459,1.9391,1.9396,1.9813,2.0407,2.0184,2.0443,2.0902,0.0,0.0,0.0,0.0,0.0,0.0,0.0,0.0,0.0,1.5021,0.0,0.0,0.0,0.0,0.0,1.5895,1.5922,1.5784,1.5453,1.5424,1.5521,1.5713,1.5587,1.5733,1.6188,1.5591,1.4949,1.4305,1.3823,1.3585,1.3573,1.3443,1.3647,1.4141,1.4013,1.4363,1.5051,1.5085,1.5368,1.5853,1.6379,1.6607,1.6679,1.7219,1.7424,1.7424,1.7436,1.7448,1.7448,1.7448,1.7436,1.7327,1.6775,1.5834,1.4754,1.4036,1.3433,1.2969,0.0,0.0,0.0,1.426,1.4263,1.4366,1.548,1.5226,1.477,1.4848,1.5103,1.5146,1.4587,1.4758,1.5693,1.7909,1.7142,1.6257,1.6257,1.6016,1.6301,1.7584,1.8565,1.9368,1.9886,2.1659,2.2454,2.1717,2.2455,2.2496,2.1431,2.1283,2.0281,1.8195,1.7193,1.6707,1.6707,1.8063,1.9436,2.0809,2.2461,2.3964,2.5265,2.4452,2.3509,2.2433,2.1362,2.0732,2.037,1.9325,1.9084,1.9385,1.9399,1.994,2.0687,2.0687,2.0902,2.1211,0.0,0.0,0.0,0.0,0.0,0.0,0.0,0.0,0.0,0.0,0.0,0.0,1.6038,1.613,1.62,1.6252,1.6304,1.6293,1.619,1.6151,1.6153,1.6198,1.5986,1.5918,1.6055,1.5073,1.4479,1.4305,1.349,1.3041,1.2946,1.291,1.2922,1.2973,1.3033,1.3312,1.3779,1.4605,1.5315,1.5905,1.6396,1.6835,1.7243,1.7772,1.7989,1.8037,1.8422,1.8554,1.8554,1.8554,1.8301,1.7855,1.712,1.6037,1.4993,1.4681,1.3628,1.2665,1.3122,0.0,0.0,0.0,0.0,0.0,1.3827,1.3666,1.3564,1.3829,1.3681,1.3584,1.3808,1.4128,1.4611,1.5435,1.5465,1.5354,1.5354,1.6063,1.7051,1.8294,1.9633,2.0593,2.0881,2.1561,2.1628,2.0692,2.119,2.1428,2.1125,2.0274,1.8881,1.6876,1.6742,1.6707,1.6707,1.7082,1.8326,2.037,2.1336,2.2859,2.4852,2.4321,2.3509,2.2442,2.1158,1.9987,1.9003,1.912,1.9129,1.9091,1.9528,2.0104,2.0687,2.0687,2.0902,2.1182,0.0,0.0,0.0,0.0,0.0,0.0,0.0,0.0,0.0,0.0,0.0,0.0,1.6318,1.6351,1.6362,1.6318,1.6351,1.6372,1.6372,1.634,1.6318,1.6318,1.611,1.5999,1.5999,1.488,1.4305,1.4305,1.3368,1.2832,1.27,1.2639,1.2554,1.2419,1.2443,1.2618,1.2973,1.4037,1.5001,1.59,1.6883,1.746,1.7784,1.8326,1.8662,1.8916,1.9229,1.9481,1.9583,1.9126,1.8252,1.7289,1.6849,1.5936,1.4976,1.4824,1.3868,1.2896,1.3099,1.2876,1.2632,1.2731,0.0,0.0,1.2692,1.2397,1.2243,1.2554,1.251,1.2544,1.2973,1.3327,1.3648,1.39,1.4122,1.4424,1.4941,1.6029,1.7197,1.8328,1.9712,2.0802,2.1342,2.1643,2.1599,2.1178,2.128,2.1162,2.0732,1.9627,1.8315,1.6783,1.6472,1.6315,1.6315,1.6921,1.7991,1.959,2.096,2.254,2.4211,2.352,2.2936,2.2417,2.0611,1.9283,1.8436,1.8784,1.8864,1.8789,1.9521,2.0089,2.0551,2.083,2.1024,2.1182,0.0,0.0,0.0,0.0,0.0,0.0,0.0,0.0,0.0,0.0,1.6089,1.6189,1.6189,1.6188,1.6188,1.6189,1.6188,1.62,1.62,1.6189,1.6189,1.6189,1.6044,1.5944,1.5901,1.4846,1.427,1.4223,1.332,1.2808,1.2664,1.2541,1.2406,1.2274,1.2163,1.2277,1.2612,1.3593,1.4651,1.5806,1.737,1.8038,1.8145,1.8682,1.9156,1.9559,1.9606,1.9923,2.0154,1.9134,1.7681,1.631,1.6358,1.5711,1.4904,1.4729,1.4093,1.3363,1.2971,1.2839,1.2716,1.2383,1.2124,0.0,1.1863,1.1383,1.1029,1.1299,1.159,1.1882,1.2151,1.2464,1.279,1.306,1.3199,1.3655,1.4762,1.5914,1.7006,1.8016,1.9293,2.0466,2.1371,2.1679,2.1978,2.2327,2.1952,2.1227,2.0127,1.9213,1.8249,1.7162,1.6275,1.5808,1.5808,1.7032,1.8039,1.8815,2.0948,2.2556,2.3594,2.2551,2.2214,2.2307,2.0012,1.8803,1.8396,1.837,1.84,1.8583,1.941,1.9957,2.0371,2.0936,2.1181,2.1182,0.0,0.0,0.0,0.0,0.0,0.0,0.0,0.0,1.587,1.5847,1.5957,1.6044,1.6044,1.6144,1.6155,1.6044,1.6144,1.62,1.62,1.61,1.6044,1.6044,1.5914,1.5658,1.5289,1.4628,1.4118,1.3741,1.3067,1.2664,1.2541,1.2406,1.2271,1.2138,1.2212,1.2463,1.2902,1.411,1.4976,1.5608,1.6418,1.7017,1.7445,1.7932,1.8076,1.8064,1.8404,1.8511,1.8462,1.8244,1.7643,1.6983,1.6832,1.6036,1.5137,1.5095,1.4131,1.314,1.3307,1.2776,1.2106,1.1829,1.1718,0.0,1.0993,1.0769,1.076,1.1015,1.1122,1.1266,1.1526,1.1844,1.2156,1.2432,1.3195,1.3928,1.4362,1.5827,1.7207,1.8211,1.9748,2.0869,2.1214,2.1307,2.1366,2.1452,2.1231,2.0347,1.8695,1.842,1.7621,1.615,1.5896,1.5808,1.5808,1.6069,1.7258,1.9351,2.0154,2.1657,2.3747,2.3374,2.2762,2.1932,2.0437,1.9261,1.837,1.8174,1.8247,1.8556,1.9157,1.9764,2.0356,2.0681,2.0984,2.1117,0.0,0.0,0.0,0.0,0.0,0.0,0.0,0.0,1.5803,1.5803,1.6086,1.6397,1.6663,1.649,1.6315,1.6268,1.5858,1.5603,1.5603,1.5325,1.5141,1.5141,1.5085,1.4949,1.4709,1.4212,1.38,1.3503,1.2958,1.2603,1.2406,1.2406,1.2286,1.211,1.245,1.2709,1.2969,1.4009,1.4629,1.5008,1.628,1.6925,1.7155,1.7575,1.7786,1.7895,1.8302,1.8228,1.7925,1.782,1.7237,1.6528,1.6386,1.5955,1.5463,1.5252,1.4559,1.3824,1.3778,1.3264,1.2674,1.2366,1.205,0.0,0.0,1.1052,1.1094,1.1216,1.1251,1.1342,1.1632,1.1567,1.1547,1.1817,1.2307,1.2956,1.3831,1.5705,1.7147,1.7547,1.8897,1.9804,1.9804,1.9893,2.0072,2.0376,2.0716,2.0243,1.8721,1.8641,1.8131,1.7023,1.6499,1.6593,1.7288,1.6803,1.7544,1.9513,2.0206,2.1434,2.3047,2.2908,2.2417,2.1575,2.0268,1.9133,1.8167,1.7905,1.7887,1.8123,1.8835,1.9297,1.9663,2.0095,2.045,2.0721,1.446,1.4744,0.0,0.0,0.0,0.0,0.0,0.0,1.5839,1.5947,1.6311,1.6753,1.7181,1.6675,1.629,1.629,1.5557,1.508,1.508,1.4712,1.4507,1.4507,1.4494,1.4391,1.4212,1.383,1.3501,1.3228,1.2849,1.2554,1.2335,1.2506,1.2457,1.2279,1.2763,1.3025,1.3172,1.3816,1.4227,1.4573,1.6138,1.6761,1.6781,1.7204,1.7539,1.7838,1.8219,1.8096,1.7741,1.7524,1.6826,1.6027,1.5936,1.5843,1.5725,1.5388,1.5068,1.4708,1.4323,1.3994,1.3648,1.3316,1.2772,1.2188,0.0,0.0,0.0,1.153,1.1608,1.1736,1.1873,1.1455,1.115,1.1296,1.1557,1.2162,1.3419,1.5466,1.6794,1.6715,1.7752,1.8404,1.8248,1.8442,1.8789,1.9279,1.9958,1.9911,1.8901,1.8846,1.8621,1.8101,1.7357,1.7515,1.8669,1.7956,1.8334,1.9795,2.0602,2.1505,2.2453,2.2491,2.2033,2.1153,2.0149,1.9146,1.8208,1.8002,1.7917,1.7971,1.8516,1.8755,1.8893,1.9424,1.9899,2.0322,1.5001,1.4965,0.0,0.0,0.0,0.0,0.0,0.0,1.5971,1.6451,1.6513,1.6531,1.6601,1.5951,1.5517,1.5517,1.5423,1.5342,1.5342,1.5299,1.5279,1.5279,1.516,1.4716,1.3866,1.3794,1.3387,1.2593,1.2554,1.2505,1.2477,1.2748,1.2844,1.2824,1.3119,1.3511,1.3965,1.4058,1.441,1.4933,1.5162,1.5447,1.5823,1.634,1.6597,1.6722,1.6994,1.7187,1.7246,1.705,1.679,1.6495,1.6309,1.6,1.5702,1.5656,1.5417,1.5128,1.5088,1.4821,1.448,1.4146,1.3743,1.3171,1.2237,0.0,1.222,1.1623,0.0,1.222,1.1652,0.0,0.0,1.1094,1.2096,1.3073,1.3537,1.4893,1.5986,1.6325,1.712,1.7641,1.7595,1.7954,1.8193,1.8275,1.8367,1.8292,1.7958,1.7951,1.7871,1.767,1.7913,1.8101,1.8267,1.8508,1.9376,2.0818,2.0953,2.1704,2.3025,2.3425,2.2474,2.0528,2.0736,2.0145,1.9054,1.9033,1.902,1.8949,1.8333,1.8289,1.8589,1.8887,1.9559,2.0258,1.5306,1.538,1.5496,0.0,0.0,0.0,0.0,0.0,1.6499,1.7302,1.7087,1.7009,1.7436,1.7002,1.6597,1.6409,1.592,1.5483,1.5139,1.4881,1.4659,1.4423,1.4357,1.4146,1.3749,1.3736,1.3518,1.3079,1.3079,1.303,1.2975,1.3155,1.3212,1.3142,1.3575,1.3839,1.4,1.4235,1.4482,1.4732,1.505,1.5432,1.5848,1.604,1.6445,1.6934,1.7171,1.7228,1.7184,1.7097,1.6944,1.6717,1.6402,1.6176,1.6001,1.5762,1.5592,1.5488,1.5488,1.5382,1.5244,1.5114,1.4651,1.4068,1.3404,1.3351,1.3272,1.2767,0.0,0.0,0.0,0.0,0.0,0.0,1.2036,1.2484,1.3407,1.4044,1.4798,1.5823,1.6248,1.6467,1.6467,1.6826,1.7147,1.7386,1.7633,1.7824,1.7965,1.8204,1.8388,1.8575,1.8674,1.9094,1.9868,1.985,2.0512,2.1806,2.1971,2.2422,2.3101,2.3176,2.2071,2.012,2.0164,1.9711,1.8962,1.8975,1.906,1.9176,1.8826,1.8387,1.8035,1.8507,1.9032,1.9545,1.5129,1.5501,1.568,1.5345,1.5552,0.0,0.0,1.6464,1.6862,1.7659,1.7477,1.7516,1.8152,1.7768,1.7398,1.7221,1.6465,1.581,1.5375,1.4965,1.4608,1.4322,1.4157,1.4026,1.3914,1.3806,1.3652,1.3445,1.3473,1.3445,1.335,1.357,1.3612,1.3548,1.4001,1.4157,1.4075,1.4378,1.45,1.4543,1.5038,1.5587,1.6102,1.627,1.6721,1.7296,1.7453,1.7409,1.7279,1.7218,1.7097,1.6922,1.6569,1.646,1.6405,1.6111,1.6019,1.6019,1.6019,1.6019,1.6019,1.6019,1.5576,1.5006,1.4532,1.4403,1.424,1.3762,1.3716,0.0,0.0,0.0,1.2189,1.2466,0.0,1.2436,1.3375,1.367,1.4168,1.5247,1.546,1.5586,1.5696,1.5964,1.6266,1.6551,1.6945,1.7358,1.7752,1.8256,1.8618,1.8764,1.8896,1.9512,2.0675,2.0572,2.1176,2.2508,2.2715,2.2904,2.3069,2.2599,2.1428,1.9768,1.9366,1.894,1.8578,1.8729,1.8917,1.9103,1.9276,1.867,1.7774,1.8209,1.8634,1.913,1.43,1.5084,1.558,1.4858,1.5277,1.5691,1.5646,1.6289,1.6873,1.7101,1.7455,1.7837,1.8249,1.7588,1.7217,1.7467,1.6874,1.6472,1.6453,1.6065,1.5833,1.5839,1.5327,1.4864,1.4478,1.4089,1.3709,1.3309,1.3445,1.35,1.3495,1.39,1.4086,1.4091,1.4363,1.4473,1.4473,1.4491,1.45,1.4543,1.4937,1.5588,1.6373,1.7152,1.7459,1.7487,1.7505,1.7505,1.7461,1.7279,1.7201,1.7149,1.6959,1.689,1.689,1.6872,1.6854,1.6854,1.6854,1.6854,1.6854,1.6854,1.6544,1.6084,1.5417,1.5159,1.4882,1.4223,1.4282,1.4273,1.3616,1.3563,1.3373,1.2619,1.3145,0.0,0.0,1.4055,1.4494,1.4537,1.4882,1.5267,1.5668,1.5714,1.5716,1.5742,1.6103,1.6506,1.6927,1.7688,1.7916,1.7477,1.8211,1.8944,1.9644,2.0013,2.1091,2.2781,2.2803,2.2904,2.3047,2.1889,2.0674,1.9461,1.8541,1.8065,1.7971,1.8546,1.881,1.888,1.9468,1.8978,1.7997,1.8004,1.8567,1.935,1.4562,1.4671,1.4604,1.4397,1.4698,1.5284,1.6248,1.6516,1.6953,1.7962,1.7754,1.7733,1.8301,1.8235,1.8087,1.7915,1.7812,1.7589,1.7188,1.6784,1.6444,1.6186,1.5739,1.5423,1.5294,1.5163,1.4882,1.4488,1.4532,1.4418,1.416,1.4298,1.4354,1.4363,1.4466,1.45,1.45,1.45,1.4647,1.498,1.5769,1.642,1.6938,1.7345,1.7505,1.7505,1.7606,1.7571,1.7487,1.7409,1.721,1.6986,1.6926,1.6908,1.6908,1.6908,1.6908,1.6908,1.6908,1.6908,1.6926,1.7072,1.7005,1.6777,1.6265,1.6133,1.5841,1.4944,1.4829,1.4763,1.4375,1.3977,1.3797,1.4097,1.4013,1.4043,0.0,1.469,1.4832,1.4832,1.4831,1.4941,1.5211,1.512,1.5155,1.5426,1.5479,1.5808,1.646,1.6554,1.676,1.7189,1.7509,1.8054,1.8866,1.9395,2.0072,2.0867,2.0867,2.0912,2.0948,2.0201,1.9291,1.828,1.778,1.7793,1.8185,1.8385,1.8682,1.9046,1.9462,1.907,1.8292,1.8504,1.8776,1.9105,1.4524,1.444,1.4207,1.416,1.447,1.5131,1.6389,1.6665,1.7165,1.8429,1.8285,1.8349,1.907,1.9256,1.9272,1.9088,1.8969,1.872,1.8164,1.777,1.7358,1.6964,1.6422,1.612,1.612,1.5852,1.556,1.5313,1.5166,1.4974,1.4702,1.4579,1.45,1.45,1.45,1.45,1.4509,1.4647,1.4857,1.5191,1.6113,1.6728,1.7107,1.7237,1.7384,1.7505,1.7606,1.7581,1.7487,1.7409,1.721,1.6986,1.6916,1.696,1.6986,1.6926,1.696,1.7003,1.7003,1.7003,1.7055,1.7262,1.7314,1.7248,1.6985,1.674,1.6421,1.5778,1.5351,1.505,1.4865,1.4474,1.4315,1.4813,1.4627,1.4558,0.0,1.5,1.5015,1.5068,1.4902,1.4858,1.4985,1.4828,1.4812,1.5067,1.5096,1.5276,1.5667,1.5825,1.6015,1.6244,1.6499,1.7128,1.8124,1.8526,1.9132,1.9894,1.9894,1.984,1.9718,1.8964,1.8272,1.7668,1.7044,1.7065,1.7561,1.7678,1.7974,1.8397,1.8957,1.8865,1.8432,1.878,1.8967,1.9072,1.4174,1.4406,1.4354,1.4205,1.4614,1.5245,1.6068,1.6702,1.7451,1.8415,1.8959,1.9565,2.0356,2.0428,2.0512,2.0734,2.0235,1.9747,1.9384,1.8952,1.8558,1.8182,1.7386,1.6946,1.6936,1.6175,1.5778,1.5732,1.5322,1.512,1.5093,1.4683,1.45,1.45,1.45,1.4509,1.4546,1.4937,1.512,1.523,1.6012,1.6552,1.6908,1.6908,1.7133,1.747,1.7487,1.7487,1.7461,1.7262,1.7184,1.7149,1.6968,1.7055,1.7166,1.6968,1.7072,1.7201,1.7201,1.7201,1.7262,1.7461,1.7505,1.7505,1.7505,1.7073,1.6639,1.6613,1.5843,1.5163,1.5127,1.5078,1.496,1.476,1.5005,1.5171,1.5039,1.5015,1.5073,1.5186,1.5098,1.5015,1.5015,1.4819,1.4715,1.4715,1.4936,1.4926,1.4623,1.548,1.5584,1.4736,1.5244,1.6142,1.742,1.7428,1.8215,1.9758,1.9735,1.9581,1.9291,1.8141,1.7622,1.7552,1.6339,1.595,1.6245,1.6563,1.6811,1.7103,1.8028,1.8393,1.8432,1.878,1.9029,1.9179,1.4409,1.4464,1.4653,1.519,1.5566,1.5825,1.5968,1.675,1.7439,1.7817,1.8345,1.8908,1.9409,1.9455,1.9632,2.0014,1.9934,1.9931,2.0177,1.954,1.91,1.8999,1.8219,1.7642,1.7348,1.7138,1.6743,1.6156,1.5735,1.5386,1.5093,1.4683,1.45,1.45,1.45,1.4671,1.4955,1.5056,1.545,1.603,1.6534,1.6817,1.6908,1.6908,1.696,1.7064,1.7228,1.7279,1.7279,1.7218,1.7107,1.6986,1.7089,1.7149,1.7228,1.7323,1.7375,1.7409,1.7409,1.7409,1.7461,1.7613,1.7647,1.7647,1.7647,1.7527,1.7263,1.6709,1.6386,1.6051,1.556,1.547,1.5396,1.5239,1.5279,1.5332,1.5303,1.5303,1.5303,1.5347,1.5318,1.5303,1.5303,1.5064,1.4926,1.4926,1.4762,1.4648,1.4606,1.443,1.4508,1.4903,1.4687,1.5234,1.6661,1.6477,1.6831,1.773,1.7333,1.7115,1.7021,1.6527,1.6292,1.6268,1.5944,1.6069,1.6501,1.6578,1.6866,1.7281,1.7758,1.8148,1.8432,1.878,1.8657,1.8352,1.45,1.3979,1.3677,1.4129,1.4766,1.5398,1.5864,1.6572,1.7269,1.7903,1.8608,1.9183,1.9571,1.9803,2.0044,2.0306,2.0511,2.0678,2.0766,2.0347,1.9934,1.9575,1.8952,1.8449,1.8036,1.7515,1.7098,1.6818,1.6072,1.5673,1.5625,1.5212,1.5029,1.5029,1.5029,1.5148,1.5368,1.556,1.6001,1.6579,1.6817,1.6908,0.0,1.6908,1.6908,1.6908,1.7038,1.7072,1.7072,1.7072,1.6986,1.6926,1.7038,1.7193,1.7331,1.7358,1.7468,1.7588,1.7588,1.7588,1.7623,1.7784,1.7828,1.7828,1.7828,1.7767,1.7588,1.7172,1.6892,1.6621,1.6246,1.5894,1.5626,1.543,1.5396,1.5396,1.5396,1.5396,1.5396,1.5396,1.5396,1.5396,1.5396,1.5167,1.5,1.5,1.4684,1.4555,1.4687,1.4444,1.4559,1.5119,1.4921,1.5321,1.6404,1.6131,1.6274,1.6807,1.6414,1.6153,1.6028,1.5879,1.5808,1.5808,1.5808,1.6092,1.6612,1.6612,1.6824,1.7196,1.7531,1.8105,1.8793,1.9129,1.8731,1.8018,1.429,1.3206,1.2344,1.2344,1.3338,1.45,1.5604,1.6365,1.7212,1.8283,1.9181,1.9853,2.022,2.0603,2.0895,2.0964,2.1356,2.1431,2.11,2.1027,2.0677,1.9911,1.945,1.9014,1.8604,1.7527,1.7108,1.7423,1.6319,1.5959,1.6296,1.589,1.5705,1.5705,1.5705,1.5732,1.5799,1.6204,1.657,1.6908,1.6908,1.6908,1.6908,1.6908,1.6908,1.6908,1.6908,1.6908,1.6908,1.6908,1.6908,1.6908,1.6926,1.7202,1.747,1.7314,1.7493,1.775,1.775,1.775,1.7784,1.7957,1.7991,1.7991,1.7991,1.7862,1.7723,1.7706,1.7336,1.6988,1.693,1.636,1.5838,1.5615,1.5537,1.5498,1.5498,1.5435,1.5396,1.5396,1.5468,0.0,1.541,1.5167,1.5015,1.5,1.4714,1.4616,1.4785,1.5,1.5163,1.5296,1.5504,1.5859,1.6404,1.6131,1.6206,1.6612,1.6336,1.6052,1.5808,1.5808,1.5808,1.5808,1.5808,1.6092,1.6541,1.6541,1.6777,1.7178,1.7554,1.8395,1.9436,1.978,1.9283,1.8396,1.3189,1.2661,1.2635,1.2635,1.3531,1.4348,1.4547,1.6488,1.7941,1.7995,1.9091,1.9902,1.9966,2.0038,2.0298,2.078,2.0902,2.0982,2.1007,2.0708,2.028,1.9765,1.9073,1.851,1.8049,1.7623,1.7274,1.7009,1.6457,1.6229,1.6296,1.589,1.5705,1.5705,1.5705,1.5881,1.6213,1.6616,1.6844,1.6908,1.6908,1.6908,1.6908,1.6908,1.6908,1.6908,1.6908,1.6908,1.6908,1.6908,1.6908,1.6926,1.7107,1.7314,1.7512,1.7596,1.7767,1.7957,1.7957,1.7957,1.7957,1.7991,1.7991,1.7991,1.7991,1.7974,1.7896,1.7723,1.7641,1.7453,1.7125,1.6777,1.6529,1.6482,1.6191,1.5977,1.5977,1.5635,1.5396,1.5396,1.5849,1.595,1.5454,1.5254,1.5127,1.5009,1.4799,1.4696,1.4801,1.5,1.5163,1.5296,1.5504,1.5859,1.6404,1.6131,1.6206,1.6612,1.6336,1.6052,1.5808,1.5808,1.5808,1.5808,1.5808,1.5974,1.6265,1.6265,1.6925,1.7968,1.8571,1.9446,2.0419,2.0874,2.0877,2.0672,1.3627,1.2991,1.288,1.3429,1.3954,1.4485,1.504,1.6193,1.712,1.7393,1.8491,1.906,1.8644,1.8826,1.9177,1.9715,2.0012,2.0321,2.0626,2.0457,2.0155,1.973,1.9196,1.8708,1.8261,1.7342,1.6995,1.721,1.6431,1.6239,1.6598,1.6413,1.6204,1.6019,1.6019,1.6017,1.6076,1.6661,1.6908,1.6908,1.6908,1.6908,1.6908,1.6908,1.6908,1.6908,1.6908,1.6908,1.6908,1.6908,1.6908,1.6926,1.7003,1.7254,1.7505,1.7571,1.7786,1.7991,1.7991,1.7991,1.7991,1.7991,1.7991,1.7991,1.7991,1.7991,1.7974,1.7879,1.7862,1.7726,1.7326,1.7158,1.6986,1.6736,1.6537,1.6406,1.6406,1.6312,1.6112,1.5797,1.6091,1.6054,1.5454,1.5332,1.521,1.5015,1.4804,1.4903,1.5402,1.5583,1.5931,1.6533,1.6307,1.6453,1.7071,1.6352,1.6274,1.6807,1.6548,1.6265,1.6004,1.6004,1.5927,1.5808,1.5808,1.6021,1.6454,1.6965,1.745,1.8023,1.9207,2.0321,2.1345,2.192,2.2467,2.2761,1.4588,1.3779,1.3308,1.4153,1.4485,1.492,1.5759,1.5891,1.6107,1.6697,1.771,1.8155,1.7507,1.7856,1.8325,1.8716,1.924,1.9649,1.9962,2.0084,1.996,1.9538,1.8975,1.8611,1.8435,1.6807,1.6333,1.7052,1.6144,1.5999,1.6604,1.6656,1.6499,1.6202,1.6272,1.6149,1.5947,1.6621,1.6908,1.6908,1.6908,1.6908,1.6908,1.6908,1.6908,1.6908,1.6908,1.6908,1.6908,1.6908,1.6908,1.6908,1.6908,1.7185,1.7505,1.7505,1.7745,1.7991,1.7991,1.7991,1.7991,1.7991,1.7991,1.7991,1.7991,1.8059,1.8127,1.8127,1.8223,1.8154,1.7725,1.7656,1.751,1.7048,1.6902,1.6849,1.6849,1.6941,1.6827,1.6357,1.6519,1.6443,1.5849,1.5907,1.582,1.5449,1.501,1.5134,1.5959,1.6122,1.6665,1.7675,1.7233,1.7307,1.7999,1.7108,1.6989,1.7621,1.7396,1.7044,1.6588,1.6588,1.6346,1.5974,1.5974,1.6322,1.6951,1.7746,1.8272,1.8683,2.014,2.1429,2.2569,2.3169,2.3908,2.4307,1.5553,1.4883,1.4177,1.428,1.5095,1.5771,1.5873,1.5891,1.5933,1.6003,1.6996,1.7653,1.758,1.8044,1.8431,1.8589,1.9055,1.9228,1.8957,1.9404,1.9423,1.8918,1.7698,1.7289,1.7853,1.5949,1.5162,1.5589,1.5418,1.5447,1.564,1.5815,1.5886,1.5851,1.6158,1.6272,1.6289,1.6717,1.6908,1.6908,1.6908,1.6908,1.6908,1.6908,1.6908,1.6908,1.6908,1.6908,1.6908,1.6908,1.6908,1.6908,1.6908,1.7185,1.7505,1.7505,1.7745,1.7991,1.7991,1.7991,1.7991,1.7991,1.7991,1.7991,1.7991,1.8283,1.8539,1.8539,1.8879,1.9033,1.8559,1.8481,1.8344,1.7942,1.7568,1.7324,1.7324,1.7133,1.698,1.692,1.7511,1.7685,1.709,1.7534,1.7559,1.686,1.5667,1.5264,1.5959,1.6122,1.6665,1.7675,1.7822,1.8232,1.8952,1.8862,1.9089,1.9621,1.9598,1.8964,1.7832,1.7832,1.7358,1.6541,1.6541,1.7037,1.7878,1.7964,1.9287,2.1316,2.2081,2.3211,2.4479,2.4932,2.4981,2.4809,1.4847,1.4588,1.4298,1.4298,1.5179,1.5891,1.5891,1.5891,1.5891,1.5891,1.6285,1.6577,1.6577,1.6763,1.7036,1.7379,1.7426,1.7517,1.7719,1.7784,1.7699,1.7496,1.6727,1.6371,1.647,1.5697,1.5393,1.5642,1.5806,1.6034,1.6273,1.6365,1.6292,1.6126,1.6493,1.6546,1.6402,1.7008,1.7119,1.6908,1.6908,1.6908,1.6908,1.6908,1.6908,1.6908,1.6908,1.6908,1.6908,1.6908,1.6908,1.6908,1.6908,1.7089,1.7314,1.7314,1.7495,1.771,1.771,1.771,1.7718,1.7811,1.7818,1.7903,1.8278,1.8481,1.8676,1.8957,1.916,1.9238,1.9053,1.8801,1.8549,1.8401,1.802,1.7905,1.8301,1.8369,1.8288,1.804,1.8349,1.8148,1.7067,1.7185,1.7055,1.6456,1.6162,1.6216,1.6644,1.6986,1.7575,1.8452,1.8673,1.912,1.9864,1.9652,1.966,1.9894,2.0022,1.9673,1.8903,1.9055,1.8849,1.8342,1.8511,1.8853,1.933,2.0081,2.1038,2.2142,2.3391,2.4207,2.4751,2.5145,2.5137,2.4858,1.4702,1.4509,1.4395,1.4708,1.539,1.5891,1.5891,1.5891,1.5891,1.5891,1.5891,1.5891,1.5891,1.5891,1.6025,1.6358,1.6126,1.6072,1.6351,1.6508,1.6612,1.6612,1.6026,1.5711,1.5723,1.516,1.4977,1.5185,1.531,1.5622,1.6106,1.6484,1.6522,1.6315,1.672,1.6831,1.6776,1.7415,1.7513,1.7248,1.7248,1.7183,1.7082,1.7082,1.7009,1.6908,1.6908,1.6908,1.6908,1.6908,1.6908,1.6908,1.6908,1.7038,1.7201,1.7201,1.7331,1.7505,1.7505,1.7505,1.7522,1.7623,1.776,1.8029,1.8434,1.8731,1.9032,1.9506,1.964,1.9638,1.9492,1.9201,1.889,1.8637,1.8535,1.8612,1.8948,1.9345,1.9499,1.9202,1.9303,1.8917,1.7657,1.7539,1.7264,1.6643,1.6839,1.6989,1.6941,1.7448,1.8112,1.8976,1.9448,2.0009,2.0713,2.0575,2.0598,2.0754,2.0903,2.0678,2.0144,2.0186,2.0165,2.0096,2.0289,2.0595,2.1013,2.1924,2.2619,2.3234,2.4364,2.4875,2.503,2.5315,2.5211,2.4901,1.5662,1.5022,1.463,1.5713,1.5879,1.5891,1.5891,1.5891,1.5891,1.5891,1.5891,1.5891,1.5891,1.5891,1.5885,1.5912,1.5592,1.5241,1.484,1.5949,1.6612,1.6612,1.5584,1.5331,1.5984,1.4113,1.333,1.373,1.3396,1.3642,1.446,1.572,1.6302,1.6315,1.672,1.7109,1.7514,1.7914,1.8091,1.8091,1.8091,1.7844,1.7486,1.7486,1.7248,1.6908,1.6908,1.6908,1.6908,1.6908,1.6908,1.6908,1.6908,1.7038,1.7201,1.7201,1.7331,1.7505,1.7505,1.7505,1.7505,1.7505,1.7949,1.8379,1.8407,1.9024,1.9716,2.0178,2.044,2.0439,1.999,1.9883,1.9601,1.8744,1.9218,1.951,1.9056,1.9734,2.0285,2.0274,2.0464,2.0221,1.9349,1.9275,1.8903,1.8047,1.7791,1.7373,1.6644,1.7183,1.7954,1.8967,2.0032,2.0867,2.1472,2.1945,2.2368,2.2759,2.2781,2.2388,2.1659,2.1132,2.1111,2.1479,2.1479,2.2058,2.2981,2.2981,2.3796,2.5059,2.5092,2.5342,2.5684,2.5684,2.5357,2.4964,1.5819,1.562,1.5487,1.5831,1.5891,1.5891,1.5891,1.5891,1.5891,1.5891,1.5891,1.5891,1.5891,1.5891,1.5891,1.5891,1.5789,1.5475,1.4834,1.4959,1.5034,1.5034,1.469,1.4529,1.4575,1.442,1.4215,1.3981,1.4311,1.4783,1.531,1.6175,1.6745,1.7057,1.7184,1.731,1.7462,1.7902,1.795,1.7708,1.7997,1.8027,1.7908,1.7908,1.7825,1.7715,1.7715,1.7715,1.7715,1.7715,1.7715,1.7715,1.7715,1.7568,1.7391,1.7391,1.7639,1.7906,1.7906,1.7906,1.7933,1.8078,1.8263,1.8514,1.8918,1.9573,2.0081,2.0031,2.0333,2.0508,2.0236,2.0022,1.9708,1.917,1.9437,1.9708,1.9752,2.0383,2.0678,2.0216,2.0217,1.9674,1.8221,1.8067,1.7854,1.7357,1.7645,1.7874,1.7955,1.8319,1.9013,2.0061,2.0996,2.1635,2.1976,2.2541,2.2725,2.253,2.286,2.3049,2.3137,2.3242,2.3359,2.3481,2.3481,2.3838,2.442,2.442,2.4856,2.5503,2.53,2.5436,2.5684,2.5489,2.5211,2.4973,1.4595,1.5298,1.5891,1.5891,1.5891,1.5891,1.5891,1.5891,1.5891,1.5891,1.5891,1.5891,1.5891,1.5891,1.5891,1.5891,1.5891,1.5535,1.4672,1.4425,1.4298,1.4298,1.4298,1.422,1.4057,1.4369,1.4358,1.4011,1.4762,1.5369,1.5949,1.6464,1.6963,1.7392,1.7392,1.7481,1.7652,1.7937,1.8021,1.7965,1.8214,1.8334,1.8329,1.8329,1.8237,1.8109,1.8109,1.8109,1.8109,1.8109,1.8109,1.8109,1.8109,1.8027,1.7926,1.777,1.7899,1.8109,1.8109,1.8109,1.8119,1.8267,1.8471,1.876,1.9295,1.9781,2.0088,1.9833,2.0079,2.0333,2.0303,2.0159,1.9895,1.9385,1.9651,1.9975,2.008,2.0677,2.093,2.0458,2.0439,1.98,1.8041,1.8083,1.7987,1.7448,1.7895,1.8447,1.8991,1.9184,1.9666,2.0566,2.1355,2.186,2.205,2.256,2.2782,2.2678,2.33,2.3825,2.43,2.4541,2.4756,2.4889,2.4889,2.5045,2.5322,2.5226,2.531,2.5513,2.526,2.526,2.5382,2.5211,2.4981,2.4835,1.2414,1.4164,1.5645,1.5645,1.5645,1.5645,1.5645,1.5811,1.5891,1.5891,1.5891,1.5891,1.5891,1.5891,1.5891,1.5891,1.5891,1.5439,1.437,1.4298,1.4298,1.4298,1.4298,1.4298,1.4298,1.4057,1.3924,1.3906,1.4676,1.5461,1.625,1.6565,1.6958,1.7392,1.7392,1.7579,1.7919,1.7939,1.8201,1.862,1.868,1.8687,1.8694,1.8732,1.8503,1.8182,1.8182,1.8182,1.8182,1.8182,1.8182,1.8182,1.8182,1.8439,1.8659,1.8265,1.8164,1.8182,1.8182,1.8182,1.8182,1.8182,1.8609,1.9113,1.9493,1.9735,1.9824,1.9616,1.9754,1.9961,2.0206,2.0264,2.0043,1.9397,1.9837,2.0219,2.0041,2.0645,2.1008,2.078,2.093,2.0383,1.8657,1.9003,1.9011,1.8203,1.8539,1.9059,1.9687,1.9754,2.0062,2.0664,2.1251,2.1646,2.1864,2.228,2.2719,2.3205,2.4051,2.4678,2.5092,2.5121,2.5342,2.5693,2.5693,2.5693,2.5684,2.543,2.5342,2.5308,2.5005,2.4907,2.4907,2.4883,2.4711,2.4625,1.2414,1.2844,1.3219,1.3219,1.3219,1.3219,1.3219,1.4756,1.5891,1.5891,1.5891,1.5891,1.5891,1.5891,1.5891,1.5891,1.5891,1.5439,1.437,1.4298,1.4298,1.4298,1.4298,1.4298,1.4298,1.4238,1.4111,1.3906,1.4408,1.503,1.5788,1.6417,1.692,1.7319,1.7319,1.7208,1.7037,1.7392,1.7615,1.7765,1.8431,1.8707,1.8728,1.9035,1.91,1.9026,1.9026,1.9026,1.9026,1.9026,1.9026,1.9026,1.9026,1.9091,1.9081,1.8668,1.8788,1.9026,1.9026,1.9026,1.9026,1.9026,1.911,1.9241,1.9342,1.9528,1.9616,1.941,1.9647,1.9863,1.9774,1.9892,1.9792,1.9176,1.963,1.9851,1.9191,2.0263,2.0655,1.9438,2.009,2.0069,1.8577,1.8692,1.8785,1.8577,1.9115,1.9573,1.9839,2.0339,2.0913,2.1562,2.1881,2.2205,2.2562,2.2952,2.3486,2.4084,2.466,2.4994,2.5102,2.543,2.561,2.5693,2.5693,2.5693,2.5693,2.5635,2.5611,2.5562,2.5088,2.5039,2.5162,2.476,2.4554,2.4579,1.0017,1.1309,1.2414,1.2414,1.3305,1.3651,1.2572,1.3489,1.4299,1.4299,1.4299,1.4299,1.4299,1.5271,1.5891,1.5891,1.5891,1.5439,1.437,1.4298,1.4298,1.4298,1.4298,1.4298,1.4298,1.4298,1.4393,1.46,1.4641,1.5069,1.5793,1.6033,1.6455,1.7036,1.7036,1.7013,1.6984,1.7254,1.7487,1.7716,1.819,1.8632,1.9002,1.9231,1.9301,1.9301,1.9301,1.9301,1.9301,1.9301,1.9301,1.9301,1.9301,1.9301,1.9256,1.9045,1.9136,1.9301,1.9301,1.9301,1.9301,1.9301,1.9448,1.9566,1.9566,1.9793,1.9972,1.9881,1.9885,1.9896,1.9876,1.9797,1.9626,1.9211,1.9294,1.931,1.8977,1.966,1.9838,1.8914,1.9597,1.9679,1.8507,1.8834,1.9211,1.9421,1.9947,2.035,2.0621,2.105,2.1476,2.1832,2.1947,2.2325,2.2926,2.3643,2.4251,2.4717,2.5156,2.5371,2.5405,2.6078,2.6115,2.5732,2.6187,2.6125,2.5684,2.5562,2.5513,2.5465,2.4932,2.4809,2.4883,2.4489,2.4035,2.3632,0.721,0.9578,1.1778,1.23,1.4056,1.4702,1.2708,1.2414,1.2414,1.2414,1.2414,1.2414,1.2414,1.4487,1.5891,1.5891,1.5891,1.5439,1.437,1.4298,1.4298,1.4298,1.4298,1.4298,1.4298,1.4298,1.4604,1.5218,1.4957,1.5183,1.5892,1.5608,1.5874,1.6595,1.6595,1.6754,1.703,1.703,1.7272,1.7634,1.7768,1.8311,1.9016,1.9161,1.9251,1.9301,1.9301,1.9222,1.9094,1.9094,1.9031,1.8976,1.8976,1.9001,1.9046,1.9046,1.9155,1.9287,1.9372,1.9439,1.9485,1.9485,1.9731,1.9996,1.9996,2.0253,2.05,2.05,2.0234,2.0019,2.0129,1.9882,1.9561,1.9297,1.8976,1.879,1.8972,1.9114,1.9091,1.8825,1.9383,1.9506,1.8742,1.9355,1.9995,2.0448,2.0803,2.1156,2.1537,2.1658,2.1747,2.1791,2.1856,2.2318,2.3243,2.4247,2.4908,2.52,2.5532,2.5781,2.5965,2.6805,2.6829,2.6197,2.6901,2.672,2.5893,2.5504,2.5333,2.526,2.476,2.4529,2.4489,2.4276,2.3488,2.2544,0.721,0.7623,0.8944,1.1887,1.2708,1.2817,1.2463,1.2414,1.2414,1.2414,1.2414,1.2414,1.2414,1.4487,1.5891,1.5891,1.5891,1.5439,1.437,1.4298,1.4298,1.4298,1.4298,1.4298,1.4298,1.4298,1.437,1.4466,1.4417,1.4774,1.5485,1.5439,1.5661,1.6104,1.6104,1.6003,1.5773,1.5773,1.5825,1.5958,1.6697,1.7277,1.778,1.8504,1.9002,1.9301,1.9301,1.8836,1.8198,1.8198,1.7856,1.7442,1.7442,1.7652,1.7852,1.7852,1.8467,1.9221,1.967,2.0051,2.0308,2.0308,2.0363,2.0408,2.0408,2.0454,2.05,2.05,2.0445,2.0298,1.9989,1.99,1.9675,1.9122,1.8984,1.8845,1.8544,1.9142,1.9388,1.8798,1.9606,2.0135,1.9948,2.039,2.087,2.1292,2.1368,2.1505,2.1734,2.1573,2.1531,2.1719,2.2104,2.2834,2.3934,2.4674,2.523,2.561,2.5679,2.6139,2.6962,2.7118,2.7581,2.8192,2.7487,2.7118,2.689,2.6004,2.5513,2.526,2.4956,2.4711,2.4489,2.4276,2.3488,2.2535,0.721,0.721,0.7706,0.933,1.1145,1.2414,1.2414,1.2414,1.2414,1.2414,1.2414,1.2414,1.2414,1.3381,1.4514,1.5779,1.5891,1.568,1.5185,1.4618,1.4298,1.4298,1.4298,1.4298,1.4298,1.4298,1.4298,1.4298,1.4298,1.4466,1.4819,1.4819,1.5123,1.5681,1.5681,1.5722,1.5783,1.5783,1.5813,1.5911,1.6315,1.6726,1.7126,1.7673,1.8008,1.8188,1.8334,1.8117,1.7781,1.7781,1.7599,1.7364,1.7364,1.7475,1.7609,1.7609,1.8319,1.9268,2.0021,2.0363,2.05,2.05,2.0656,2.0811,2.0811,2.0995,2.115,2.115,2.0967,2.0756,2.0573,2.0198,1.9815,1.9539,1.9125,1.8765,1.859,1.8911,1.9137,1.9039,1.9642,2.0156,2.0347,2.0795,2.1172,2.1473,2.1605,2.1743,2.1942,2.1707,2.1605,2.1709,2.2606,2.3605,2.4625,2.5157,2.5503,2.5693,2.5693,2.6235,2.7213,2.7484,2.7872,2.8294,2.7825,2.7234,2.6552,2.581,2.5342,2.5064,2.4784,2.4612,2.4489,2.4276,2.3104,2.1708,0.721,0.721,0.721,0.721,0.9412,1.1446,1.2273,1.2414,1.2414,1.2414,1.2414,1.2414,1.2414,1.2414,1.3327,1.5699,1.5891,1.5891,1.5891,1.5125,1.4558,1.4304,1.4298,1.4298,1.4298,1.4298,1.4298,1.4298,1.4298,1.4298,1.4298,1.4298,1.4604,1.5146,1.5146,1.5315,1.561,1.561,1.5659,1.5772,1.5859,1.6158,1.6559,1.6852,1.7019,1.7129,1.7413,1.7391,1.7208,1.7282,1.7204,1.7097,1.7097,1.7283,1.7521,1.7521,1.8411,1.9566,2.0401,2.0701,2.0775,2.0775,2.1004,2.1233,2.1233,2.148,2.1696,2.1696,2.1453,2.1196,2.1126,2.0592,2.0152,2.006,1.952,1.9117,1.9117,1.9117,1.9227,1.9549,1.985,2.0218,2.0685,2.1102,2.144,2.1683,2.185,2.1979,2.2078,2.1852,2.1845,2.2164,2.3166,2.4162,2.5092,2.5435,2.5611,2.5611,2.5538,2.6032,2.7023,2.7447,2.7788,2.8047,2.7765,2.7102,2.6211,2.5494,2.5064,2.4784,2.4578,2.4464,2.4424,2.4362,2.2908,2.1078,0.721,0.721,0.721,0.721,0.7404,0.8671,1.1914,1.2414,1.2414,1.2414,1.2414,1.2414,1.2414,1.2414,1.3327,1.5699,1.5891,1.5891,1.5891,1.5839,1.533,1.434,1.4298,1.4298,1.4298,1.4298,1.4298,1.4298,1.4298,1.4298,1.4298,1.4298,1.4322,1.4394,1.4394,1.4406,1.4435,1.4435,1.4423,1.4476,1.4847,1.5262,1.5725,1.6114,1.6507,1.6851,1.7129,1.6712,1.6073,1.6301,1.6019,1.5564,1.5564,1.6373,1.7322,1.7322,1.8693,2.0342,2.0902,2.1324,2.1604,2.1604,2.1623,2.1672,2.1672,2.1668,2.1696,2.1696,2.1691,2.1544,2.1181,2.1062,2.0897,2.0518,2.0399,2.0363,2.0363,2.0363,2.0372,2.0399,2.0436,2.0716,2.1348,2.1619,2.1927,2.229,2.235,2.228,2.2119,2.1852,2.2274,2.3512,2.3644,2.4162,2.5092,2.5242,2.5342,2.5342,2.5088,2.5499,2.645,2.6498,2.7166,2.8202,2.7023,2.6604,2.6638,2.5436,2.4784,2.4538,2.4514,2.439,2.4272,2.4617,2.328,2.1409,0.721,0.721,0.721,0.721,0.721,0.7651,0.8972,1.1008,1.2414,1.2414,1.2414,1.2414,1.2414,1.2414,1.2762,1.3651,1.5051,1.5891,1.5891,1.527,1.4721,1.4316,1.4298,1.4298,1.4298,1.4298,1.4298,1.4298,1.4298,1.4298,1.4298,1.4298,1.4298,1.4298,1.4298,1.4298,1.4298,1.4298,1.4298,1.431,1.4469,1.4639,1.4832,1.5152,1.5362,1.5564,1.598,1.5941,1.5686,1.5901,1.5844,1.5641,1.5641,1.642,1.7559,1.8788,1.9704,2.0472,2.1264,2.1568,2.1696,2.1696,2.1696,2.1696,2.1696,2.1696,2.1696,2.1696,2.1696,2.1641,2.1508,2.126,2.1062,2.0906,2.0656,2.05,2.05,2.05,2.0592,2.083,2.0857,2.1139,2.1817,2.1951,2.2061,2.2189,2.2198,2.2221,2.2225,2.2355,2.2866,2.379,2.3809,2.4269,2.5204,2.51,2.5054,2.5054,2.4966,2.5426,2.6378,2.6109,2.658,2.7568,2.6446,2.5916,2.5795,2.4986,2.4514,2.4344,2.4587,2.4638,2.4542,2.4171,2.3189,2.198,0.721,0.721,0.721,0.721,0.721,0.721,0.721,0.922,1.0758,1.0758,1.0758,1.1173,1.2273,1.2414,1.2414,1.2414,1.3867,1.5104,1.5859,1.489,1.4298,1.4298,1.4298,1.4298,1.4298,1.4298,1.4298,1.4298,1.4298,1.4298,1.4298,1.4298,1.4298,1.4298,1.4298,1.4298,1.4298,1.4298,1.4298,1.4298,1.4298,1.4298,1.4322,1.4496,1.4568,1.464,1.5088,1.5309,1.5404,1.5635,1.5761,1.5808,1.5808,1.6598,1.7963,2.0121,2.065,2.0687,2.1486,2.1696,2.1696,2.1696,2.1696,2.1696,2.1696,2.1696,2.1696,2.1696,2.1696,2.1696,2.1696,2.148,2.1288,2.1288,2.1059,2.0875,2.0875,2.0875,2.0976,2.1251,2.1288,2.1507,2.2046,2.2097,2.2152,2.2274,2.2292,2.2356,2.2478,2.2867,2.3334,2.3875,2.3966,2.4332,2.503,2.4858,2.4784,2.4784,2.4711,2.5035,2.5698,2.5377,2.5635,2.6306,2.5562,2.5157,2.5011,2.4578,2.4399,2.4431,2.4691,2.4884,2.4963,2.4596,2.3651,2.2573,0.721,0.721,0.721,0.721,0.721,0.721,0.721,0.721,0.721,0.721,0.721,0.8506,1.1969,1.2359,1.2359,1.2414,1.2414,1.3413,1.5752,1.4896,1.4304,1.4298,1.4298,1.4298,1.4298,1.4298,1.4298,1.4298,1.4298,1.4298,1.4298,1.4298,1.4298,1.4298,1.4298,1.4298,1.4298,1.4298,1.4298,1.4298,1.4298,1.4298,1.4298,1.4298,1.4298,1.4346,1.4592,1.4861,1.5131,1.5404,1.5635,1.5808,1.5825,1.6866,1.858,2.0997,2.1365,2.1109,2.1575,2.1687,2.1696,2.1696,2.1696,2.1696,2.1696,2.1696,2.1696,2.1696,2.1696,2.1696,2.1696,2.1718,2.1705,2.1705,2.1705,2.1705,2.1705,2.1705,2.1705,2.1705,2.1705,2.1817,2.2084,2.2106,2.2274,2.2665,2.2712,2.2751,2.2895,2.3288,2.3619,2.3884,2.4088,2.4301,2.4504,2.4504,2.4504,2.4504,2.4301,2.4202,2.4202,2.4202,2.4325,2.4489,2.4301,2.4316,2.448,2.4301,2.4434,2.481,2.481,2.5058,2.547,2.6138,2.487,2.3146,0.721,0.721,0.721,0.721,0.721,0.721,0.721,0.721,0.721,0.721,0.721,0.7595,0.864,0.8751,0.9743,1.2191,1.2414,1.3413,1.5752,1.5246,1.4781,1.46,1.4401,1.4298,1.4298,1.4298,1.4298,1.4298,1.4298,1.4298,1.4298,1.4298,1.4298,1.4298,1.4298,1.4298,1.4298,1.4298,1.4298,1.4298,1.4298,1.4298,1.4298,1.4298,1.4298,1.4346,1.4592,1.4742,1.4885,1.5356,1.554,1.5872,1.7428,1.8211,1.8949,2.0696,2.1109,2.1042,2.1177,2.1199,2.1298,2.162,2.1696,2.1696,2.1696,2.1696,2.1696,2.1696,2.1906,2.2121,2.2121,2.2346,2.2547,2.2547,2.2547,2.2547,2.2547,2.2547,2.2547,2.2547,2.2547,2.264,2.2926,2.2778,2.2788,2.3094,2.3213,2.3283,2.3316,2.3749,2.4018,2.4116,2.4162,2.4226,2.4301,2.4301,2.4301,2.4301,2.4226,2.4202,2.4202,2.4202,2.4226,2.4301,2.4226,2.4226,2.4319,2.4523,2.4691,2.4865,2.5416,2.571,2.5804,2.5631,2.5256,2.4853,0.721,0.721,0.721,0.721,0.721,0.721,0.721,0.721,0.721,0.721,0.721,0.721,0.721,0.721,0.8036,1.0155,1.0766,1.1528,1.2701,1.3131,1.3607,1.4165,1.3931,1.3941,1.4298,1.4298,1.4298,1.4298,1.4298,1.4298,1.4298,1.4298,1.4298,1.4298,1.4298,1.4298,1.4298,1.4298,1.4298,1.4298,1.4298,1.4298,1.4298,1.4298,1.4298,1.4322,1.449,1.4616,1.4766,1.519,1.5475,1.5913,1.7661,1.8349,1.8765,2.0031,2.0569,2.0758,2.0952,2.0997,2.1109,2.1575,2.1696,2.1696,2.1696,2.1696,2.1755,2.1888,2.214,2.235,2.2501,2.2739,2.2904,2.2904,2.2904,2.2904,2.2904,2.2904,2.2904,2.2904,2.2904,2.2951,2.3125,2.3007,2.3024,2.3346,2.3629,2.3785,2.3785,2.4048,2.4202,2.4202,2.4202,2.4202,2.4202,2.4202,2.4202,2.4202,2.4202,2.4202,2.4202,2.4202,2.4202,2.4202,2.4202,2.4202,2.4238,2.4636,2.4902,2.5104,2.5737,2.6113,2.6233,2.6109,2.5908,2.5706,0.721,0.721,0.721,0.721,0.721,0.721,0.721,0.721,0.721,0.721,0.721,0.721,0.721,0.721,0.721,0.721,0.8242,0.866,0.8128,0.9731,1.1457,1.3198,1.3006,1.3268,1.4166,1.4262,1.4298,1.4298,1.4298,1.4244,1.4154,1.4274,1.4244,1.4148,1.4274,1.4298,1.4298,1.4298,1.4298,1.4298,1.4298,1.4298,1.4298,1.4298,1.4298,1.4298,1.4298,1.4466,1.4718,1.5005,1.541,1.5967,1.6951,1.7622,1.8187,1.9072,1.9752,2.0329,2.0749,2.0921,2.1109,2.1575,2.1723,2.1733,2.1705,2.1723,2.1874,2.2222,2.2359,2.2524,2.2885,2.2986,2.3014,2.3014,2.3014,2.3014,2.3014,2.3014,2.3014,2.3014,2.3014,2.3014,2.3014,2.3014,2.3169,2.355,2.3966,2.4202,2.4202,2.4202,2.4202,2.4202,2.4202,2.422,2.4257,2.4257,2.4238,2.4202,2.4202,2.4202,2.4202,2.4202,2.4202,2.4202,2.4202,2.422,2.4293,2.4691,2.5095,2.5489,2.5893,2.6279,2.6664,2.7188,2.6745,2.609,0.721,0.721,0.721,0.721,0.721,0.721,0.721,0.721,0.721,0.721,0.721,0.721,0.721,0.721,0.721,0.721,0.8242,0.8857,0.8716,0.9954,1.1177,1.225,1.1945,1.2219,1.327,1.3941,1.4298,1.4298,1.4298,1.3878,1.3071,1.3908,1.3854,1.3071,1.3926,1.4298,1.4298,1.4298,1.4298,1.4298,1.4298,1.4298,1.4298,1.4298,1.4298,1.4298,1.4298,1.4346,1.4466,1.4933,1.541,1.5944,1.6732,1.7201,1.7552,1.7963,1.8842,1.9698,1.9803,2.0402,2.1109,2.1575,2.1947,2.2094,2.176,2.1934,2.2195,2.2286,2.2808,2.3285,2.3352,2.3675,2.392,2.392,2.392,2.392,2.392,2.392,2.392,2.392,2.392,2.392,2.392,2.392,2.3957,2.4039,2.4156,2.4202,2.4202,2.4202,2.4202,2.4202,2.4202,2.4358,2.4663,2.4672,2.4507,2.4202,2.4202,2.4202,2.4202,2.4202,2.4202,2.4202,2.4202,2.4395,2.47,2.5104,2.5508,2.5902,2.6315,2.6509,2.6664,2.7188,2.7233,2.7152,0.721,0.721,0.721,0.721,0.721,0.721,0.721,0.721,0.721,0.721,0.721,0.721,0.721,0.721,0.721,0.721,0.8242,0.8912,0.8912,0.949,1.0231,1.1154,1.0989,1.1609,1.3164,1.3504,1.3885,1.4298,1.4298,1.3757,1.2708,1.327,1.3245,1.2727,1.3294,1.383,1.4298,1.4298,1.4298,1.4298,1.4298,1.4298,1.4298,1.4298,1.4298,1.4298,1.4298,1.437,1.4544,1.4814,1.5148,1.5523,1.592,1.645,1.6936,1.696,1.7777,1.8804,1.9574,2.0178,2.085,2.1989,2.2428,2.2474,2.2085,2.2314,2.2629,2.2845,2.3197,2.3578,2.3794,2.403,2.4202,2.4202,2.4202,2.4202,2.4202,2.4202,2.4202,2.4202,2.4202,2.4284,2.4461,2.448,2.4562,2.4771,2.4764,2.4764,2.4764,2.4764,2.4764,2.4764,2.4764,2.4865,2.5086,2.5086,2.4975,2.4764,2.4764,2.4392,2.3689,2.3689,2.3557,2.3397,2.3583,2.4101,2.4856,2.5434,2.5801,2.6031,2.6453,2.6591,2.6664,2.7188,2.7512,2.7691,0.721,0.721,0.721,0.721,0.721,0.721,0.721,0.721,0.721,0.721,0.721,0.721,0.721,0.721,0.721,0.721,0.8242,0.8912,0.8912,0.8912,0.9236,1.0035,1.0026,1.0997,1.3121,1.2922,1.3311,1.437,1.4148,1.3559,1.2702,1.2509,1.2533,1.2702,1.2702,1.3294,1.4298,1.4298,1.4298,1.4298,1.4298,1.4298,1.4298,1.4298,1.4298,1.4298,1.4298,1.4472,1.4688,1.4688,1.4885,1.5083,1.5059,1.5605,1.6231,1.6109,1.6834,1.8005,1.9603,2.011,2.0617,2.2427,2.2808,2.2677,2.2426,2.2711,2.3096,2.3425,2.3544,2.3749,2.4137,2.4202,2.4202,2.4202,2.4202,2.4202,2.4202,2.4202,2.4202,2.4202,2.4266,2.4452,2.4865,2.4911,2.504,2.537,2.5398,2.5398,2.5398,2.5398,2.5398,2.5398,2.5398,2.5425,2.5499,2.5499,2.5535,2.56,2.5389,2.4551,2.3203,2.3203,2.3006,2.2706,2.3246,2.4065,2.5058,2.5719,2.6031,2.6132,2.6481,2.6646,2.6745,2.7215,2.7584,2.7826,0.721,0.721,0.721,0.721,0.721,0.721,0.721,0.721,0.721,0.721,0.721,0.721,0.721,0.721,0.721,0.721,0.8242,0.8912,0.8912,0.8912,0.8958,0.9071,0.8967,0.9949,1.2147,1.2041,1.2851,1.466,1.3479,1.2848,1.2684,1.1804,1.1877,1.2702,1.2702,1.3294,1.4298,1.4298,1.4298,1.4298,1.4298,1.4298,1.4298,1.4298,1.4298,1.4298,1.4298,1.4472,1.4688,1.4688,1.4885,1.5059,1.4838,1.4999,1.5336,1.5533,1.6466,1.7794,1.9405,2.0143,2.0834,2.2475,2.2466,2.2129,2.2538,2.3057,2.3425,2.348,2.3822,2.4113,2.4192,2.4202,2.4202,2.4202,2.4202,2.4202,2.4202,2.4202,2.4202,2.4202,2.4498,2.4884,2.5278,2.5315,2.5333,2.5388,2.5398,2.5398,2.5398,2.5398,2.5398,2.5398,2.5398,2.5563,2.5929,2.5929,2.6086,2.6426,2.5382,2.4419,2.3545,2.3545,2.351,2.3494,2.462,2.5368,2.5865,2.5966,2.6196,2.6509,2.6564,2.6736,2.6989,2.7296,2.7431,2.7503,0.721,0.721,0.721,0.721,0.721,0.721,0.721,0.721,0.721,0.721,0.721,0.7432,0.8076,0.8159,0.8159,0.8159,0.8605,0.8912,0.8912,0.8912,0.8912,0.8912,0.8845,0.9592,1.123,1.168,1.2595,1.3959,1.3859,1.3434,1.2678,1.2242,1.2266,1.2702,1.2702,1.3294,1.4298,1.4298,1.4298,1.4298,1.4298,1.4298,1.4298,1.4298,1.4298,1.4298,1.4298,1.437,1.4472,1.4472,1.4648,1.4856,1.4728,1.4881,1.5153,1.5413,1.5911,1.6801,1.891,1.9628,2.0244,2.2199,2.2464,2.2312,2.2527,2.3007,2.3401,2.3401,2.3826,2.4202,2.4202,2.4202,2.4202,2.4202,2.4404,2.4535,2.4535,2.4142,2.3857,2.3857,2.4627,2.5287,2.5691,2.5754,2.582,2.6058,2.6077,2.6077,2.6077,2.6077,2.6077,2.6077,2.6077,2.6159,2.6334,2.6343,2.6435,2.6591,2.5376,2.4158,2.2979,2.2979,2.2864,2.2728,2.4164,2.5254,2.603,2.6242,2.6444,2.6618,2.6763,2.6999,2.7206,2.7035,2.7062,2.7206]},{"header":{"parameterUnit":"m.s-1","parameterCategory":1,"la1":30.6,"la2":28.766,"lo1":-90.7593,"lo2":-88.6598,"dy":0.0162,"dx":0.0183,"nx":116,"ny":114,"refTime":"2023-09-20T18:00:00:Z","depth":0,"parameterNumber":3,"parameterNumberName":"V-component_of_WINDS"},"data":[0.0,0.0,0.0,0.0,0.0,0.0,0.0,0.0,0.0,0.0,0.0,0.0,0.0,0.0,0.0,0.0,0.0,0.0,0.0,0.0,0.0,0.0,0.0,0.0,0.0,0.0,0.0,0.0,0.0,0.0,0.0,0.0,0.0,0.0,0.0,0.0,0.0,0.0,0.0,0.0,0.0,0.0,0.0,0.0,0.0,0.0,0.0,0.0,0.0,0.0,0.0,0.0,0.0,0.0,0.0,0.0,0.0,0.0,0.0,0.0,0.0,0.0,0.0,0.0,0.0,0.0,0.0,0.0,0.0,0.0,0.0,0.0,0.0,0.0,0.0,0.0,0.0,0.0,0.0,0.0,0.0,0.0,0.0,0.0,0.0,0.0,0.0,0.0,0.0,0.0,0.0,0.0,0.0,0.0,0.0,0.0,0.0,0.0,0.0,0.0,0.0,0.0,0.0,0.0,0.0,0.0,0.0,0.0,0.0,0.0,0.0,0.0,0.0,0.0,0.0,0.0,0.0,0.0,0.0,0.0,0.0,0.0,0.0,0.0,0.0,0.0,0.0,0.0,0.0,0.0,0.0,0.0,0.0,0.0,0.0,0.0,0.0,0.0,0.0,0.0,0.0,0.0,0.0,0.0,0.0,0.0,0.0,0.0,0.0,0.0,0.0,0.0,0.0,0.0,0.0,0.0,0.0,0.0,0.0,0.0,0.0,0.0,0.0,0.0,0.0,0.0,0.0,0.0,0.0,0.0,0.0,0.0,0.0,0.0,0.0,0.0,0.0,0.0,0.0,0.0,0.0,0.0,0.0,0.0,0.0,0.0,0.0,0.0,0.0,0.0,0.0,0.0,0.0,0.0,0.0,0.0,0.0,0.0,0.0,0.0,0.0,0.0,0.0,0.0,0.0,0.0,0.0,0.0,0.0,0.0,0.0,0.0,0.0,0.0,0.0,0.0,0.0,0.0,0.0,0.0,0.0,0.0,0.0,0.0,0.0,0.0,0.0,0.0,0.0,0.0,0.0,0.0,0.0,0.0,0.0,0.0,0.0,0.0,0.0,0.0,0.0,0.0,0.0,0.0,0.0,0.0,0.0,0.0,0.0,0.0,0.0,0.0,0.0,0.0,0.0,0.0,0.0,0.0,0.0,0.0,0.0,0.0,0.0,0.0,0.0,0.0,0.0,0.0,0.0,0.0,0.0,0.0,0.0,0.0,0.0,0.0,0.0,0.0,0.0,0.0,0.0,0.0,0.0,0.0,0.0,0.0,0.0,0.0,0.0,0.0,0.0,0.0,0.0,0.0,0.0,0.0,0.0,0.0,0.0,0.0,0.0,0.0,0.0,0.0,0.0,0.0,0.0,0.0,0.0,0.0,0.0,0.0,0.0,0.0,0.0,0.0,0.0,0.0,0.0,0.0,0.0,0.0,0.0,0.0,0.0,0.0,0.0,0.0,0.0,0.0,0.0,0.0,0.0,0.0,0.0,0.0,0.0,0.0,0.0,0.0,0.0,0.0,0.0,0.0,0.0,0.0,0.0,0.0,0.0,0.0,0.0,0.0,0.0,0.0,0.0,0.0,0.0,0.0,0.0,0.0,0.0,0.0,0.0,0.0,0.0,0.0,0.0,0.0,0.0,0.0,0.0,0.0,0.0,0.0,0.0,0.0,0.0,0.0,0.0,0.0,0.0,0.0,0.0,0.0,0.0,0.0,0.0,0.0,0.0,0.0,0.0,0.0,0.0,0.0,0.0,0.0,0.0,0.0,0.0,0.0,0.0,0.0,0.0,0.0,0.0,0.0,0.0,0.0,0.0,0.0,0.0,0.0,0.0,0.0,0.0,0.0,0.0,0.0,0.0,0.0,0.0,0.0,0.0,0.0,0.0,0.0,0.0,0.0,0.0,0.0,0.0,0.0,0.0,0.0,0.0,0.0,0.0,0.0,0.0,0.0,0.0,0.0,0.0,0.0,0.0,0.0,0.0,0.0,0.0,0.0,0.0,0.0,0.0,0.0,0.0,0.0,0.0,0.0,0.0,0.0,0.0,0.0,0.0,0.0,0.0,0.0,0.0,0.0,0.0,0.0,0.0,0.0,0.0,0.0,0.0,0.0,0.0,0.0,0.0,0.0,0.0,0.0,0.0,0.0,0.0,0.0,0.0,0.0,0.0,0.0,0.0,0.0,0.0,0.0,0.0,0.0,0.0,0.0,0.0,0.0,0.0,0.0,0.0,0.0,0.0,0.0,0.0,0.0,0.0,0.0,0.0,0.0,0.0,0.0,0.0,0.0,0.0,0.0,0.0,0.0,0.0,0.0,0.0,0.0,0.0,0.0,0.0,0.0,0.0,0.0,0.0,0.0,0.0,0.0,0.0,0.0,0.0,0.0,0.0,0.0,0.0,0.0,0.0,0.0,0.0,0.0,0.0,0.0,0.0,0.0,0.0,0.0,0.0,0.0,0.0,0.0,0.0,0.0,0.0,0.0,0.0,0.0,0.0,0.0,0.0,0.0,0.0,0.0,0.0,0.0,0.0,0.0,0.0,0.0,0.0,0.0,0.0,0.0,0.0,0.0,0.0,0.0,0.0,0.0,0.0,0.0,0.0,0.0,0.0,0.0,0.0,0.0,0.0,0.0,0.0,0.0,0.0,0.0,0.0,0.0,0.0,0.0,0.0,0.0,0.0,0.0,0.0,0.0,0.0,0.0,0.0,0.0,0.0,0.0,0.0,0.0,0.0,0.0,0.0,0.0,0.0,0.0,0.0,0.0,0.0,0.0,0.0,0.0,0.0,0.0,0.0,0.0,0.0,0.0,0.0,0.0,0.0,0.0,0.0,0.0,0.0,0.0,0.0,0.0,0.0,0.0,0.0,0.0,0.0,0.0,0.0,0.0,0.0,0.0,0.0,0.0,0.0,0.0,0.0,0.0,0.0,0.0,0.0,0.0,0.0,0.0,0.0,0.0,0.0,0.0,0.0,0.0,0.0,0.0,0.0,0.0,0.0,0.0,0.0,0.0,0.0,0.0,0.0,0.0,0.0,0.0,0.0,0.0,0.0,0.0,0.0,0.0,0.0,0.0,0.0,0.0,0.0,0.0,0.0,0.0,0.0,0.0,0.0,0.0,0.0,0.0,0.0,0.0,0.0,0.0,0.0,0.0,0.0,0.0,0.0,0.0,0.0,0.0,0.0,0.0,0.0,0.0,0.0,0.0,0.0,0.0,0.0,0.0,0.0,0.0,0.0,0.0,0.0,0.0,0.0,0.0,0.0,0.0,0.0,0.0,0.0,0.0,0.0,0.0,0.0,0.0,0.0,0.0,0.0,0.0,0.0,0.0,0.0,0.0,0.0,0.0,0.0,0.0,0.0,0.0,0.0,0.0,0.0,0.0,0.0,0.0,0.0,0.0,0.0,0.0,0.0,0.0,0.0,0.0,0.0,0.0,0.0,0.0,0.0,0.0,0.0,0.0,0.0,0.0,0.0,0.0,0.0,0.0,0.0,0.0,0.0,0.0,0.0,0.0,0.0,0.0,0.0,0.0,0.0,0.0,0.0,0.0,0.0,0.0,0.0,0.0,0.0,0.0,0.0,0.0,0.0,0.0,0.0,0.0,0.0,0.0,0.0,0.0,0.0,0.0,0.0,0.0,0.0,0.0,0.0,0.0,0.0,0.0,0.0,0.0,0.0,0.0,0.0,0.0,0.0,0.0,0.0,0.0,0.0,0.0,0.0,0.0,0.0,0.0,0.0,0.0,0.0,0.0,0.0,0.0,0.0,0.0,0.0,0.0,0.0,0.0,0.0,0.0,0.0,0.0,0.0,0.0,0.0,0.0,0.0,0.0,0.0,0.0,0.0,0.0,0.0,0.0,0.0,0.0,0.0,0.0,0.0,0.0,0.0,0.0,0.0,0.0,0.0,0.0,0.0,0.0,0.0,0.0,0.0,0.0,0.0,0.0,0.0,0.0,0.0,0.0,0.0,0.0,0.0,0.0,0.0,0.0,0.0,0.0,0.0,0.0,0.0,0.0,0.0,0.0,0.0,0.0,0.0,0.0,0.0,0.0,0.0,0.0,0.0,0.0,0.0,0.0,0.0,0.0,0.0,0.0,0.0,0.0,0.0,0.0,0.0,0.0,0.0,0.0,0.0,0.0,0.0,0.0,0.0,0.0,0.0,0.0,0.0,0.0,0.0,0.0,0.0,0.0,0.0,0.0,0.0,0.0,0.0,0.0,0.0,0.0,0.0,0.0,0.0,0.0,0.0,0.0,0.0,0.0,0.0,0.0,0.0,0.0,0.0,0.0,0.0,0.0,0.0,0.0,0.0,0.0,0.0,0.0,0.0,0.0,0.0,0.0,0.0,0.0,0.0,0.0,0.0,0.0,0.0,0.0,0.0,0.0,0.0,0.0,0.0,0.0,0.0,0.0,0.0,0.0,0.0,0.0,0.0,0.0,0.0,0.0,0.0,0.0,0.0,0.0,0.0,0.0,0.0,0.0,0.0,0.0,0.0,0.0,0.0,0.0,0.0,0.0,0.0,0.0,0.0,0.0,0.0,0.0,0.0,0.0,0.0,0.0,0.0,0.0,0.0,0.0,0.0,0.0,0.0,0.0,0.0,0.0,0.0,0.0,0.0,0.0,0.0,0.0,0.0,0.0,0.0,0.0,0.0,0.0,0.0,0.0,0.0,0.0,0.0,0.0,0.0,0.0,0.0,0.0,0.0,0.0,0.0,0.0,0.0,0.0,0.0,0.0,0.0,0.0,0.0,0.0,0.0,0.0,0.0,0.0,0.0,0.0,0.0,0.0,0.0,0.0,0.0,0.0,0.0,0.0,0.0,0.0,0.0,0.0,0.0,0.0,0.0,0.0,0.0,0.0,0.0,0.0,0.0,0.0,0.0,0.0,0.0,0.0,0.0,0.0,0.0,0.0,0.0,0.0,0.0,0.0,0.0,0.0,0.0,0.0,0.0,0.0,0.0,0.0,0.0,0.0,0.0,0.0,0.0,0.0,0.0,0.0,0.0,0.0,0.0,0.0,0.0,0.0,0.0,0.0,0.0,0.0,0.0,0.0,0.0,0.0,0.0,0.0,0.0,0.0,0.0,0.0,0.0,0.0,0.0,0.0,0.0,0.0,0.0,0.0,0.0,0.0,0.0,0.0,0.0,0.0,0.0,0.0,0.0,0.0,0.0,0.0,0.0,0.0,0.0,0.0,0.0,0.0,0.0,0.0,0.0,0.0,0.0,0.0,0.0,0.0,0.0,0.0,0.0,0.0,0.0,0.0,0.0,0.0,0.0,0.0,0.0,0.0,0.0,0.0,0.0,0.0,0.0,0.0,0.0,0.0,0.0,0.0,0.0,0.0,0.0,0.0,0.0,0.0,0.0,0.0,0.0,0.0,0.0,0.0,0.0,0.0,0.0,0.0,0.0,0.0,0.0,0.0,0.0,0.0,0.0,0.0,0.0,0.0,0.0,0.0,0.0,0.0,0.0,0.0,0.0,0.0,0.0,0.0,0.0,0.0,0.0,0.0,0.0,0.0,0.0,0.0,0.0,0.0,0.0,0.0,0.0,0.0,0.0,0.0,0.0,0.0,0.0,0.0,0.0,0.0,0.0,0.0,0.0,0.0,0.0,0.0,0.0,0.0,0.0,0.0,0.0,0.0,0.0,0.0,0.0,0.0,0.0,0.0,0.0,0.0,0.0,0.0,0.0,0.0,0.0,0.0,0.0,0.0,0.0,0.0,0.0,0.0,0.0,0.0,0.0,0.0,0.0,0.0,0.0,0.0,0.0,0.0,0.0,0.0,0.0,0.0,0.0,0.0,0.0,0.0,0.0,0.0,0.0,0.0,0.0,0.0,0.0,0.0,0.0,0.0,0.0,0.0,0.0,0.0,0.0,0.0,0.0,0.0,0.0,0.0,0.0,0.0,0.0,0.0,0.0,0.0,0.0,0.0,0.0,0.0,0.0,0.0,0.0,0.0,0.0,0.0,0.0,0.0,0.0,0.0,0.0,0.0,0.0,0.0,0.0,0.0,0.0,0.0,0.0,0.0,0.0,0.0,0.0,0.0,0.0,0.0,0.0,0.0,0.0,0.0,0.0,0.0,0.0,0.0,2.5893,2.4765,0.0,0.0,0.0,0.0,0.0,0.0,0.0,0.0,0.0,0.0,0.0,0.0,0.0,0.0,0.0,0.0,0.0,0.0,0.0,0.0,0.0,0.0,0.0,0.0,0.0,0.0,0.0,0.0,0.0,0.0,0.0,0.0,0.0,0.0,0.0,0.0,0.0,0.0,2.0347,2.0521,2.0965,2.1181,2.126,2.1224,0.0,0.0,0.0,0.0,0.0,0.0,0.0,0.0,0.0,0.0,0.0,0.0,0.0,0.0,0.0,0.0,0.0,0.0,0.0,0.0,0.0,0.0,0.0,0.0,0.0,0.0,0.0,0.0,0.0,0.0,0.0,0.0,0.0,0.0,0.0,0.0,0.0,0.0,0.0,0.0,0.0,0.0,0.0,0.0,0.0,0.0,0.0,0.0,0.0,0.0,0.0,0.0,0.0,0.0,0.0,0.0,0.0,0.0,0.0,0.0,0.0,0.0,0.0,0.0,0.0,0.0,0.0,0.0,0.0,0.0,2.938,2.7918,0.0,0.0,0.0,0.0,0.0,0.0,0.0,0.0,0.0,0.0,0.0,0.0,0.0,0.0,0.0,0.0,0.0,0.0,0.0,0.0,0.0,0.0,0.0,1.6877,1.7254,1.7362,1.7884,1.8199,0.0,0.0,0.0,0.0,0.0,0.0,0.0,2.0168,2.0266,2.0596,2.1088,2.1673,2.2401,2.2537,2.2639,2.2666,2.2063,0.0,0.0,0.0,0.0,0.0,0.0,0.0,0.0,0.0,0.0,0.0,0.0,0.0,0.0,0.0,0.0,0.0,0.0,0.0,0.0,0.0,0.0,0.0,0.0,0.0,0.0,0.0,0.0,0.0,0.0,0.0,0.0,0.0,0.0,0.0,0.0,0.0,0.0,0.0,0.0,0.0,0.0,0.0,0.0,0.0,0.0,0.0,0.0,0.0,0.0,0.0,0.0,0.0,0.0,0.0,0.0,0.0,0.0,0.0,0.0,0.0,0.0,0.0,3.5354,3.5798,3.6497,3.6638,3.6758,3.671,3.3825,3.2015,3.1039,2.9918,0.0,0.0,0.0,0.0,0.0,0.0,0.0,0.0,0.0,0.0,0.0,0.0,0.0,0.0,0.0,0.0,0.0,0.0,0.0,0.0,0.0,1.7147,1.7431,1.8023,1.8153,1.8199,1.8199,0.0,0.0,0.0,0.0,0.0,2.0296,2.0168,2.0399,2.1017,2.2555,2.3815,2.4766,2.5466,2.6096,2.6494,2.3182,2.2039,2.2559,0.0,0.0,0.0,0.0,0.0,0.0,0.0,0.0,0.0,0.0,0.0,0.0,0.0,0.0,0.0,0.0,0.0,0.0,0.0,0.0,0.0,0.0,0.0,0.0,0.0,0.0,0.0,0.0,0.0,0.0,0.0,0.0,0.0,0.0,0.0,0.0,0.0,0.0,0.0,0.0,0.0,2.4425,2.502,0.0,0.0,0.0,0.0,0.0,0.0,0.0,0.0,0.0,0.0,0.0,0.0,0.0,3.459,3.5882,3.6627,3.7391,3.8142,3.8809,3.9431,4.0053,4.0754,4.1395,4.1902,4.1385,0.0,3.3953,3.3778,0.0,0.0,0.0,0.0,0.0,0.0,0.0,0.0,0.0,0.0,0.0,0.0,0.0,0.0,0.0,0.0,0.0,0.0,0.0,0.0,0.0,1.7953,1.8646,1.9315,1.9377,1.9546,1.9916,1.9886,0.0,0.0,0.0,2.0296,2.0296,2.0613,2.1587,2.3234,2.399,2.5332,2.7181,2.7522,2.8269,2.9232,2.7095,2.5874,2.5387,2.4359,0.0,0.0,0.0,0.0,0.0,0.0,0.0,0.0,0.0,0.0,0.0,0.0,0.0,0.0,0.0,0.0,0.0,0.0,0.0,0.0,0.0,0.0,0.0,0.0,0.0,0.0,0.0,0.0,0.0,0.0,0.0,0.0,0.0,0.0,0.0,0.0,0.0,0.0,0.0,2.4896,2.5827,2.6123,2.6482,2.6719,0.0,0.0,0.0,0.0,0.0,0.0,0.0,0.0,0.0,3.5869,3.7517,3.8884,3.9913,4.1171,4.2103,4.27,4.3667,4.4419,4.4997,4.5407,4.5776,4.6043,4.6024,4.4142,4.0931,3.8367,3.6469,3.5096,0.0,0.0,0.0,0.0,3.4364,3.489,0.0,0.0,0.0,0.0,0.0,0.0,0.0,0.0,0.0,0.0,0.0,0.0,1.8098,1.8996,1.9879,2.0742,2.082,2.1011,2.1519,2.0927,2.0566,2.0566,2.0566,2.0566,2.0566,2.1678,2.3409,2.5765,2.6166,2.7476,2.96,3.0003,3.0746,3.1718,3.11,2.9903,2.8269,2.6806,2.5925,2.5421,0.0,0.0,0.0,0.0,0.0,0.0,0.0,0.0,0.0,0.0,0.0,0.0,0.0,0.0,0.0,0.0,0.0,0.0,0.0,0.0,0.0,0.0,0.0,0.0,0.0,0.0,0.0,0.0,0.0,0.0,0.0,0.0,0.0,0.0,0.0,0.0,0.0,2.6512,2.7423,2.7575,2.8186,2.8665,0.0,0.0,0.0,0.0,0.0,0.0,3.5064,3.6988,3.8697,4.0147,4.1993,4.3313,4.4029,4.546,4.6377,4.6784,4.7819,4.8534,4.8924,4.9069,4.9133,4.9133,4.9133,4.8411,4.6904,4.2899,4.0263,3.8701,3.7732,3.7284,3.7164,3.7258,3.7687,3.8394,0.0,0.0,0.0,0.0,0.0,0.0,0.0,0.0,0.0,0.0,0.0,1.8098,1.9951,2.0212,2.0773,2.208,2.2203,2.2203,2.2249,2.1627,2.1242,2.1242,2.1242,2.1242,2.1242,2.3598,2.5902,2.8123,2.9599,3.0895,3.2072,3.353,3.4249,3.4305,3.4207,3.2774,3.0375,2.9279,2.839,2.764,2.6511,0.0,0.0,0.0,0.0,0.0,0.0,0.0,0.0,0.0,0.0,0.0,0.0,0.0,0.0,0.0,0.0,0.0,0.0,0.0,0.0,0.0,0.0,0.0,0.0,0.0,0.0,0.0,0.0,0.0,0.0,0.0,0.0,0.0,0.0,0.0,0.0,0.0,0.0,3.0238,3.0897,0.0,0.0,0.0,0.0,3.5104,3.6528,3.7939,3.9325,4.1532,4.3378,4.4737,4.6336,4.7527,4.8199,4.8968,4.9386,4.942,5.019,5.0542,5.0593,5.0774,5.0856,5.0856,5.0856,5.0435,4.9526,4.7003,4.4597,4.2523,4.2458,4.2009,4.1463,4.196,4.2366,4.2783,0.0,0.0,0.0,0.0,0.0,0.0,0.0,0.0,1.72,1.7784,1.8563,1.9521,2.0684,2.1393,2.2291,2.3544,2.3055,2.2891,2.3362,2.2737,2.2206,2.196,2.2187,2.2878,2.4042,2.5899,2.7825,2.9775,3.1278,3.282,3.4417,3.5475,3.6225,3.6688,3.6658,3.6152,3.5111,3.2175,3.0363,2.9377,2.8681,2.746,0.0,0.0,0.0,0.0,0.0,0.0,0.0,0.0,0.0,0.0,0.0,0.0,0.0,0.0,0.0,0.0,0.0,0.0,0.0,0.0,0.0,0.0,0.0,0.0,0.0,0.0,0.0,0.0,0.0,0.0,0.0,0.0,0.0,0.0,0.0,0.0,0.0,3.3873,3.5261,0.0,3.7242,3.7486,3.8145,3.9456,4.0551,4.1966,4.3783,4.5199,4.6782,4.8646,4.9257,5.0157,5.138,5.2219,5.2555,5.2452,5.3447,5.3853,5.3732,5.3938,5.4024,5.4024,5.4024,5.3349,5.215,5.129,4.916,4.643,4.5994,4.5626,4.5394,4.5633,4.5477,4.5217,0.0,0.0,0.0,0.0,0.0,0.0,0.0,0.0,1.7416,1.8255,1.9321,2.0431,2.1589,2.2828,2.3864,2.4616,2.4402,2.4298,2.4488,2.3845,2.3326,2.3048,2.3546,2.4899,2.724,2.8289,2.9941,3.2296,3.3277,3.4639,3.6377,3.719,3.7951,3.8637,3.8633,3.8785,3.8807,3.57,3.3466,3.1977,3.1081,2.9761,2.8282,0.0,0.0,0.0,0.0,0.0,0.0,0.0,0.0,0.0,0.0,0.0,0.0,0.0,0.0,0.0,0.0,0.0,0.0,0.0,0.0,0.0,0.0,0.0,0.0,0.0,0.0,0.0,0.0,0.0,0.0,0.0,0.0,0.0,0.0,3.414,3.6472,3.7833,3.9338,4.0701,4.1755,4.1978,4.2622,4.3992,4.5079,4.6416,4.8034,4.9191,5.0456,5.1866,5.2236,5.2892,5.3901,5.4476,5.4712,5.4589,5.534,5.5629,5.5506,5.5629,5.5699,5.5699,5.5699,5.5141,5.4228,5.4228,5.2927,5.0791,4.9264,4.8644,4.8611,4.858,4.8309,4.8019,0.0,0.0,0.0,0.0,0.0,0.0,0.0,1.6587,1.7507,1.8751,1.959,2.0791,2.2721,2.4473,2.5441,2.5279,2.6189,2.6429,2.5589,2.491,2.4563,2.4571,2.5336,2.7283,3.0547,3.0707,3.2357,3.56,3.5667,3.649,3.7978,3.8717,3.9462,4.0176,4.0168,4.0574,4.1136,3.9715,3.7773,3.5526,3.3734,3.2562,3.173,0.0,0.0,0.0,0.0,0.0,0.0,0.0,0.0,0.0,0.0,0.0,0.0,0.0,0.0,0.0,0.0,0.0,0.0,0.0,0.0,0.0,0.0,0.0,0.0,0.0,0.0,0.0,0.0,0.0,0.0,0.0,0.0,0.0,3.5854,3.767,3.9896,4.2062,4.309,4.4187,4.5608,4.6323,4.7292,4.8658,5.0109,5.1229,5.1967,5.3498,5.4341,5.4392,5.5274,5.575,5.5767,5.5767,5.5767,5.5767,5.5767,5.5767,5.5767,5.5767,5.5767,5.5767,5.5767,5.5767,5.5733,5.5733,5.5716,5.5394,5.2303,5.1108,5.1041,5.086,5.0991,5.1235,0.0,0.0,0.0,0.0,0.0,0.0,0.0,1.583,1.6973,1.8864,2.035,2.1836,2.3447,2.5008,2.605,2.6341,2.641,2.637,2.6173,2.5834,2.5904,2.6431,2.8236,2.9792,3.1008,3.3129,3.4672,3.56,3.7251,3.8548,3.9508,4.024,4.0984,4.1694,4.1707,4.1809,4.1965,4.1559,4.07,3.9395,3.6675,3.5075,3.4164,0.0,0.0,0.0,0.0,0.0,0.0,0.0,0.0,0.0,0.0,0.0,0.0,0.0,0.0,0.0,0.0,0.0,0.0,0.0,0.0,0.0,0.0,0.0,0.0,0.0,0.0,0.0,0.0,0.0,0.0,0.0,3.8043,3.962,3.8886,4.1566,4.4479,4.6816,4.8035,4.931,5.0926,5.116,5.1577,5.2443,5.3039,5.3649,5.4406,5.5001,5.5562,5.6102,5.6357,5.6748,5.7289,5.7289,5.7289,5.7289,5.7289,5.7289,5.7289,5.7289,5.7289,5.7289,5.7289,5.6985,5.6511,5.6511,5.6172,5.5564,5.416,5.3281,5.2825,5.2758,5.242,5.1928,0.0,0.0,0.0,0.0,0.0,0.0,0.0,1.5533,1.6775,1.8917,2.0384,2.1921,2.3712,2.5388,2.6488,2.6741,2.6996,2.6987,2.6623,2.6738,2.7294,2.8373,2.9974,3.1567,3.31,3.4802,3.6147,3.7113,3.8752,3.9896,4.0574,4.1318,4.2049,4.2777,4.3112,4.3433,4.3724,4.3724,4.347,4.2899,4.0801,3.8861,3.7045,3.5447,3.4832,3.462,3.3062,3.1998,3.128,3.0964,0.0,0.0,0.0,0.0,0.0,0.0,0.0,0.0,0.0,0.0,0.0,0.0,0.0,0.0,0.0,0.0,0.0,0.0,0.0,0.0,0.0,0.0,0.0,0.0,4.1595,4.4034,4.4566,4.6175,4.815,5.0476,5.1698,5.2842,5.4124,5.4173,5.4541,5.5567,5.5742,5.6267,5.7312,5.7489,5.7746,5.8169,5.7881,5.7932,5.8355,5.8051,5.79,5.79,5.79,5.79,5.79,5.79,5.79,5.79,5.79,5.7645,5.7256,5.7256,5.7002,5.6528,0.0,0.0,0.0,0.0,5.3467,5.2773,0.0,0.0,0.0,0.0,0.0,0.0,0.0,1.5415,1.6638,1.8701,1.9975,2.1452,2.3503,2.5444,2.657,2.6504,2.7459,2.7757,2.7071,2.7673,2.8721,3.0185,3.1193,3.3009,3.5759,3.6065,3.7245,3.936,4.0067,4.0786,4.15,4.213,4.2861,4.3693,4.4415,4.5128,4.5821,4.5821,4.5821,4.5771,4.5108,4.3013,4.0132,3.8597,3.7973,3.7692,3.6221,3.5123,3.4284,3.3534,0.0,0.0,0.0,0.0,0.0,0.0,0.0,0.0,0.0,0.0,0.0,0.0,0.0,0.0,0.0,0.0,0.0,0.0,0.0,0.0,0.0,0.0,0.0,0.0,4.5389,4.8945,5.1167,5.1018,5.1408,5.3363,5.4413,5.526,5.6003,5.6155,5.673,5.8052,5.8154,5.8729,6.003,6.0097,0.0,0.0,0.0,5.9081,5.8996,5.8355,5.7984,5.79,5.79,5.79,5.79,5.79,5.79,5.79,5.79,5.79,5.79,5.79,5.79,5.7764,5.6376,5.5767,5.5632,5.494,5.4279,5.3803,0.0,0.0,0.0,0.0,0.0,0.0,0.0,1.4713,1.5795,1.7449,1.9701,2.1552,2.2576,2.4284,2.533,2.5323,2.6019,2.6833,2.7734,2.9,3.0162,3.1116,3.3563,3.5231,3.5948,3.7758,3.9197,4.0239,4.0878,4.1873,4.3219,4.3203,4.393,4.5249,4.5415,4.5906,4.6597,4.6597,4.6597,4.6566,4.643,4.4911,4.2608,4.1603,4.0843,4.0111,3.8531,3.7471,3.6709,3.5961,3.4647,3.2973,3.0925,2.9558,0.0,0.0,0.0,0.0,0.0,0.0,0.0,0.0,0.0,0.0,0.0,0.0,0.0,0.0,0.0,0.0,0.0,0.0,0.0,4.5063,4.8351,5.1271,5.3599,5.4814,5.5624,5.6052,5.6781,5.7543,5.8286,5.8895,5.937,5.9658,5.9674,5.9793,6.008,6.0097,6.0097,6.0097,5.9962,5.9607,5.8996,5.8861,5.849,5.79,5.79,0.0,5.79,5.79,5.79,5.79,5.79,5.79,5.79,5.79,5.79,5.7815,5.6934,5.6223,5.5667,5.5413,5.525,5.5124,0.0,0.0,0.0,0.0,0.0,0.0,0.0,1.448,1.555,1.7098,1.8966,2.0567,2.1674,2.3031,2.3998,2.4377,2.5379,2.6436,2.7485,2.9278,3.0802,3.1944,3.4512,3.6306,3.718,3.907,4.0406,4.1143,4.2227,4.312,4.3795,4.4394,4.5058,4.582,4.6496,4.7008,4.7378,4.775,4.7902,4.7902,4.7902,4.7005,4.5471,4.3939,4.3118,4.2598,4.1013,3.9703,3.8631,3.8278,3.6587,3.4428,3.3193,3.1177,2.905,0.0,0.0,0.0,0.0,0.0,0.0,0.0,0.0,0.0,0.0,0.0,0.0,0.0,0.0,3.7109,3.9259,0.0,4.5518,4.8535,5.1484,5.3947,5.5478,5.6647,5.7205,5.685,5.7442,5.8034,5.8406,5.9116,5.9708,6.0063,6.0469,6.0858,6.1231,6.1247,6.1247,6.1247,6.0892,6.052,6.0146,5.974,5.937,5.8998,5.8998,5.8998,5.8981,5.8626,5.8457,5.844,5.8051,5.79,5.7918,5.8263,5.8423,5.8495,5.8495,5.7842,5.6815,5.6439,5.6252,5.6197,0.0,0.0,0.0,0.0,0.0,0.0,0.0,1.4217,1.5288,1.6703,1.8012,1.9318,2.0626,2.1653,2.2612,2.3509,2.4957,2.6225,2.7257,2.9401,3.1298,3.2784,3.5164,3.7089,3.8419,4.0092,4.1317,4.2073,4.3409,4.4085,4.4137,4.5314,4.5943,4.6129,4.7355,4.7988,4.8157,4.8748,4.9001,4.9001,4.9001,4.8563,4.7684,4.5768,4.4939,4.4584,4.2909,4.1476,4.0293,3.9872,3.7962,3.5688,3.5183,3.2714,2.995,2.9614,2.7952,0.0,0.0,0.0,0.0,0.0,0.0,0.0,0.0,3.3517,3.5075,3.6707,3.8598,4.0731,4.3256,4.6368,4.9293,5.1569,5.4201,5.6225,5.6917,5.7562,5.7733,5.7087,5.7662,5.8101,5.8101,5.8778,5.9471,6.0063,6.0842,6.1552,6.2144,6.2313,6.24,6.24,6.1823,6.145,6.1298,6.0655,6.025,6.0097,6.0097,6.0173,6.0289,5.9544,5.9208,5.9169,5.8423,5.8191,5.8387,5.8926,5.9229,5.9427,6.0041,5.9638,5.8625,5.7952,5.7527,5.7281,0.0,0.0,0.0,0.0,0.0,0.0,0.0,0.0,1.4305,1.5297,1.6996,1.8404,1.9165,2.0093,2.1245,2.2699,2.4232,2.5962,2.7953,3.02,3.2155,3.3691,3.6577,3.8264,3.8566,4.0721,4.225,4.3044,4.3631,4.4236,4.4889,4.5453,4.6056,4.673,4.7547,4.8259,4.8868,4.8968,4.9001,4.9001,4.9001,4.8563,4.7802,4.6904,4.6143,4.5297,4.3095,4.2185,4.1732,3.977,3.8366,3.7124,3.5302,3.3599,3.2029,3.0932,2.9584,2.8439,2.8439,2.88,2.9458,3.0733,3.221,3.3668,0.0,3.6467,3.8272,4.094,4.2297,4.4047,4.7464,4.9636,5.1652,5.3878,5.577,5.713,5.7698,5.8011,5.8064,5.7816,5.844,5.8878,5.8878,5.9539,6.0013,6.0097,6.0842,6.1349,6.1417,6.2042,6.24,6.24,6.2313,6.1958,6.1315,6.1214,6.0808,6.0097,6.0097,6.0438,6.1043,6.0297,5.9981,5.9926,5.9133,5.923,5.9947,6.0011,6.0119,6.0291,6.0537,6.0873,6.1099,6.0185,5.9396,5.8745,0.0,0.0,0.0,0.0,0.0,0.0,0.0,0.0,0.0,1.4424,1.5635,1.6758,1.7633,1.8938,2.0389,2.1929,2.3422,2.5252,2.7528,2.9799,3.1959,3.3931,3.6506,3.8113,3.8588,4.0831,4.2383,4.3189,4.3834,4.4512,4.5255,4.6152,4.6742,4.7083,4.8096,4.8714,4.9001,4.9001,4.9001,4.8968,4.8529,4.8174,4.7735,4.6126,4.5026,4.4184,4.2794,4.1745,0.0,3.9462,3.8186,3.7022,3.609,3.4591,3.3014,3.2104,3.0939,2.9989,3.0063,3.1095,3.2368,3.332,3.4893,3.6812,3.902,4.0382,4.2,4.4813,4.6123,4.761,5.0376,5.2259,5.3988,5.5755,5.7112,5.799,5.8226,5.8224,5.817,5.8081,5.796,5.8026,5.834,5.9032,5.9471,5.9471,6.0182,6.0808,6.1281,6.1586,6.1958,6.24,6.24,6.2245,6.1941,6.1941,6.1772,6.1453,6.186,6.2237,6.2512,6.1755,6.1005,6.0186,5.989,5.9977,6.0355,6.0736,6.0989,6.1146,6.1622,6.2014,6.2149,6.0937,6.0497,6.0442,0.0,0.0,0.0,0.0,0.0,0.0,0.0,0.0,0.0,0.0,1.4457,1.5364,1.6627,1.8065,1.9579,2.113,2.263,2.4474,2.6816,2.9101,3.1292,3.3379,3.5846,3.7415,3.795,4.0417,4.1969,4.2568,4.3467,4.4303,4.5051,4.6058,4.6635,4.6891,4.7937,4.8392,4.8392,4.8392,4.8392,4.8359,4.7817,4.7346,4.6802,4.4959,4.3403,4.2121,4.1576,4.0578,3.9314,3.8142,3.7054,3.6113,3.5802,3.4765,3.3528,3.3055,3.2456,3.2023,3.229,3.3691,3.5369,3.6428,3.8119,4.0263,4.3066,4.4245,4.5498,4.8187,4.9286,5.0442,5.2734,5.4143,5.5434,5.6915,5.7771,5.8321,5.8474,5.8232,5.8007,5.7954,5.7289,5.6999,5.7383,5.8058,5.8546,5.8693,5.9387,6.0148,6.0926,6.118,6.1637,6.2383,6.24,6.24,6.24,6.2598,6.2697,6.2697,6.3496,6.397,6.413,6.3206,6.2225,6.122,6.0839,6.0793,6.1029,6.1542,6.1806,6.1982,6.2464,6.2717,6.2669,6.167,6.1421,6.1533,0.0,0.0,0.0,0.0,0.0,0.0,0.0,0.0,0.0,0.0,0.0,0.0,0.0,1.7502,1.8682,2.0302,2.1837,2.3698,2.5998,2.8274,3.0231,3.18,3.4731,3.6353,3.637,3.9365,4.0946,4.0981,4.2299,4.3353,4.4143,4.4593,4.519,4.5968,4.6588,4.6868,4.6868,4.6868,4.6868,4.6853,4.6836,4.5971,4.4601,4.3775,4.166,3.9123,3.9119,3.8616,3.7623,3.5385,3.4618,3.4449,3.3717,3.3594,3.37,3.3677,3.4239,3.5004,3.559,3.6785,3.838,4.0479,4.2175,4.4076,4.6887,4.7701,4.8523,5.0888,5.141,5.2151,5.4566,5.5058,5.5569,5.7055,5.7484,5.7844,5.8423,5.7998,5.7552,5.7346,5.6679,5.6218,5.6252,5.6796,5.7368,5.7883,5.8626,5.937,6.0097,6.0875,6.1637,6.2383,6.24,6.24,6.24,6.3102,6.3458,6.3477,6.4358,6.5137,6.5781,6.439,6.3693,6.3502,6.2022,6.181,6.2534,6.2565,6.2636,6.2768,6.2798,6.2811,6.2793,6.2749,6.2248,6.1606,0.0,0.0,0.0,0.0,0.0,0.0,0.0,0.0,0.0,0.0,0.0,0.0,0.0,0.0,0.0,0.0,2.1078,2.2699,2.4456,2.6747,2.8946,3.0981,3.2972,3.4525,3.5542,3.7588,3.8882,3.9365,4.0318,4.1448,4.2723,4.325,4.3888,4.4589,4.5156,4.5382,4.5345,4.5345,4.5345,4.5244,4.4228,4.3518,4.2824,4.0612,3.8502,3.6541,0.0,3.4709,3.4799,3.4032,3.3451,3.3173,3.3897,3.4177,3.446,3.562,3.693,3.8134,3.8775,4.0721,4.2967,4.4584,4.6115,4.7861,5.0371,5.1011,5.1288,5.2183,5.2364,5.2616,5.3422,5.3669,5.4263,5.5788,5.6177,5.6535,5.7276,5.7088,5.6849,5.6781,5.613,5.6011,5.685,5.7105,5.7309,5.7494,5.856,5.9578,6.0455,6.1009,6.1695,6.2559,6.2459,6.2678,6.3257,6.3517,6.3917,6.4495,6.5282,6.5797,6.5995,6.5036,6.4321,6.3773,6.2758,6.2477,6.273,6.273,6.2755,6.2793,6.2793,6.2793,6.2793,6.2793,6.2627,6.2401,0.0,0.0,0.0,0.0,0.0,0.0,0.0,0.0,0.0,0.0,0.0,0.0,0.0,0.0,0.0,0.0,0.0,2.1533,2.3285,2.5067,2.7106,2.9444,3.0922,3.2311,3.3638,3.5393,3.6518,3.6984,3.7991,3.914,4.0417,4.1008,4.1652,4.236,4.2913,4.3121,4.3061,4.3061,4.2881,4.2503,4.1521,4.0811,4.0066,3.7618,3.574,0.0,3.2215,3.1461,3.1485,3.2043,3.1901,3.1775,3.3247,3.4449,3.5752,3.7932,3.9695,4.1194,4.2458,4.4561,4.6787,4.849,4.9626,5.0887,5.2921,5.301,5.264,5.2548,5.2282,5.2041,5.1833,5.2128,5.2805,5.4044,5.4794,5.5478,5.6271,5.6276,5.6296,5.6571,5.5935,5.5903,5.7004,5.7364,5.7569,5.7721,5.8775,5.9797,6.064,6.1217,6.1926,6.2772,6.291,6.3238,6.3809,6.4306,6.5001,6.5886,6.6371,6.6467,6.6218,6.5455,6.4702,6.3929,6.3139,6.2793,6.2793,6.2793,6.2793,6.2793,6.2793,6.2793,6.2793,6.2793,6.2793,6.2793,0.0,0.0,0.0,0.0,0.0,0.0,0.0,0.0,0.0,0.0,0.0,0.0,0.0,0.0,0.0,0.0,0.0,0.0,2.2371,2.3309,2.4818,2.7202,2.8614,2.9782,3.0698,3.2791,3.3862,3.3862,3.5345,3.6484,3.7277,3.7852,3.854,3.93,3.986,4.0097,4.0067,4.0033,3.9534,3.8763,3.8696,3.7816,3.6406,3.4821,3.3315,3.1887,3.0446,2.899,2.7993,2.9574,3.02,3.0572,3.2063,3.4595,3.7596,4.051,4.2518,4.4269,4.6506,4.823,4.9904,5.211,5.2726,5.3139,5.4517,5.3797,5.2627,5.1975,5.1199,5.0456,4.9878,5.0375,5.1117,5.191,5.3323,5.4599,5.5375,5.5547,5.5875,5.665,5.6099,5.5978,5.6788,5.7529,5.8118,5.8561,5.926,5.9994,6.0763,6.1531,6.2303,6.3042,6.3663,6.4042,6.413,6.5476,6.663,6.7515,6.7515,6.7162,6.6476,6.5668,6.4861,6.4047,6.3178,6.2793,6.2793,6.2793,6.2793,6.2793,6.2793,6.2793,6.2793,6.2793,6.2793,6.2793,0.0,0.0,0.0,0.0,0.0,0.0,0.0,0.0,0.0,0.0,0.0,0.0,0.0,0.0,0.0,0.0,0.0,0.0,2.009,2.2035,2.362,2.47,2.6274,2.7459,2.82,2.9825,3.0679,3.0679,3.2196,3.3335,3.4076,3.4226,3.4964,3.614,3.6313,3.663,3.6979,3.6372,3.5994,3.5689,3.4498,3.3783,3.3224,3.1176,2.9796,2.883,2.7909,2.7317,2.73,2.9388,3.1562,3.3643,3.5159,3.768,4.0561,4.301,4.5568,4.7954,4.9576,5.1576,5.349,5.473,5.5073,5.5144,5.5244,5.4092,5.2373,5.0083,4.9025,4.8095,4.681,4.722,4.8169,4.9462,5.0962,5.2427,5.3754,5.4909,5.5685,5.5875,5.6237,5.6788,5.7547,5.8288,5.8996,5.9718,6.0316,6.1053,6.1989,6.2468,6.3099,6.3951,6.4006,6.4582,6.5781,6.6791,6.7401,6.7647,6.7647,6.7257,6.6476,6.5668,6.4861,6.4047,6.3178,6.2793,6.2793,6.2793,6.2793,6.2793,6.2793,6.2793,6.2793,6.2793,6.2793,6.2793,0.0,0.0,0.0,0.0,0.0,0.0,0.0,0.0,0.0,0.0,0.0,0.0,0.0,0.0,0.0,0.0,0.0,0.0,0.0,2.046,2.1904,2.3009,2.4176,2.5167,2.5924,2.7302,2.8015,2.8015,2.923,3.005,3.0455,3.0765,3.134,3.2135,3.2815,3.3054,3.2956,3.2855,3.2366,0.0,0.0,3.0134,2.966,2.8104,2.7232,2.6784,2.637,2.7063,2.8535,3.0792,3.3305,3.5836,3.7669,4.029,4.3196,4.5785,4.8392,5.0833,5.2636,5.4391,5.5803,5.6294,5.6076,5.5501,5.4604,5.2743,5.0481,4.7848,4.6462,4.5354,4.4117,4.4837,4.6079,4.7582,4.9393,5.1151,5.2651,5.4168,5.5358,5.6064,5.6822,5.7719,5.8806,5.9288,5.9995,6.1116,6.1492,6.1887,6.2461,6.3262,6.3933,6.4428,6.4921,6.5766,6.6953,6.746,6.77,6.77,6.77,6.7081,6.5962,6.5508,6.4659,6.3503,6.3013,6.2793,6.2793,6.2793,6.2793,6.2793,6.2793,6.2793,6.2793,6.2793,6.2793,6.2793,0.0,0.0,0.0,0.0,0.0,0.0,0.0,0.0,0.0,0.0,0.0,0.0,0.0,0.0,0.0,0.0,0.0,0.0,0.0,0.0,2.0197,2.1704,2.2334,2.2987,2.3712,2.5003,2.5668,2.5653,2.6557,2.6996,2.7014,2.7644,2.8006,2.8144,2.948,2.9644,2.8955,2.9544,2.8926,2.752,2.741,2.6945,2.6269,0.0,2.5272,2.5282,2.5618,2.768,3.0589,3.2905,3.5199,3.7494,3.9804,4.2608,4.5616,4.8562,5.0947,5.3078,5.5259,5.6499,5.7201,5.7135,5.6252,5.4928,5.3227,5.0599,4.7841,4.5432,4.3768,4.2499,4.1693,4.2797,4.435,4.5906,4.8148,5.0237,5.1824,5.3548,5.5168,5.6633,5.7547,5.8616,6.0064,6.0289,6.0927,6.2393,6.26,6.2652,6.2652,6.3886,6.4703,6.4872,6.6161,6.7117,6.77,6.77,6.77,6.77,6.77,6.6861,6.5307,6.5307,6.4389,6.2793,6.2793,6.2793,6.2793,6.2793,6.2793,6.2793,6.2793,6.2793,6.2793,6.2793,6.2793,6.2793,0.0,0.0,0.0,0.0,0.0,0.0,0.0,0.0,0.0,0.0,1.2364,0.0,0.0,0.0,0.0,0.0,0.0,0.0,0.0,0.0,0.0,2.0016,2.0874,2.1299,2.1231,2.2694,2.3396,2.3285,2.4705,2.5402,2.5402,2.554,2.5912,2.6515,2.6711,2.7067,2.7439,2.6837,2.6423,2.6077,2.5369,2.4823,2.4413,2.3961,0.0,0.0,2.5747,2.845,3.1444,3.4275,3.6727,3.9106,4.1935,4.4894,4.7904,5.0862,5.2892,5.4549,5.6173,5.7155,5.767,5.7343,5.6201,5.4506,5.201,4.9123,4.6152,4.3199,4.1383,4.0089,3.933,4.0451,4.1999,4.3552,4.6217,4.8858,5.0979,5.3668,5.5754,5.6684,5.7995,5.9185,6.0099,6.0754,6.1496,6.2428,6.3048,6.341,6.341,6.4165,6.514,6.6298,6.7117,6.7574,6.77,6.77,6.77,6.77,6.77,6.6861,6.5307,6.5307,6.4389,6.2793,6.2793,6.2793,6.2793,6.2793,6.2793,6.2793,6.2793,6.2793,6.2793,6.2793,6.2793,6.2793,0.0,0.0,0.0,0.0,0.0,0.0,0.0,0.0,0.0,0.0,1.2352,1.2585,0.0,0.0,0.0,0.0,0.0,0.0,0.0,0.0,0.0,0.0,0.0,0.0,2.0024,2.1061,2.1576,2.1503,0.0,2.3222,2.324,2.3602,2.3956,2.4336,2.4633,2.4726,2.4687,2.4455,2.4097,2.3681,2.3258,2.2894,2.2594,0.0,0.0,0.0,2.5486,2.8078,3.1021,3.3599,3.6485,3.9592,4.2963,4.6075,4.9054,5.2046,5.3991,5.5497,5.6968,5.779,5.7867,5.6491,5.5173,5.3361,5.0088,4.6993,4.397,4.0865,3.9002,3.7818,3.7467,3.8347,3.9894,4.2206,4.4453,4.6855,4.9531,5.2168,5.441,5.5995,5.7825,5.9584,6.1151,6.1924,6.2843,6.402,6.4441,6.4497,6.4147,6.5123,6.6158,6.7192,6.7533,6.77,6.77,6.77,6.77,6.77,6.77,6.6861,6.5307,6.5307,6.4389,6.2793,6.2793,6.2793,6.2793,6.2793,6.2793,6.2793,6.2793,6.2793,6.2793,6.2793,6.2793,6.2793,0.0,0.0,0.0,0.0,0.0,0.0,0.0,1.1955,1.2071,1.2148,1.2417,1.261,1.2634,1.2864,1.3004,0.0,0.0,0.0,0.0,0.0,0.0,0.0,0.0,0.0,1.9133,0.0,0.0,2.0029,2.083,0.0,0.0,0.0,0.0,0.0,2.2535,2.2414,2.1942,2.2272,2.2092,0.0,0.0,2.1485,2.1221,0.0,0.0,0.0,0.0,2.7273,2.998,3.2357,3.5436,3.8903,4.2503,4.5991,4.9357,5.2367,5.4177,5.5564,5.7073,5.7712,5.7482,5.5415,5.388,5.1847,4.8068,4.4734,4.1619,3.8709,3.6898,3.5818,3.5818,3.6661,3.8248,4.0984,4.3072,4.5414,4.8458,5.0758,5.2972,5.5255,5.7358,5.9473,6.1598,6.2703,6.3877,6.5235,6.5661,6.5609,6.509,6.61,6.7018,6.7687,6.77,6.77,6.77,6.77,6.77,6.77,6.7535,6.6678,6.5288,6.5123,6.4224,6.2793,6.2793,6.2793,6.2793,6.2793,6.2793,6.2793,6.2793,6.2793,6.2793,6.2793,6.2793,6.2793,0.0,0.0,0.0,0.0,0.0,0.0,0.0,1.1784,1.2023,1.2328,1.2516,1.2655,1.2766,1.2906,1.3004,0.0,0.0,0.0,0.0,0.0,0.0,0.0,0.0,0.0,0.0,0.0,0.0,1.8857,1.9656,0.0,0.0,0.0,0.0,0.0,0.0,1.9876,2.0063,2.0413,0.0,0.0,0.0,0.0,0.0,0.0,0.0,0.0,0.0,2.6386,2.8466,3.1403,3.3975,3.6445,3.9551,4.3964,4.858,5.1539,5.3027,5.4059,5.5722,5.6199,5.5911,5.4607,5.2648,5.0083,4.6425,4.2704,3.9353,3.6991,3.5328,3.4293,3.4293,3.5755,3.7507,3.9263,4.2319,4.5582,4.8708,5.0717,5.2704,5.5049,5.6798,5.8455,6.0072,6.2082,6.3647,6.4452,6.5808,6.6571,6.6497,6.6633,6.7018,6.7687,6.77,6.77,6.77,6.77,6.77,6.77,6.6966,6.6145,6.527,6.453,6.3686,6.2793,6.2793,6.2793,6.2793,6.2793,6.2793,6.2793,6.2793,6.2793,6.2793,6.2793,6.2793,6.2793,0.0,0.0,0.0,0.0,0.0,0.0,0.0,1.2044,1.2287,1.2394,1.2585,1.2747,1.2785,1.2857,1.2885,0.0,0.0,0.0,0.0,0.0,0.0,0.0,0.0,0.0,0.0,0.0,1.8094,1.8047,1.8718,0.0,0.0,0.0,0.0,0.0,0.0,1.9378,1.9557,1.9396,0.0,0.0,0.0,0.0,0.0,0.0,0.0,0.0,0.0,0.0,2.7122,2.8978,3.1376,3.3981,3.6079,3.9411,4.3487,4.8242,5.0507,5.1824,5.3514,5.4362,5.4375,5.2601,5.0854,4.8635,4.4928,4.1469,3.8387,3.6111,3.4421,3.3369,3.3369,3.4574,3.6086,3.7612,4.0418,4.3315,4.6002,4.8606,5.1268,5.4064,5.6564,5.8882,6.0944,6.2743,6.4306,6.5563,6.6676,6.729,6.729,6.729,6.7419,6.7687,6.77,6.77,6.77,6.77,6.7462,6.6971,6.6641,6.5815,6.4567,6.4249,6.3613,6.2793,6.2793,6.2793,6.2793,6.2793,6.2793,6.2793,6.2793,6.2793,6.2793,6.2793,6.2793,6.2793,0.0,0.0,0.0,0.0,0.0,0.0,1.196,1.2277,1.2499,1.2512,1.2687,1.2806,1.2806,1.2761,1.2757,1.2806,0.0,0.0,0.0,0.0,0.0,0.0,0.0,0.0,0.0,0.0,1.7419,1.7361,1.7788,1.801,0.0,0.0,1.8565,1.8656,0.0,0.0,0.0,0.0,0.0,0.0,0.0,0.0,0.0,0.0,0.0,0.0,0.0,0.0,0.0,0.0,0.0,3.1268,3.2983,3.5284,3.8514,4.4488,4.7475,4.9228,5.0894,5.2021,5.228,5.036,4.867,4.6544,4.297,3.9779,3.7019,3.4938,3.3473,3.2576,3.2576,3.363,3.4986,3.6513,3.9157,4.1937,4.4554,4.7306,5.0205,5.3343,5.6026,5.8572,6.0986,6.3176,6.5026,6.6402,6.726,6.77,6.77,6.748,6.7462,6.77,6.748,6.7352,6.7352,6.7113,6.6714,6.6145,6.5907,6.5204,6.4103,6.3833,6.3392,6.2793,6.2793,6.2793,6.2793,6.2793,6.2793,6.2793,6.2793,6.2793,6.2793,6.2793,6.2793,6.2793,0.0,0.0,0.0,0.0,0.0,0.0,0.0,1.2368,1.2573,1.2773,1.2806,1.2806,1.2806,1.2684,1.2665,1.278,0.0,0.0,0.0,0.0,0.0,0.0,0.0,0.0,0.0,0.0,1.701,1.6809,1.6809,1.6847,1.6907,1.6577,1.6539,1.6705,0.0,0.0,0.0,0.0,0.0,0.0,0.0,0.0,0.0,0.0,0.0,0.0,0.0,0.0,0.0,0.0,0.0,0.0,0.0,3.2256,3.463,4.0608,4.4071,4.6317,4.7992,4.9076,4.9428,4.8075,4.6027,4.3552,4.044,3.7398,3.4811,3.3248,3.2334,3.18,3.18,3.302,3.4541,3.6138,3.9053,4.2233,4.5434,4.7519,4.9908,5.3116,5.4997,5.6972,5.9387,6.3048,6.5618,6.6439,6.726,6.77,6.77,6.6953,6.688,6.7664,6.6916,6.6512,6.6512,6.5723,6.5325,6.5307,6.4512,6.4121,6.4066,6.3196,6.2811,6.2793,6.2793,6.2793,6.2793,6.2793,6.2793,6.2793,6.2793,6.2793,6.2793,6.2793,6.2793,6.2793,0.0,0.0,0.0,0.0,0.0,0.0,0.0,1.2609,1.273,1.2796,1.2806,1.2806,1.2806,1.2679,1.2615,1.2665,0.0,0.0,0.0,0.0,0.0,0.0,0.0,0.0,0.0,0.0,1.6863,1.6796,1.7083,1.7223,1.7251,1.7508,1.7426,1.7034,1.6928,1.6681,0.0,0.0,0.0,0.0,0.0,0.0,1.9299,0.0,0.0,0.0,0.0,0.0,0.0,0.0,0.0,0.0,0.0,0.0,0.0,3.3857,3.7848,4.1678,4.324,4.4338,4.4837,4.3907,4.2396,4.0641,3.864,3.6242,3.4017,3.2472,3.1955,3.1645,3.1136,3.2659,3.4271,3.5102,3.8068,4.1129,4.3506,4.6499,4.9645,5.2904,5.6684,5.9512,6.0846,6.3102,6.4585,6.4842,6.5613,6.6054,6.6054,6.5815,6.6054,6.6843,6.6109,6.5674,6.5674,6.5417,6.5026,6.4475,6.4231,6.3778,6.3209,6.2921,6.2793,6.2793,6.2793,6.2793,6.2793,6.2793,6.2793,6.2793,6.2793,6.2793,6.2793,6.2793,6.2793,6.2793,0.0,0.0,0.0,0.0,0.0,0.0,0.0,1.2708,1.2806,1.2806,1.2806,1.2806,1.2806,1.2679,1.2601,1.2601,0.0,0.0,0.0,0.0,0.0,0.0,0.0,0.0,0.0,1.6751,1.6813,1.7022,1.7277,1.7507,1.7704,1.8038,1.7984,1.7577,1.7316,1.697,0.0,0.0,0.0,0.0,0.0,0.0,1.8903,0.0,0.0,0.0,0.0,0.0,0.0,0.0,0.0,0.0,0.0,0.0,0.0,0.0,3.271,3.6321,3.8743,4.0292,4.1062,4.0285,3.9244,3.7939,3.6173,3.4448,3.2792,3.1248,3.1162,3.1231,3.0774,3.2152,3.3659,3.4542,3.712,3.9916,4.2531,4.5893,4.9568,5.3625,5.7831,6.0603,6.1098,6.2934,6.4103,6.4103,6.4861,6.5307,6.5307,6.5007,6.5081,6.5576,6.5118,6.4861,6.4861,6.4517,6.4114,6.3613,6.3613,6.3337,6.2793,6.2793,6.2793,6.2793,6.2793,6.2793,0.0,6.2793,6.2793,6.2793,6.2793,6.2793,6.2793,6.2793,6.2793,6.2793,0.0,0.0,0.0,0.0,0.0,0.0,0.0,0.0,0.0,0.0,1.2806,1.2806,1.2806,1.2679,1.2591,0.0,0.0,0.0,0.0,0.0,0.0,0.0,0.0,0.0,0.0,1.6656,1.6855,1.7396,1.7435,1.7743,1.8284,1.833,1.8322,1.8253,1.7577,1.7224,0.0,0.0,0.0,0.0,0.0,0.0,0.0,0.0,0.0,0.0,0.0,0.0,0.0,0.0,0.0,0.0,0.0,0.0,0.0,0.0,0.0,0.0,0.0,3.66,3.7829,3.7069,3.6388,3.5352,3.3204,3.2162,0.0,2.9722,3.0093,3.0688,3.0636,3.1577,3.288,3.4407,3.6326,3.886,4.2366,4.5878,4.996,5.499,5.8437,6.0401,6.0401,6.2585,6.4011,6.4011,6.4695,6.5123,6.5123,6.4402,6.4011,6.4011,6.4011,6.4011,6.4011,6.3171,6.2755,6.2793,6.2755,6.2755,6.2793,6.2793,6.2768,6.273,6.273,6.273,6.273,6.273,6.2755,6.2793,6.2793,6.2793,6.2793,6.2793,6.2793,6.2793,0.0,0.0,0.0,0.0,0.0,0.0,0.0,0.0,0.0,0.0,1.2806,1.2806,1.2806,1.2679,1.2519,0.0,0.0,0.0,0.0,0.0,0.0,0.0,0.0,0.0,0.0,1.6457,1.6759,1.7396,1.7813,1.8369,1.9047,1.9578,1.9532,1.9017,1.8292,1.737,0.0,0.0,0.0,0.0,0.0,0.0,0.0,0.0,0.0,0.0,1.9803,2.0032,0.0,0.0,0.0,0.0,0.0,0.0,0.0,0.0,2.6352,2.7724,2.8622,0.0,3.3223,3.2866,3.2404,3.186,0.0,3.0531,2.9782,2.8851,2.9748,3.0515,2.9903,3.162,3.3386,3.4118,3.6843,3.9707,4.2103,4.7912,5.2825,5.5317,5.8437,6.0401,6.0401,6.204,6.3105,6.3105,6.3288,6.3398,6.3398,6.3215,6.3105,6.3105,6.3105,6.3105,6.3105,6.2438,6.2347,6.2793,6.2334,6.236,6.2793,6.2793,6.2547,6.2117,6.2117,6.2117,6.2117,6.2117,6.2386,6.2793,6.2793,6.2793,6.2793,6.2793,6.2793,6.2793,0.0,0.0,0.0,0.0,0.0,0.0,0.0,0.0,0.0,0.0,0.0,0.0,0.0,0.0,0.0,0.0,0.0,0.0,0.0,0.0,0.0,0.0,0.0,0.0,1.6389,1.6647,1.7101,1.7774,1.84,1.9062,1.9765,2.0135,2.0111,1.971,1.8668,1.757,0.0,0.0,0.0,0.0,1.7206,0.0,0.0,0.0,0.0,0.0,1.9708,1.9836,0.0,2.01,2.0664,2.1395,0.0,0.0,0.0,0.0,2.4795,2.5752,2.6099,2.8304,3.0485,3.0365,3.0231,2.9997,2.9575,2.9498,2.9291,2.8558,2.9636,3.0671,3.0575,3.1999,3.3608,3.4893,3.7291,4.0399,4.4435,4.974,5.3801,5.542,5.8437,6.0401,6.0401,6.1857,6.2793,6.2793,6.2793,6.2793,6.2793,6.2793,6.2627,6.2273,6.2011,6.2034,6.2386,6.2059,6.2059,6.2386,6.2064,6.2059,6.2386,6.2047,6.1696,6.1322,6.1005,6.0988,6.1209,6.1209,6.1393,6.1692,6.1692,6.1912,6.2254,6.2254,6.2481,6.2793,0.0,0.0,0.0,0.0,0.0,0.0,0.0,0.0,0.0,0.0,0.0,0.0,0.0,0.0,0.0,0.0,0.0,0.0,0.0,0.0,0.0,0.0,0.0,1.6398,1.6371,1.692,1.7531,1.8199,1.8947,1.9641,2.0296,2.0296,2.0249,2.0095,1.8776,1.7746,0.0,0.0,1.598,1.6039,1.722,0.0,0.0,0.0,0.0,0.0,0.0,0.0,0.0,1.9904,2.0455,2.1118,2.1181,0.0,0.0,0.0,0.0,0.0,2.5236,2.6962,2.8626,2.8847,2.9057,2.9051,2.8545,2.8965,2.9308,2.8688,2.9799,3.1067,3.1679,3.2697,3.4093,3.6146,3.8282,4.1735,4.7588,5.1279,5.394,5.542,5.8239,6.017,6.037,6.1667,6.2576,6.278,6.2793,6.2756,6.2627,6.2609,6.2254,6.1429,6.098,6.0984,6.1534,6.1453,6.1394,6.1407,6.1394,6.1394,6.1389,6.0864,6.053,6.0354,5.9824,5.9832,6.0262,6.0237,6.0292,6.0365,6.0365,6.0787,6.1386,6.141,6.1924,6.2627,0.0,0.0,0.0,0.0,0.0,0.0,0.0,0.0,0.0,0.0,0.0,0.0,0.0,0.0,0.0,0.0,0.0,0.0,0.0,0.0,0.0,0.0,1.5809,1.635,1.6236,1.6869,1.7531,1.8199,1.8947,1.9641,2.0296,2.0296,1.9996,1.9425,1.8576,1.7746,1.6961,1.6285,1.6215,1.6637,1.7384,0.0,0.0,0.0,0.0,0.0,0.0,0.0,0.0,2.0352,2.0747,2.1165,2.1569,0.0,0.0,0.0,0.0,0.0,2.4474,2.5388,2.6437,2.7681,2.8151,2.8425,2.8867,2.9203,2.9377,2.9274,3.0513,3.1662,3.1783,3.3973,3.6111,3.7139,4.1481,4.58,4.8936,5.2161,5.4564,5.5493,5.7382,5.9082,6.0279,6.0841,6.1584,6.2713,6.2793,6.2499,6.1814,6.1777,6.141,6.0621,6.0512,6.0259,5.9873,5.9364,5.9141,5.9183,5.9141,5.9141,5.9211,5.9605,5.9466,5.8944,5.9335,5.9551,5.9629,5.9511,5.9763,6.0225,6.0225,6.0317,6.0439,6.0536,6.1098,6.1887,0.0,0.0,0.0,0.0,0.0,0.0,0.0,0.0,0.0,0.0,0.0,0.0,0.0,0.0,0.0,0.0,0.0,0.0,0.0,0.0,0.0,1.5156,1.5646,1.6121,1.6566,1.7243,1.7983,1.8792,1.9494,1.9996,2.0296,2.0296,2.015,1.9811,1.9116,1.8535,1.8048,1.7372,1.7136,1.7294,0.0,0.0,0.0,0.0,0.0,0.0,0.0,0.0,0.0,0.0,2.0991,2.1524,2.1729,0.0,0.0,0.0,0.0,0.0,2.4186,2.4745,2.5566,2.7875,2.8252,2.8356,2.9524,3.0204,3.0724,3.12,3.2547,3.3749,3.4162,3.6042,3.844,4.1167,4.4329,4.7531,5.066,5.3013,5.4858,5.6106,5.775,5.8908,5.923,6.007,6.0721,6.1053,6.1342,6.1343,6.097,6.0951,6.0584,5.9783,5.9438,5.891,5.8208,5.7929,5.8242,5.9132,5.9101,5.9101,5.9128,5.898,5.8689,5.8317,5.8154,5.8239,5.8478,5.8415,5.859,5.8889,5.8889,5.92,5.9718,6.0127,6.053,6.0964,0.0,0.0,0.0,0.0,0.0,0.0,0.0,0.0,0.0,0.0,0.0,0.0,0.0,0.0,0.0,0.0,0.0,0.0,0.0,0.0,1.4725,1.5396,1.5463,1.5943,1.6879,1.7566,1.8353,1.931,1.998,2.0296,2.0296,2.0296,2.0296,2.0265,1.957,1.917,1.895,1.8145,1.786,1.7974,0.0,0.0,0.0,0.0,0.0,0.0,0.0,0.0,0.0,0.0,0.0,0.0,0.0,0.0,0.0,2.2296,2.2296,2.2624,2.4101,2.4626,2.5439,2.8282,2.8733,2.8915,3.0523,3.1648,3.2537,3.325,3.4622,3.5925,3.6697,3.8537,4.1163,4.4935,4.6801,4.893,5.2146,5.3789,5.5207,5.6627,5.7935,5.8598,5.8339,5.9284,5.9821,5.9613,6.009,6.0327,6.0132,6.0114,5.9747,5.8939,5.8458,5.792,5.7321,5.7309,5.78,5.8748,5.8885,5.8858,5.8695,5.8208,5.7893,5.7754,5.7278,5.7265,5.7601,5.7577,5.7613,5.7709,5.7733,5.8223,5.9001,5.9712,5.9981,6.0091,0.0,0.0,0.0,0.0,0.0,0.0,0.0,0.0,0.0,0.0,0.0,0.0,0.0,0.0,0.0,0.0,0.0,0.0,0.0,0.0,1.5157,1.5215,1.5403,1.5943,1.6879,1.7566,1.8353,1.931,1.998,2.0296,2.0296,2.0296,2.0296,2.0265,1.9471,1.9072,1.8916,1.7752,1.7792,1.8608,1.827,0.0,0.0,0.0,0.0,0.0,0.0,0.0,0.0,0.0,0.0,0.0,0.0,0.0,2.2296,2.2296,2.2296,2.2624,2.4101,2.5008,2.6082,2.8417,2.9474,3.0366,3.1978,3.3458,3.4572,3.4874,3.6124,3.7417,3.829,4.1417,4.4538,4.6533,4.8716,5.085,5.286,5.4517,5.5842,5.6701,5.7079,5.7534,5.8228,5.838,5.8774,5.9532,6.009,6.0059,5.9325,5.9288,5.8921,5.8107,5.8035,5.7987,5.795,5.795,5.7455,5.655,5.7036,5.695,5.6352,5.6804,5.6938,5.6821,5.7326,5.7577,5.7601,5.7467,5.7412,5.7443,5.7565,5.7805,5.818,5.8982,5.9276,5.9386,0.0,0.0,0.0,0.0,0.0,0.0,0.0,0.0,0.0,0.0,0.0,0.0,0.0,0.0,0.0,0.0,0.0,0.0,0.0,0.0,1.5025,1.5199,1.5276,1.6068,1.7677,1.7834,1.8566,1.9919,2.0181,2.0296,2.0296,2.0296,2.0296,2.0263,1.9632,1.9448,1.9576,1.8785,1.8779,1.9316,1.9165,1.934,0.0,0.0,0.0,0.0,0.0,0.0,0.0,0.0,2.1439,2.1691,2.2159,2.2012,2.1751,2.218,2.2152,2.2359,2.4031,2.5041,2.626,2.8991,3.0937,3.2456,3.3614,3.4644,3.5855,3.75,3.8677,3.996,4.1807,4.3972,4.614,4.8122,5.0239,5.2353,5.4397,5.5647,5.6638,5.7446,5.7602,5.7497,5.7105,5.7713,5.797,5.759,5.8403,5.8767,5.8474,5.8455,5.8309,5.7997,5.7997,5.7997,5.7997,5.7997,5.7774,5.7364,5.7565,5.748,5.717,5.737,5.7345,5.7158,5.7375,5.7443,5.7356,5.7307,5.7313,5.7412,5.7637,5.778,5.7899,5.8229,5.8338,5.8448,0.0,0.0,0.0,0.0,0.0,0.0,0.0,0.0,0.0,0.0,0.0,0.0,0.0,0.0,0.0,0.0,0.0,0.0,1.478,1.48,1.4925,1.5199,1.5261,1.6217,1.8161,1.8121,1.886,2.0467,2.0383,2.0347,2.0296,2.0296,2.0278,2.0211,1.9833,1.9699,1.9717,1.9203,1.9184,1.9493,1.9374,1.9484,0.0,0.0,0.0,0.0,0.0,0.0,0.0,0.0,2.1378,2.1555,2.2005,2.1751,2.1416,2.1983,2.1983,2.2202,2.4008,2.5211,2.6615,2.9405,3.1952,3.4087,3.5411,3.6463,3.7658,3.9451,4.1055,4.2721,4.4669,4.6122,4.7598,4.9364,5.1275,5.3251,5.5306,5.629,5.7097,5.7905,5.7997,5.7613,5.6652,5.7259,5.7401,5.6612,5.7271,5.7797,5.7997,5.7809,5.7726,5.7726,5.7726,5.7726,5.7726,5.7897,5.8058,5.8198,5.8171,5.8092,5.7948,5.7768,5.7631,5.754,5.74,5.7276,5.7188,5.7188,5.7276,5.7412,5.7649,5.7756,5.7822,5.7857,5.7851,5.7942,0.0,0.0,0.0,0.0,0.0,0.0,0.0,0.0,0.0,0.0,0.0,0.0,0.0,0.0,0.0,0.0,0.0,0.0,1.48,1.48,1.4925,1.5199,1.5388,1.6353,1.8168,1.8423,1.9272,2.0802,2.0603,2.0426,2.0296,2.0296,2.022,2.0107,2.0025,1.9708,1.9169,1.8703,1.8745,1.9073,1.8678,1.9025,1.9797,0.0,0.0,0.0,0.0,0.0,0.0,0.0,2.1071,2.0925,2.1593,2.1562,2.137,2.1706,2.1812,2.2195,2.4008,2.5591,2.7249,2.954,3.2324,3.5098,3.7398,3.906,4.0172,4.048,4.3044,4.5505,4.6448,4.782,4.9159,5.0227,5.1763,5.3457,5.5323,5.6271,5.7079,5.7886,5.7978,5.7743,5.7135,5.7085,5.7085,5.7085,5.7085,5.734,5.7944,5.7419,5.7103,5.7103,5.7103,5.7103,5.7103,5.7696,5.822,5.8597,5.8537,5.8428,5.8297,5.7672,5.7589,5.787,5.7406,5.7188,5.7188,5.7188,5.7276,5.74,5.7553,5.7685,5.7815,5.795,5.7997,5.7997,0.0,0.0,0.0,0.0,0.0,0.0,0.0,0.0,0.0,0.0,0.0,0.0,0.0,0.0,0.0,0.0,0.0,0.0,1.48,1.48,1.4972,1.5388,1.5477,1.648,1.8581,1.9843,2.052,2.0595,2.0536,2.0426,2.0296,2.0296,2.022,2.0074,1.9729,1.9593,1.9593,1.9115,1.9152,1.9517,1.9393,1.9521,1.9806,0.0,0.0,0.0,0.0,0.0,0.0,0.0,0.0,0.0,2.1947,2.1602,2.1111,2.1908,2.2349,2.2857,2.416,2.5964,2.8019,3.0311,3.3091,3.5864,3.8159,3.9411,4.0769,4.3166,4.534,4.6935,4.7314,4.8776,5.0027,5.0351,5.2388,5.4127,5.4679,5.5445,5.6033,5.6282,5.6319,5.6061,5.5474,5.5462,5.5462,5.5425,5.5975,5.6369,5.6515,5.6883,5.6938,5.6559,5.6894,5.7103,5.7103,5.7989,5.8479,5.8597,5.8772,5.8802,5.87,5.8142,5.79,5.787,5.7406,5.7188,5.7188,5.7188,5.7276,5.74,5.7437,5.7541,5.7661,5.7709,5.7721,5.7733,0.0,0.0,0.0,0.0,0.0,0.0,0.0,0.0,0.0,0.0,0.0,0.0,0.0,0.0,0.0,0.0,0.0,0.0,0.0,0.0,1.5118,1.5477,1.5602,1.6613,1.8641,2.0009,2.0639,2.0502,2.0586,2.0502,2.0296,2.0296,2.0218,2.0045,1.9756,1.9584,1.9499,1.9223,1.9241,1.9463,1.9463,1.9636,1.9893,0.0,0.0,0.0,0.0,0.0,0.0,0.0,0.0,0.0,2.1729,2.1486,2.1151,2.1879,2.2484,2.319,2.4574,2.6573,2.889,3.1444,3.41,3.6823,3.9665,4.1167,4.2726,4.5374,4.6984,4.8086,4.852,4.9678,5.0619,5.0832,5.2675,5.4155,5.4378,5.5089,5.5603,5.5603,5.5411,5.5135,5.478,5.4369,5.4306,5.4719,5.4994,5.5339,5.5757,5.5816,5.5916,5.6123,5.6258,5.6557,5.7085,5.8098,5.8689,5.8832,5.8794,5.8807,5.8925,5.8513,5.8278,5.8135,5.7474,5.7188,5.7188,5.7188,5.7257,5.7332,5.7375,5.7455,5.7541,5.7589,5.7601,5.7613,0.0,0.0,0.0,0.0,0.0,0.0,0.0,0.0,0.0,0.0,0.0,0.0,0.0,0.0,0.0,0.0,0.0,0.0,0.0,0.0,1.5291,1.5485,1.5844,1.6806,1.8438,1.9342,2.0027,2.0477,2.0678,2.0611,2.0296,2.0296,2.0192,2.0014,2.0014,1.969,1.9157,1.9157,1.9157,1.9157,1.9157,1.9499,2.0005,2.0014,0.0,0.0,0.0,0.0,0.0,0.0,0.0,0.0,2.1245,2.1354,2.1416,2.1744,2.2412,2.3412,2.5123,2.73,2.9779,3.2669,3.5318,3.8103,4.1521,4.3657,4.5369,4.6957,4.8043,4.8976,4.9899,5.0509,5.1039,5.1594,5.2738,5.3727,5.4206,5.4924,5.5383,5.5383,5.4957,5.464,5.4592,5.3636,5.3482,5.4502,5.4132,5.4323,5.5364,5.4457,5.4458,5.5677,5.5245,5.5599,5.6868,5.791,5.8608,5.8971,5.8521,5.8496,5.8837,5.8596,5.8409,5.8228,5.7363,5.7025,5.708,5.708,5.7134,5.7201,5.7326,5.7375,5.7406,5.7528,5.7547,5.7565,0.0,0.0,0.0,0.0,0.0,0.0,0.0,0.0,0.0,0.0,0.0,0.0,0.0,0.0,0.0,0.0,0.0,0.0,0.0,0.0,1.5291,1.5485,1.6564,1.7502,1.8254,1.9272,1.9979,2.0347,2.0485,2.0468,2.0296,2.0296,2.0226,2.008,2.008,1.9922,1.9654,1.9654,1.9626,1.9581,1.9636,1.9795,2.0014,2.0054,2.0168,0.0,0.0,0.0,0.0,0.0,0.0,0.0,2.1593,2.1691,2.1751,2.2085,2.3111,2.438,2.5331,2.768,3.042,3.2804,3.6845,4.0612,4.1995,4.4143,4.6091,4.7105,4.8454,4.9691,5.0471,5.1066,5.1601,5.2144,5.2822,5.3327,5.3442,5.3599,5.371,5.371,5.3605,5.339,5.2949,5.2696,5.2648,5.2903,5.3381,5.3749,5.3944,5.3927,5.4,5.4239,5.4192,5.4502,5.5214,5.6469,5.7153,5.7244,5.7435,5.7546,5.7577,5.7115,5.6484,5.5768,5.5523,5.5721,5.6259,5.6259,5.6639,5.7201,5.7226,5.7239,5.7257,5.7282,5.7294,5.7289,0.0,0.0,0.0,0.0,0.0,0.0,0.0,0.0,0.0,0.0,0.0,0.0,0.0,0.0,0.0,0.0,0.0,0.0,0.0,0.0,0.0,1.5827,1.6503,1.728,1.8184,1.8742,1.9449,2.0296,2.0366,2.0373,2.0296,2.0296,2.022,2.0091,2.0091,2.0028,1.9902,1.9902,1.9884,1.9857,1.9884,1.9964,2.0061,2.0089,2.0176,2.0296,2.0296,0.0,0.0,0.0,0.0,0.0,0.0,0.0,2.1864,2.2194,2.3342,2.466,2.5406,2.7799,3.0893,3.4201,3.7884,4.1036,4.2454,4.4225,4.5939,4.7269,4.8673,4.9882,5.0651,5.1455,5.2072,5.2361,5.2857,5.3196,5.3196,5.3196,5.3196,5.3196,5.2966,5.2608,5.2072,5.2024,5.1915,5.1638,5.2498,5.3012,5.2988,5.3111,5.3452,5.4068,5.3873,5.4188,5.5123,5.6024,5.6463,5.6463,5.6454,5.6126,5.5548,5.5966,5.5857,5.5325,5.5049,5.5154,5.5468,5.5468,5.5921,5.6639,5.6639,5.6862,5.7188,5.7188,5.7188,5.7219,0.0,0.0,0.0,0.0,0.0,0.0,0.0,0.0,0.0,0.0,0.0,0.0,0.0,0.0,0.0,0.0,0.0,0.0,0.0,0.0,0.0,1.618,1.6309,1.6947,1.8168,1.8315,1.9015,2.0296,2.0296,2.0296,2.0296,2.0296,2.0244,2.0133,2.0133,2.008,2.0005,2.0014,1.999,1.9979,1.9999,2.0061,2.0091,2.0133,2.0194,2.0296,2.0296,2.0296,2.0296,2.0296,0.0,0.0,0.0,0.0,2.1773,2.2123,2.3167,2.4429,2.5356,2.8086,3.163,3.5622,3.8448,4.0684,4.2425,4.4,4.5542,4.7152,4.8501,4.9649,5.0514,5.1393,5.2021,5.2112,5.251,5.2792,5.2792,5.2792,5.2792,5.2792,5.2393,5.1876,5.124,5.1339,5.1171,5.0453,5.1393,5.1991,5.1991,5.2037,5.2654,5.3948,5.3597,5.3968,5.517,5.5581,5.5773,5.5764,5.5379,5.4558,5.3456,5.4675,5.5223,5.5213,5.4768,5.4627,5.4713,5.4689,5.5124,5.5824,5.5976,5.6434,5.702,5.7159,5.7226,5.7226,0.0,0.0,0.0,0.0,0.0,0.0,0.0,0.0,0.0,0.0,0.0,0.0,0.0,0.0,0.0,0.0,0.0,0.0,1.4319,0.0,0.0,1.6173,1.6763,1.7416,1.8184,1.8831,1.9525,2.0296,2.0296,2.0296,2.0296,2.0296,2.0287,2.027,2.027,2.0166,1.999,2.0054,1.9993,1.9833,2.0019,2.0098,2.01,2.022,2.0278,2.0296,2.0296,2.0296,2.0296,2.0296,2.051,0.0,0.0,0.0,2.1432,2.1766,2.2452,2.3478,2.5148,2.9202,3.3444,3.5439,3.8374,4.0819,4.0859,4.3241,4.5564,4.6049,4.7439,4.8882,4.9921,5.022,5.0471,5.0931,5.1073,5.1132,5.1132,5.1132,5.1132,5.1132,5.1053,5.0623,4.9627,5.0358,5.0321,4.8913,4.9763,5.0322,5.0322,5.0532,5.1169,5.2286,5.2476,5.2872,5.3508,5.3858,5.4026,5.4026,5.3972,5.3344,5.2234,5.2434,5.2829,5.3342,5.3041,5.3306,5.3937,5.3874,5.4327,5.5118,5.5874,5.6176,5.6271,5.7072,5.7363,5.7363,0.0,0.0,0.0,0.0,0.0,0.0,0.0,0.0,0.0,0.0,0.0,0.0,0.0,0.0,0.0,1.3886,1.3964,1.4238,1.4827,1.5149,1.5573,1.6173,1.684,1.7501,1.8137,1.8892,1.9592,2.0185,2.0261,2.0296,2.0296,2.0296,2.0296,2.0296,2.0296,2.0244,2.0166,2.0209,2.015,2.0096,2.0183,2.0202,2.0211,2.0278,2.0296,2.0296,2.0296,2.0296,2.0296,2.0296,2.0407,2.0544,2.0745,0.0,0.0,0.0,2.2325,2.3405,2.5694,2.8921,3.2096,3.4119,3.6394,3.8648,4.0568,4.2113,4.3622,4.5236,4.6117,4.7209,4.9188,5.0039,5.0438,5.0359,5.0594,5.0802,5.0802,5.0802,5.0802,5.0802,5.0802,5.049,4.9712,5.0346,5.0145,4.8566,4.9411,4.9744,4.9192,4.981,5.0387,5.087,5.1285,5.1621,5.1856,5.1994,5.2075,5.2075,5.2075,5.1614,5.0765,5.0765,5.1296,5.2207,5.208,5.2458,5.3135,5.3096,5.3563,5.4337,5.4782,5.5158,5.5499,5.5994,5.6121,5.6116,0.0,0.0,0.0,0.0,0.0,0.0,0.0,0.0,0.0,0.0,0.0,0.0,0.0,0.0,0.0,0.0,1.3944,1.4294,1.5142,1.5195,1.5566,1.6362,1.7049,1.77,1.8342,1.9112,1.9755,2.0273,2.0375,2.0433,2.0433,2.0433,2.0381,2.0296,2.0296,2.0278,2.0252,2.0287,2.0278,2.0252,2.0287,2.0296,2.0296,2.0296,2.0296,2.0296,2.0296,2.0296,2.0296,2.0296,2.0296,2.0347,2.0586,2.067,0.0,0.0,0.0,2.3462,2.5929,2.8091,3.0229,3.2576,3.4408,3.6418,3.941,4.0563,4.1655,4.4036,4.4742,4.5585,4.7779,4.9095,4.9763,4.9444,4.9648,4.9856,4.9856,4.9673,4.9554,4.9554,4.9465,4.9226,4.879,4.9003,4.8605,4.7262,4.8099,4.8411,4.7803,4.8886,4.964,4.9886,5.0474,5.0802,5.0802,5.0802,5.0723,5.0602,5.0563,5.0115,4.9325,4.9273,4.9814,5.0758,5.0976,5.147,5.215,5.2266,5.2772,5.3529,5.3902,5.4294,5.4717,5.5082,5.5131,5.5086,0.0,0.0,0.0,0.0,0.0,0.0,0.0,0.0,0.0,0.0,0.0,0.0,1.4477,1.4345,1.4276,1.4276,1.3982,1.4133,1.4868,1.4914,1.5531,1.6894,1.7607,0.0,1.9022,1.9718,2.0294,2.0761,2.0769,2.0769,2.0769,2.0769,2.0603,2.0296,2.0296,2.022,2.0124,2.0252,2.022,2.0124,2.0252,2.0296,2.0296,2.0296,2.0296,2.0296,2.0296,2.0296,2.0296,2.0296,2.0296,2.0296,2.0321,2.033,2.0399,0.0,0.0,0.0,2.5252,2.6959,2.8767,3.1124,3.316,3.4928,3.6267,3.838,4.0521,4.2141,4.3358,4.4406,4.5239,4.645,4.7392,4.7674,4.7474,4.7296,4.7296,4.6627,4.614,4.614,4.5821,4.5536,4.5356,4.4971,4.4451,4.3793,4.4572,4.527,4.5723,4.7301,4.864,4.9588,5.0388,5.0802,5.0802,5.0802,5.0542,5.0029,4.9912,4.9212,4.7998,4.7861,4.8051,4.8512,4.9277,5.0101,5.0931,5.1366,5.1991,5.2758,5.3784,5.4007,5.3874,5.4846,5.5131,5.5014,0.0,0.0,0.0,0.0,0.0,0.0,0.0,0.0,0.0,0.0,0.0,0.0,0.0,1.5865,1.5837,1.5837,1.5726,1.5873,1.6409,1.6442,1.68,1.7606,1.8323,1.8812,1.903,2.0027,2.0587,2.0679,2.0966,2.1119,2.1119,2.1119,2.1055,2.0918,2.0494,2.027,2.022,2.0278,2.027,2.022,2.0278,2.0296,2.0342,2.0773,2.0943,2.1004,2.1427,2.1581,2.1581,2.1581,2.1304,2.0943,2.0943,2.065,2.0424,2.1015,2.2203,2.3588,2.4842,2.6294,2.7919,2.979,3.1528,3.3134,3.4565,3.6743,3.875,3.9785,4.1144,4.2476,4.347,4.5111,4.6276,4.6102,4.6206,4.6333,4.6333,4.6085,4.5792,4.5547,4.5316,4.5138,4.5095,4.4867,4.4636,4.4411,4.4499,4.4499,4.439,4.5269,4.6193,4.706,4.7959,4.8663,4.9177,4.9205,4.896,4.8463,4.8309,4.7648,4.6477,4.634,4.6315,4.6408,4.7034,4.8536,5.0598,5.1293,5.1763,5.2185,5.317,5.3372,5.3185,5.3627,5.3651,5.3535,0.0,0.0,0.0,0.0,0.0,0.0,0.0,0.0,0.0,0.0,0.0,0.0,0.0,0.0,1.6818,1.6714,1.6706,1.6861,1.724,1.7265,1.7566,1.8207,1.8746,1.9128,1.9338,2.0252,2.077,2.0829,2.1269,2.1462,2.147,2.1493,2.1447,2.1315,2.0885,2.0628,2.0475,2.0475,2.0407,2.0326,2.0542,2.0635,2.0712,2.1381,2.1642,2.1679,2.2141,2.2295,2.2295,2.2295,2.2003,2.1596,2.1365,2.0932,2.0621,2.1276,2.2217,2.3243,2.4237,2.5426,2.678,2.8369,2.9782,3.1271,3.3075,3.4772,3.6362,3.7811,3.915,4.0449,4.1614,4.3185,4.4492,4.5103,4.5367,4.5498,4.5498,4.5259,4.4931,4.4487,4.4205,4.4025,4.3978,4.3586,4.3401,4.3524,4.3483,4.3401,4.326,4.3917,4.4691,4.5541,4.6302,4.6957,4.7489,4.7612,4.7405,4.6888,4.6847,4.6335,4.5403,4.542,4.5485,4.5614,4.614,4.7657,4.9774,5.0499,5.1192,5.1864,5.2488,5.2729,5.2732,5.2839,5.2739,5.2643,0.0,0.0,0.0,0.0,0.0,0.0,0.0,0.0,0.0,1.7685,0.0,0.0,0.0,0.0,0.0,1.6823,1.6797,1.6927,1.7256,1.7282,1.7718,1.8685,1.8867,1.9278,1.999,2.041,2.0837,2.1308,2.1646,2.182,2.1827,2.1884,2.1735,2.144,2.1501,2.1269,2.0835,2.0811,2.0627,2.0405,2.1035,2.1304,2.1396,2.2064,2.2326,2.2326,2.2342,2.2357,2.2357,2.2357,2.2342,2.2203,2.1544,2.1156,2.1023,2.1485,2.1868,2.235,0.0,0.0,0.0,2.6926,2.8068,2.9414,3.1695,3.2466,3.3468,3.6236,3.744,3.839,3.9606,4.0479,4.1904,4.4605,4.4801,4.459,4.459,4.3929,4.324,4.2714,4.2254,4.1892,4.1692,4.0843,4.0456,4.079,4.1302,4.1813,4.2347,4.3337,4.431,4.5248,4.568,4.5902,4.5902,4.6225,4.6068,4.5464,4.5609,4.5368,4.4769,4.5152,4.5584,4.6123,4.6672,4.7467,4.8429,4.8982,5.0206,5.1762,5.1799,5.2116,5.2602,5.2602,5.2559,5.2498,0.0,0.0,0.0,0.0,0.0,0.0,0.0,0.0,0.0,0.0,0.0,0.0,1.9177,1.9075,1.8989,1.8945,1.8901,1.8909,1.8998,1.9057,1.9208,1.9476,1.9676,1.9856,2.0072,2.0747,2.1166,2.1308,2.1879,2.2194,2.2227,2.2248,2.2241,2.2189,2.2154,2.1964,2.1628,2.1103,2.1079,2.1372,2.1319,2.1596,2.2095,2.2773,2.3025,2.3086,2.3579,2.3748,2.3748,2.3748,2.3425,2.2931,2.2412,2.2123,2.2021,2.2207,2.2321,2.2702,2.4167,0.0,0.0,0.0,0.0,0.0,2.995,3.1243,3.2646,3.4015,3.5125,3.6333,3.7874,3.8817,3.9805,4.1145,4.178,4.2113,4.2113,4.2119,4.194,4.1391,4.1336,4.1303,4.1202,4.0873,4.0837,4.1276,4.1308,4.1383,4.1516,4.2805,4.3948,4.4839,4.5535,4.5902,4.5902,4.5993,4.5574,4.4634,4.5111,4.4863,4.4038,4.4911,4.5584,4.614,4.6764,4.7446,4.8164,4.8852,4.9833,5.0976,5.1458,5.2032,5.2602,5.2602,5.2559,5.251,0.0,0.0,0.0,0.0,0.0,0.0,0.0,0.0,0.0,0.0,0.0,0.0,1.9884,1.9857,1.9848,1.9884,1.9857,1.9839,1.9839,1.9866,1.9884,1.9884,2.0028,2.0091,2.0091,2.0886,2.1308,2.1308,2.1976,2.2338,2.2391,2.2426,2.2474,2.2549,2.2535,2.2415,2.2189,2.1927,2.1826,2.186,2.2053,2.2372,2.2788,2.3456,2.3887,2.4184,2.4584,2.4907,2.515,2.501,2.447,2.3796,2.3512,2.3269,2.3088,2.3185,2.3339,2.369,2.4734,2.5443,2.6152,2.7186,0.0,0.0,2.9409,3.0444,3.1535,3.2336,3.3294,3.4406,3.5704,3.6615,3.7433,3.8256,3.8799,3.9562,4.0912,4.1085,4.0886,4.0392,4.0192,4.0013,3.9772,3.9654,3.9833,4.0412,4.0447,4.0707,4.1299,4.2331,4.3212,4.3935,4.4573,4.4901,4.4901,4.5031,4.4741,4.4,4.4317,4.4237,4.3903,4.4763,4.5503,4.6152,4.7051,4.7652,4.8028,4.8459,4.9224,5.0171,5.0771,5.1493,5.2172,5.2461,5.2531,5.251,0.0,0.0,0.0,0.0,0.0,0.0,0.0,0.0,0.0,0.0,2.0069,2.0014,2.0014,1.999,1.999,2.0014,1.999,2.0005,2.0005,2.0014,2.0014,2.0014,2.008,2.0135,2.017,2.091,2.1331,2.1362,2.2005,2.2352,2.2412,2.248,2.2555,2.2605,2.2665,2.267,2.2665,2.3048,2.2832,2.2313,2.313,2.3481,2.362,2.4292,2.4937,2.549,2.5551,2.6023,2.6534,2.6246,2.5577,2.4876,2.4891,2.4543,2.4173,2.4303,2.4565,2.4903,2.5219,2.5964,2.6697,2.6938,2.7718,0.0,2.9501,2.9898,3.0301,3.1097,3.1843,3.2589,3.3385,3.4185,3.5023,3.5881,3.6079,3.7139,4.0083,4.0207,3.9821,3.9418,3.8961,3.8491,3.8063,3.7978,3.8212,3.8868,3.9148,3.9922,4.138,4.1856,4.2348,4.2948,4.3313,4.3506,4.3506,4.3797,4.3751,4.3402,4.337,4.3504,4.3795,4.456,4.5295,4.6054,4.7288,4.7886,4.8002,4.8012,4.8565,4.9456,4.9913,5.0664,5.155,5.2145,5.2426,5.251,0.0,0.0,0.0,0.0,0.0,0.0,0.0,0.0,2.0244,2.0261,2.015,2.008,2.008,2.0025,2.0017,2.008,2.0025,2.0005,2.0005,2.0061,2.008,2.008,2.0209,2.0383,2.0662,2.1087,2.1432,2.1699,2.2156,2.2412,2.248,2.2555,2.2629,2.2679,2.2639,2.2925,2.3486,2.3718,2.4083,2.447,2.4312,2.4588,2.5147,2.5879,2.6301,2.6593,2.7189,2.7541,2.7761,2.7695,2.7201,2.6627,2.6677,2.5976,2.5129,2.5154,2.5105,2.5175,2.5837,2.6451,2.715,2.8036,2.8421,0.0,2.9065,2.919,2.9464,3.0265,3.0558,3.0901,3.1721,3.254,3.3341,3.4156,3.46,3.5301,3.6578,3.7457,3.7812,3.7338,3.7986,3.8385,3.8173,3.8144,3.82,3.8354,3.8499,3.9347,4.1083,4.125,4.1958,4.3339,4.3453,4.3506,4.3506,4.3556,4.312,4.2157,4.2732,4.2561,4.1813,4.3558,4.4672,4.528,4.6722,4.7598,4.8012,4.8128,4.8643,4.9383,4.9341,5.0173,5.143,5.1511,5.1937,5.2515,0.0,0.0,0.0,0.0,0.0,0.0,0.0,0.0,2.0296,2.0296,2.052,2.0823,2.116,2.1345,2.1455,2.149,2.1309,2.1207,2.1207,2.0877,2.0697,2.0697,2.0763,2.0885,2.1055,2.137,2.1661,2.1847,2.222,2.2446,2.2555,2.2555,2.2599,2.2716,2.3021,2.3347,2.3762,2.4635,2.518,2.5479,2.5129,2.5241,2.5675,2.6428,2.6967,2.7457,2.8217,2.8682,2.8896,2.8938,2.8652,2.8165,2.7749,2.7188,2.6615,2.6218,2.6096,2.6206,2.6715,2.7083,2.7493,2.8103,2.8388,0.0,0.0,2.8791,2.8901,2.9314,2.9405,2.9643,3.0452,3.104,3.1672,3.2467,3.2807,3.2997,3.3085,3.4762,3.59,3.5728,3.5918,3.6051,3.6051,3.598,3.6305,3.7141,3.7957,3.8939,4.0147,4.0205,4.0844,4.2267,4.2495,4.2668,4.2855,4.3069,4.2751,4.1846,4.195,4.1841,4.1579,4.2634,4.3818,4.517,4.6199,4.7207,4.811,4.8208,4.8485,4.8877,4.9068,4.9622,5.0402,5.1177,5.1666,5.2021,1.8445,1.8893,0.0,0.0,0.0,0.0,0.0,0.0,2.0342,2.048,2.1137,2.1808,2.2366,2.2794,2.3023,2.3023,2.2795,2.2622,2.2622,2.2069,2.1737,2.1737,2.1769,2.1743,2.1651,2.1919,2.2032,2.2015,2.2283,2.2474,2.2572,2.2679,2.2795,2.2913,2.3629,2.402,2.4229,2.5479,2.6034,2.6088,2.589,2.5934,2.6246,2.6972,2.7731,2.8512,2.9334,2.9822,3.008,3.0162,2.993,2.948,2.875,2.8399,2.8152,2.7512,2.7466,2.7661,2.7884,2.8029,2.8177,2.8314,2.8435,2.8584,0.0,0.0,0.0,2.8582,2.8551,2.8731,2.9434,2.9745,3.0174,3.1035,3.1064,3.0875,3.0541,3.2244,3.3638,3.3895,3.3696,3.3589,3.3696,3.3746,3.4336,3.5693,3.6902,3.7945,3.8806,3.8854,3.9481,4.0836,4.1327,4.1706,4.1994,4.2495,4.2418,4.1735,4.1321,4.1255,4.157,4.1749,4.2895,4.4787,4.559,4.6654,4.7823,4.8068,4.8162,4.8225,4.8792,4.9098,4.938,5.0683,5.1253,5.1507,1.9287,1.924,0.0,0.0,0.0,0.0,0.0,0.0,2.0511,2.1103,2.2088,2.2754,2.2824,2.3235,2.3527,2.3527,2.3496,2.3456,2.3456,2.339,2.3333,2.3333,2.3457,2.3324,2.2907,2.2928,2.2784,2.2429,2.2474,2.2501,2.2538,2.3237,2.3563,2.3618,2.448,2.5178,2.5754,2.5926,2.6335,2.6871,2.6833,2.7233,2.7895,2.8589,2.941,3.0324,3.1177,3.145,3.1395,3.1525,3.1044,3.0381,3.0393,2.9894,2.93,2.9214,2.9341,2.9491,2.9533,2.9646,2.9771,2.9909,2.9473,2.9112,2.9496,0.0,2.823,2.8544,0.0,2.8273,2.8659,0.0,0.0,3.0173,2.9891,2.9755,3.0404,3.0242,3.0344,3.107,3.224,3.3003,3.3005,3.3633,3.4125,3.4325,3.4497,3.5374,3.7179,3.7269,3.8107,3.998,4.077,4.1199,4.1211,4.1937,4.1909,4.119,4.1122,4.0819,4.0336,4.0985,4.1936,4.316,4.4723,4.5783,4.6502,4.7332,4.7674,4.7723,4.8151,4.8753,4.9391,4.9445,5.0296,5.1427,2.0038,1.9931,1.999,0.0,0.0,0.0,0.0,0.0,2.2196,2.3302,2.4038,2.4807,2.5698,2.615,2.6432,2.6549,2.6299,2.5992,2.5605,2.5168,2.4732,2.4304,2.4343,2.4286,2.4086,2.4094,2.4015,2.3902,2.3902,2.3906,2.3958,2.426,2.4429,2.449,2.5232,2.5756,2.609,2.6563,2.6918,2.7204,2.761,2.8202,2.8887,2.9161,3.0053,3.1188,3.1503,3.1606,3.1607,3.1654,3.1493,3.1193,3.0808,3.0464,3.0093,2.9644,2.9557,2.9634,2.9634,2.9667,2.9717,2.9783,2.9709,2.9536,2.9242,2.8837,2.8421,2.8137,0.0,0.0,0.0,0.0,0.0,0.0,2.8924,2.8882,2.8875,2.8636,2.8848,2.9877,3.0558,3.0929,3.0929,3.1645,3.2292,3.2741,3.3162,3.3967,3.5257,3.5727,3.6531,3.7769,3.9262,4.0143,4.0289,4.1211,4.1366,4.0742,4.0676,4.0451,4.0113,4.0498,4.1509,4.2964,4.374,4.4929,4.6349,4.6745,4.7174,4.7611,4.7793,4.8214,4.8805,4.9172,4.9661,5.0259,2.0634,2.0478,2.0366,2.0596,2.0685,0.0,0.0,2.2923,2.4053,2.5045,2.6094,2.7167,2.8221,2.8924,2.9352,2.9456,2.8991,2.8485,2.7989,2.7278,2.6627,2.6071,2.5872,2.5699,2.5493,2.5263,2.5079,2.4925,2.491,2.4925,2.4976,2.5124,2.5234,2.5313,2.6023,2.6383,2.6471,2.704,2.7307,2.7351,2.806,2.8896,2.9772,2.9926,3.0636,3.1568,3.1527,3.1528,3.1578,3.1589,3.1654,3.166,3.1162,3.0998,3.0895,3.03,3.0127,3.0127,3.0127,3.0127,3.0127,3.0127,3.0161,3.0056,2.955,2.9047,2.8561,2.81,2.7774,0.0,0.0,0.0,2.8286,2.8123,0.0,2.8179,2.7767,2.7644,2.7919,2.879,2.9075,2.9274,2.948,3.0024,3.0593,3.1127,3.1869,3.2645,3.3431,3.4379,3.5293,3.6142,3.8003,3.9136,3.9507,4.0483,4.0787,4.0448,4.0355,4.0226,4.0108,4.0353,4.1273,4.2696,4.318,4.4284,4.5767,4.6212,4.6747,4.7283,4.7487,4.7854,4.834,4.8866,4.9103,4.9352,2.1028,2.0667,2.0443,2.0902,2.1467,2.2202,2.3277,2.4726,2.5674,2.5594,2.7969,2.9613,2.9453,3.0733,3.1545,3.143,3.0797,3.0416,3.0382,2.9704,2.9274,2.9248,2.8637,2.7954,2.723,2.6463,2.5715,2.4998,2.4925,2.4896,2.492,2.5634,2.5977,2.6019,2.6871,2.7255,2.7255,2.729,2.7307,2.7351,2.8092,2.9317,3.0713,3.1224,3.1456,3.1507,3.1498,3.1498,3.15,3.1578,3.1598,3.1626,3.1728,3.1765,3.1765,3.1731,3.174,3.174,3.174,3.174,3.174,3.174,3.1197,3.0733,3.0964,2.9672,2.8474,2.8722,2.7993,2.7382,2.7649,2.7654,2.7725,2.8054,2.7833,0.0,0.0,2.7473,2.7332,2.7376,2.7989,2.8713,2.9429,2.9515,2.9558,2.9567,3.0326,3.1085,3.1834,3.331,3.4646,3.5784,3.7338,3.8415,3.9026,3.9759,4.0193,4.0317,4.0305,4.0226,4.0121,4.0631,4.1241,4.1913,4.3286,4.3952,4.4201,4.5759,4.6411,4.6509,4.7218,4.7796,4.8215,4.8234,4.8606,4.9203,2.0919,2.1673,2.2328,2.2276,2.2312,2.2955,2.4753,2.6114,2.743,2.885,3.014,3.1303,3.2305,3.2812,3.3139,3.3211,3.2933,3.2565,3.2115,3.1401,3.0764,3.0282,2.9524,2.9006,2.8765,2.8481,2.7989,2.7247,2.7223,2.6974,2.6492,2.675,2.6854,2.6871,2.717,2.7307,2.7307,2.7307,2.7583,2.8136,2.9308,3.04,3.1318,3.1452,3.1498,3.1498,3.1397,3.1416,3.1507,3.1528,3.1615,3.1736,3.1791,3.18,3.18,3.18,3.18,3.18,3.18,3.18,3.1791,3.169,3.1482,3.1183,3.0792,3.0221,2.9558,2.8707,2.826,2.7875,2.7395,2.7469,2.756,2.7407,2.7428,2.7413,0.0,2.7161,2.7106,2.7106,2.7351,2.7625,2.7834,2.7883,2.8131,2.8672,2.8998,2.973,3.0998,3.2228,3.3524,3.4903,3.6658,3.8172,3.9387,4.0042,4.0646,4.1231,4.1231,4.1208,4.1168,4.1475,4.1906,4.242,4.2992,4.3493,4.3902,4.4454,4.4965,4.549,4.6269,4.6832,4.7267,4.7814,4.8127,4.8502,2.2936,2.3449,2.3615,2.3278,2.3729,2.4813,2.6745,2.8152,2.9693,3.1601,3.265,3.3664,3.4895,3.5327,3.5541,3.5618,3.5349,3.4884,3.4162,3.3421,3.2689,3.1947,3.0886,3.0317,3.0317,2.9774,2.9265,2.8799,2.8523,2.8161,2.7686,2.742,2.7307,2.7307,2.7307,2.7307,2.7324,2.7583,2.798,2.8532,2.9988,3.101,3.1671,3.1623,3.1565,3.1498,3.1397,3.1433,3.1507,3.1528,3.1615,3.1736,3.1773,3.1772,3.1736,3.1791,3.1772,3.1727,3.1727,3.1727,3.1699,3.1587,3.1559,3.1439,3.0959,3.0671,3.0244,2.9326,2.8757,2.8231,2.7665,2.7475,2.7316,2.7071,2.7151,2.7165,0.0,2.6991,2.6983,2.6975,2.7023,2.7047,2.6999,2.7063,2.7317,2.7823,2.8206,2.8996,3.0378,3.1611,3.3064,3.4836,3.631,3.7912,3.9712,4.0129,4.0795,4.1709,4.1709,4.1713,4.175,4.2098,4.2402,4.2721,4.2995,4.3322,4.3672,4.3961,4.4348,4.4829,4.5908,4.6473,4.6793,4.7601,4.8073,4.8494,2.6728,2.5757,2.4368,2.4115,2.5797,2.7681,2.9212,3.0802,3.2351,3.3784,3.5377,3.6603,3.7152,3.8068,3.8577,3.8436,3.7906,3.7236,3.6456,3.569,3.4949,3.4241,3.2741,3.1913,3.1852,3.042,2.9636,2.9549,2.8816,2.8437,2.8385,2.7652,2.7307,2.7307,2.7307,2.7324,2.7393,2.8092,2.8437,2.8644,3.0153,3.1171,3.18,3.18,3.1679,3.1517,3.1507,3.1507,3.15,3.1587,3.1607,3.1626,3.1746,3.1699,3.1617,3.1746,3.169,3.1598,3.1598,3.1598,3.1587,3.15,3.1498,3.1498,3.1498,3.1,3.0525,3.0517,2.9446,2.8481,2.8412,2.7661,2.7058,2.7078,2.6966,2.6917,2.6992,2.6983,2.695,2.6909,2.6959,2.6983,2.6983,2.7046,2.7103,2.7103,2.7871,2.8826,2.994,3.1347,3.3183,3.5522,3.6241,3.7684,4.0004,4.0022,4.0614,4.1774,4.1785,4.1814,4.1906,4.248,4.274,4.2769,4.3268,4.3454,4.3449,4.4227,4.4446,4.4482,4.5987,4.662,4.6793,4.7601,4.8385,4.9081,2.7134,2.6883,2.6847,2.7867,2.8819,2.992,3.1255,3.2741,3.4319,3.6031,3.7099,3.7975,3.8664,3.8968,3.9054,3.886,3.8703,3.8441,3.8047,3.6749,3.5921,3.5732,3.431,3.3224,3.2628,3.2231,3.1489,3.0386,2.9592,2.8937,2.8385,2.7652,2.7307,2.7307,2.7307,2.7592,2.8127,2.8316,2.9058,3.0188,3.1136,3.1627,3.18,3.18,3.1772,3.1716,3.1606,3.1578,3.1578,3.1589,3.1671,3.1736,3.1681,3.1626,3.1606,3.1576,3.1547,3.1528,3.1528,3.1528,3.15,3.137,3.1351,3.1351,3.1351,3.1217,3.0984,3.0576,3.0218,2.96,2.8399,2.7981,2.7597,2.6901,2.6766,2.6758,2.6775,2.6775,2.6775,2.675,2.6767,2.6775,2.6775,2.6933,2.7032,2.7032,2.7366,2.8288,2.9905,3.0553,3.2301,3.5431,3.5901,3.7471,4.0348,4.0465,4.127,4.2738,4.29,4.2967,4.3004,4.3196,4.3286,4.3294,4.3436,4.341,4.3269,4.347,4.3442,4.3384,4.4371,4.5561,4.6793,4.7601,4.8132,4.852,2.7307,2.882,3.0405,3.123,3.2828,3.3935,3.3828,3.4941,3.6513,3.8502,3.9012,3.9494,4.0239,4.0212,4.0093,3.9961,3.9878,3.9616,3.9106,3.8267,3.7491,3.6863,3.569,3.4697,3.3921,3.3335,3.2583,3.1671,3.0629,2.9868,2.9386,2.861,2.8265,2.8265,2.8265,2.8489,2.8903,2.9265,3.0093,3.1223,3.1627,3.18,0.0,3.18,3.18,3.18,3.1709,3.169,3.169,3.169,3.1736,3.1791,3.1709,3.1625,3.1549,3.1557,3.1473,3.1406,3.1406,3.1406,3.1387,3.1274,3.1271,3.1271,3.1271,3.1283,3.1205,3.09,3.0631,3.0179,2.927,2.8527,2.776,2.686,2.67,2.67,2.67,2.67,2.67,2.67,2.67,2.67,2.67,2.6875,2.6991,2.6991,2.7186,2.8072,2.9865,3.007,3.1764,3.5297,3.5529,3.7161,4.0474,4.0625,4.1514,4.3151,4.3323,4.3421,4.3446,4.348,4.3506,4.3506,4.3506,4.3402,4.3205,4.3205,4.3123,4.3102,4.4293,4.5453,4.6587,4.742,4.7935,4.827,2.8121,3.1589,3.4499,3.4499,3.7213,3.8847,3.7212,3.7694,3.8944,4.0883,4.1074,4.1274,4.1921,4.1778,4.1567,4.1423,4.1244,4.0787,3.9945,3.9807,3.9197,3.7945,3.7018,3.6188,3.5454,3.4077,3.3217,3.2942,3.1558,3.082,3.0688,2.9886,2.9498,2.9498,2.9498,2.9549,2.9713,3.0515,3.1205,3.18,3.18,3.18,3.18,3.18,3.18,3.18,3.18,3.18,3.18,3.18,3.18,3.18,3.1791,3.1642,3.1517,3.1559,3.1437,3.1293,3.1293,3.1293,3.1274,3.122,3.12,3.12,3.12,3.1252,3.1286,3.1295,3.0876,3.0489,3.0387,2.9139,2.7887,2.7114,2.6911,2.6843,2.6843,2.6767,2.67,2.67,2.6657,0.0,2.6691,2.6875,2.6983,2.6991,2.717,2.804,2.9817,2.984,3.148,3.5178,3.5236,3.6913,4.0474,4.0625,4.154,4.3205,4.3331,4.3437,4.3506,4.3506,4.3506,4.3506,4.3506,4.3402,4.3233,4.3233,4.3142,4.3194,4.4851,4.5673,4.6068,4.7025,4.7652,4.8002,3.2441,3.563,3.8178,3.8178,4.0885,4.296,4.2625,4.2059,4.1822,4.233,4.326,4.3924,4.4066,4.4034,4.3592,4.2605,4.2502,4.2026,4.1007,4.037,4.0018,3.997,3.8569,3.7431,3.67,3.5058,3.3856,3.3158,3.153,3.0723,3.0688,2.9886,2.9498,2.9498,2.9498,2.9868,3.0533,3.1292,3.1679,3.18,3.18,3.18,3.18,3.18,3.18,3.18,3.18,3.18,3.18,3.18,3.18,3.1791,3.1671,3.1559,3.1471,3.138,3.1283,3.122,3.122,3.122,3.122,3.12,3.12,3.12,3.12,3.121,3.1232,3.1286,3.122,3.0967,3.0345,2.9465,2.8774,2.862,2.8044,2.7604,2.7604,2.708,2.67,2.67,2.641,2.6349,2.6666,2.6825,2.6942,2.7008,2.7079,2.7932,2.9809,2.984,3.148,3.5178,3.5236,3.6913,4.0474,4.0625,4.154,4.3205,4.3331,4.3437,4.3506,4.3506,4.3506,4.3506,4.3506,4.3445,4.3358,4.3358,4.3105,4.285,4.4355,4.4789,4.474,4.6271,4.689,4.6981,3.8955,3.911,3.964,4.133,4.2946,4.4581,4.629,4.6127,4.5562,4.4872,4.5128,4.5315,4.515,4.5032,4.4501,4.3323,4.31,4.2544,4.1483,4.1087,4.0758,4.0509,3.9357,3.8357,3.7597,3.5655,3.4367,3.3822,3.229,3.1445,3.1257,3.0869,3.0758,3.0855,3.0855,3.1098,3.1551,3.171,3.18,3.18,3.18,3.18,3.18,3.18,3.18,3.18,3.18,3.18,3.18,3.18,3.18,3.1791,3.1727,3.1614,3.1498,3.1416,3.1317,3.12,3.12,3.12,3.12,3.12,3.12,3.12,3.12,3.12,3.121,3.1242,3.1252,3.1014,3.0276,2.9831,2.9457,2.9061,2.8679,2.8416,2.8416,2.7589,2.7049,2.7257,2.6583,2.6263,2.6666,2.6758,2.685,2.6983,2.7054,2.7845,2.9547,2.954,3.1098,3.4614,3.4871,3.6631,4.0155,4.0537,4.1514,4.3151,4.3251,4.3358,4.3455,4.3455,4.3463,4.3506,4.3506,4.3428,4.3287,4.3068,4.2853,4.2784,4.4041,4.427,4.4068,4.5698,4.6128,4.6027,4.4896,4.2407,4.0958,4.3559,4.4581,4.5918,4.85,4.8909,4.8489,4.7316,4.6821,4.6461,4.6209,4.5991,4.5427,4.4294,4.3792,4.3116,4.2088,4.1813,4.1439,4.0905,4.0005,3.9184,3.8488,3.6405,3.5075,3.4579,3.3284,3.2398,3.1938,3.1911,3.1992,3.2144,3.2108,3.217,3.2249,3.1929,3.18,3.18,3.18,3.18,3.18,3.18,3.18,3.18,3.18,3.18,3.18,3.18,3.18,3.18,3.18,3.1651,3.1498,3.1498,3.1363,3.12,3.12,3.12,3.12,3.12,3.12,3.12,3.12,3.1319,3.1437,3.1437,3.1562,3.1444,3.07,3.0581,3.0328,2.9602,2.9348,2.9221,2.9221,2.8055,2.7324,2.7631,2.6596,2.5998,2.641,2.6375,2.6427,2.6691,2.694,2.7764,2.9316,2.9272,3.0733,3.4089,3.4423,3.6235,3.9726,4.0181,4.1205,4.2804,4.2854,4.2995,4.3214,4.3214,4.3286,4.3445,4.3445,4.3295,4.3032,4.271,4.2594,4.2714,4.3687,4.3875,4.3761,4.5166,4.5442,4.5296,4.7868,4.5807,4.3633,4.3949,4.6457,4.8537,4.8853,4.8909,4.8854,4.8708,4.8329,4.8093,4.8057,4.7864,4.7318,4.6227,4.5232,4.4287,4.3468,4.2455,4.1952,4.2118,4.0885,4.0061,3.9749,3.7745,3.6212,3.522,3.4227,3.3268,3.2334,3.2292,3.2257,3.2275,3.2144,3.2108,3.2099,3.1901,3.18,3.18,3.18,3.18,3.18,3.18,3.18,3.18,3.18,3.18,3.18,3.18,3.18,3.18,3.18,3.1651,3.1498,3.1498,3.1363,3.12,3.12,3.12,3.12,3.12,3.12,3.12,3.12,3.1708,3.2192,3.2192,3.274,3.2966,3.2226,3.209,3.1853,3.1116,3.0429,3.0006,3.0006,2.8373,2.7206,2.7243,2.593,2.517,2.5577,2.5275,2.5282,2.5777,2.6564,2.7715,2.9316,2.9272,3.0733,3.4089,3.41,3.5735,3.9237,3.9324,4.0189,4.1839,4.1849,4.2098,4.2589,4.2589,4.2827,4.3233,4.3233,4.2976,4.257,4.2513,4.2444,4.2405,4.3046,4.3424,4.371,4.4576,4.4951,4.5046,4.5695,4.4896,4.4005,4.4005,4.6717,4.8909,4.8909,4.8909,4.8909,4.8909,4.8759,4.866,4.866,4.8596,4.8108,4.7028,4.6072,4.5117,4.4134,4.3201,4.2729,4.2834,4.186,4.1034,4.0447,3.8548,3.7047,3.6028,3.5037,3.4288,3.3785,3.374,3.3776,3.3856,3.3722,3.3369,3.2852,3.2586,3.2196,3.18,3.18,3.18,3.18,3.18,3.18,3.18,3.18,3.18,3.18,3.18,3.18,3.18,3.18,3.1681,3.1559,3.1559,3.1481,3.1383,3.1383,3.1383,3.1356,3.1281,3.1254,3.1363,3.1779,3.209,3.2429,3.2875,3.3186,3.3322,3.3,3.2605,3.2209,3.1911,3.1251,3.0663,3.0383,2.9078,2.7993,2.7548,2.6326,2.556,2.5663,2.5538,2.5859,2.6887,2.7133,2.7736,2.8865,2.9908,3.1503,3.3764,3.4843,3.6485,3.8827,3.9524,4.0478,4.1709,4.1626,4.1771,4.2146,4.2056,4.2149,4.2372,4.232,4.2468,4.2725,4.2399,4.2543,4.2992,4.3305,4.3503,4.3691,4.45,4.4886,4.5019,4.5249,4.4655,4.4302,4.5268,4.7367,4.8909,4.8909,4.8909,4.8909,4.8909,4.8909,4.8909,4.8909,4.8909,4.8598,4.7847,4.6915,4.5942,4.4847,4.3788,4.3205,4.3205,4.2509,4.1813,4.1162,3.9558,3.8204,3.7174,3.6234,3.5504,3.4986,3.4853,3.4835,3.4889,3.4762,3.4318,3.3647,3.3365,3.2938,3.2482,3.2482,3.2317,3.2127,3.2127,3.199,3.18,3.18,3.18,3.18,3.18,3.18,3.18,3.18,3.1709,3.1598,3.1598,3.1549,3.1498,3.1498,3.1498,3.1488,3.1387,3.1511,3.1786,3.2252,3.269,3.3215,3.3956,3.406,3.3971,3.3761,3.3298,3.2801,3.2361,3.1743,3.113,3.0582,2.9402,2.8404,2.7874,2.6751,2.6066,2.6208,2.6217,2.6679,2.7801,2.8025,2.8414,2.9122,3.0566,3.2053,3.3539,3.5222,3.6852,3.8447,3.9471,4.0426,4.1288,4.1191,4.1304,4.1589,4.1851,4.2099,4.237,4.23,4.2521,4.2904,4.2511,4.2765,4.3412,4.3505,4.3688,4.396,4.4517,4.4845,4.5039,4.8203,4.6234,4.5026,4.8269,4.8872,4.8909,4.8909,4.8909,4.8909,4.8909,4.8909,4.8909,4.8909,4.8909,4.889,4.8881,4.7897,4.682,4.5759,4.412,4.3205,4.3205,4.2673,4.2266,4.1982,4.0915,3.9841,3.8773,3.796,3.6915,3.5677,3.5204,3.496,3.4889,3.4762,3.4551,3.4281,3.414,3.4069,3.4069,3.4069,3.3603,3.2886,3.2886,3.2438,3.18,3.18,3.18,3.18,3.18,3.18,3.18,3.18,3.1709,3.1598,3.1598,3.1549,3.1498,3.1498,3.1498,3.1498,3.1498,3.201,3.2485,3.2492,3.3624,3.4893,3.5619,3.5672,3.5357,3.4624,3.4483,3.3992,3.2547,3.1905,3.1337,3.0607,2.9119,2.8113,2.8098,2.7034,2.6532,2.7127,2.7179,2.7439,2.8056,2.9139,2.9978,3.0456,3.1118,3.2142,3.3567,3.4916,3.6418,3.8096,3.8838,3.9586,4.033,4.0317,4.0493,4.0843,4.2038,4.2986,4.3676,4.3676,4.3408,4.2994,4.2994,4.3151,4.3403,4.3406,4.3893,4.4598,4.4598,4.4762,4.5094,4.8686,4.8073,4.7664,4.8723,4.8909,4.8909,4.8909,4.8909,4.8909,4.8909,4.8909,4.8909,4.8909,4.8909,4.8909,4.8909,4.8593,4.7627,4.5823,4.4465,4.3738,4.3738,4.3587,4.3188,4.2554,4.2028,4.1066,3.9617,3.9187,3.8385,3.725,3.6925,3.6691,3.6526,3.6488,3.6039,3.5313,3.5136,3.476,3.4291,3.4162,3.3948,3.3724,3.3724,3.3569,3.3362,3.3362,3.3362,3.3362,3.3362,3.3362,3.3362,3.3362,3.2953,3.2494,3.2494,3.2871,3.3282,3.3282,3.3282,3.3245,3.3166,3.3288,3.3573,3.4042,3.4817,3.5539,3.5859,3.5756,3.5566,3.5406,3.4899,3.4178,3.3203,3.2229,3.1236,3.0163,2.9313,2.8625,2.8211,2.7826,2.771,2.799,2.802,2.8434,2.9467,3.0294,3.0726,3.0634,3.2093,3.3563,3.4922,3.6411,3.7711,3.8843,3.9488,4.0013,4.0436,4.0251,4.048,4.1103,4.1984,4.2522,4.2745,4.2745,4.2949,4.3272,4.3272,4.3654,4.4228,4.4322,4.4447,4.4598,4.4709,4.4845,4.5111,4.927,4.9077,4.8909,4.8909,4.8909,4.8909,4.8909,4.8909,4.8909,4.8909,4.8909,4.8909,4.8909,4.8909,4.8909,4.8909,4.8909,4.7813,4.5239,4.4395,4.4005,4.4005,4.4005,4.3763,4.3262,4.2788,4.207,4.1054,4.0083,3.9204,3.8444,3.7864,3.7493,3.7297,3.7297,3.6909,3.6242,3.6124,3.5754,3.5257,3.5129,3.4846,3.4517,3.4517,3.4345,3.4103,3.4103,3.4103,3.4103,3.4103,3.4103,3.4103,3.4103,3.3948,3.3714,3.3421,3.3707,3.4103,3.4103,3.4103,3.4076,3.3997,3.4153,3.4507,3.5217,3.564,3.5916,3.6058,3.5899,3.5756,3.5795,3.536,3.4634,3.3575,3.2625,3.1506,3.0016,2.9393,2.8973,2.8615,2.8556,2.8742,2.926,2.9509,3.0047,3.1037,3.175,3.2154,3.22,3.3353,3.4495,3.5577,3.7129,3.8392,3.9272,3.9926,4.0474,4.0912,4.0921,4.1318,4.2036,4.2506,4.2878,4.3163,4.3163,4.3433,4.3859,4.3914,4.4227,4.4696,4.4817,4.4817,4.4748,4.4845,4.4951,4.521,4.9905,4.9396,4.8968,4.8968,4.8968,4.8968,4.8968,4.8935,4.8909,4.8909,4.8909,4.8909,4.8909,4.8909,4.8909,4.8909,4.8909,4.7516,4.4228,4.4005,4.4005,4.4005,4.4005,4.4005,4.4005,4.3262,4.2853,4.2797,4.0738,3.9567,3.9292,3.8268,3.7646,3.7404,3.7404,3.7273,3.7046,3.7036,3.6908,3.6742,3.6712,3.6138,3.5297,3.5276,3.4845,3.4241,3.4241,3.4241,3.4241,3.4241,3.4241,3.4241,3.4241,3.4724,3.5138,3.4397,3.4207,3.4241,3.4241,3.4241,3.4241,3.4241,3.4678,3.5294,3.6043,3.6112,3.6041,3.6176,3.6101,3.5965,3.585,3.5817,3.5291,3.3681,3.3014,3.2045,3.0136,2.9416,2.9182,2.9369,2.9309,2.9692,3.0898,3.151,3.2074,3.2629,3.3359,3.4075,3.4752,3.4827,3.5146,3.5746,3.7323,3.8603,3.9443,4.0195,4.0934,4.1648,4.2134,4.2743,4.3406,4.3457,4.3893,4.4615,4.4615,4.4615,4.4598,4.472,4.4793,4.4789,4.4937,4.4991,4.4991,4.5005,4.51,4.5413,4.9905,4.9776,4.9657,4.9657,4.9657,4.9657,4.9657,4.9222,4.8909,4.8909,4.8909,4.8909,4.8909,4.8909,4.8909,4.8909,4.8909,4.7516,4.4228,4.4005,4.4005,4.4005,4.4005,4.4005,4.4005,4.3819,4.3429,4.2797,4.1475,4.0671,4.0404,3.9941,3.9263,3.8447,3.8447,3.809,3.7438,3.7297,3.7192,3.7142,3.6816,3.6567,3.6314,3.6132,3.5921,3.5783,3.5783,3.5783,3.5783,3.5783,3.5783,3.5783,3.5783,3.5904,3.5887,3.5156,3.5335,3.5783,3.5783,3.5783,3.5783,3.5783,3.5894,3.6045,3.6235,3.6202,3.6176,3.6265,3.6137,3.6019,3.609,3.6025,3.5433,3.3807,3.316,3.2275,3.0638,2.9656,2.9671,3.1221,3.0899,3.1238,3.3002,3.3206,3.3288,3.3427,3.4088,3.4817,3.5653,3.6179,3.6729,3.7347,3.8381,3.9297,4.0082,4.0827,4.1512,4.2138,4.2821,4.3237,4.3423,4.4045,4.4415,4.4615,4.4615,4.4615,4.4615,4.4626,4.464,4.4668,4.4913,4.494,4.4872,4.5073,4.5163,4.5327,5.0361,5.0107,4.9905,4.9905,4.9655,4.954,4.9845,4.9585,4.9357,4.9357,4.9357,4.9357,4.9357,4.9086,4.8909,4.8909,4.8909,4.7516,4.4228,4.4005,4.4005,4.4005,4.4005,4.4005,4.4005,4.4005,4.3727,4.3164,4.2221,4.1613,4.1344,4.0832,4.0221,3.9532,3.9532,3.901,3.8148,3.8026,3.7662,3.7143,3.6936,3.6715,3.6502,3.636,3.6301,3.6301,3.6301,3.6301,3.6301,3.6301,3.6301,3.6301,3.6301,3.6301,3.6215,3.5818,3.599,3.6301,3.6301,3.6301,3.6301,3.6301,3.6577,3.6846,3.6846,3.7079,3.7316,3.7342,3.7008,3.6691,3.6702,3.6367,3.5681,3.4392,3.3672,3.2782,3.1389,3.0711,3.0805,3.195,3.2018,3.2471,3.3778,3.4066,3.4303,3.4634,3.5346,3.6105,3.6916,3.7683,3.825,3.8588,3.9039,3.9812,4.0886,4.1895,4.2538,4.2811,4.3572,4.3944,4.3947,4.4051,4.4279,4.457,4.4236,4.4296,4.4598,4.4668,4.4696,4.4723,4.4978,4.5046,4.5005,4.522,4.5441,4.5762,5.0898,5.0446,5.0019,4.9913,4.9427,4.9239,4.9811,4.9905,4.9905,4.9905,4.9905,4.9905,4.9905,4.9302,4.8909,4.8909,4.8909,4.7516,4.4228,4.4005,4.4005,4.4005,4.4005,4.4005,4.4005,4.4005,4.3884,4.3654,4.298,4.2506,4.2225,4.1539,4.102,4.0628,4.0628,4.0076,3.9109,3.9109,3.8511,3.755,3.7357,3.7029,3.6627,3.6419,3.635,3.6301,3.6301,3.6343,3.6388,3.6388,3.6509,3.6648,3.6648,3.6745,3.6832,3.6832,3.6797,3.6706,3.6529,3.6559,3.6646,3.6646,3.7157,3.7657,3.7657,3.814,3.8606,3.8606,3.8105,3.76,3.7364,3.681,3.6073,3.5082,3.4367,3.3509,3.2369,3.2127,3.2209,3.2523,3.2988,3.3573,3.4339,3.4782,3.5341,3.6095,3.6769,3.7489,3.8261,3.9021,3.9486,3.9617,3.9582,4.0263,4.1716,4.2966,4.3579,4.3592,4.4279,4.4542,4.4412,4.3796,4.3781,4.4253,4.3737,4.3871,4.4454,4.4679,4.4776,4.4817,4.5073,4.5177,4.522,4.5357,4.5727,4.6286,5.0898,5.0818,5.0563,4.9993,4.9811,4.9783,4.9872,4.9905,4.9905,4.9905,4.9905,4.9905,4.9905,4.9302,4.8909,4.8909,4.8909,4.7516,4.4228,4.4005,4.4005,4.4005,4.4005,4.4005,4.4005,4.4005,4.3981,4.395,4.3802,4.36,4.3352,4.3224,4.2666,4.1748,4.1748,4.1284,4.0494,4.0494,4.0368,4.0127,3.904,3.8466,3.8129,3.7063,3.6502,3.6301,3.6301,3.6523,3.6801,3.6801,3.7488,3.8327,3.8327,3.879,3.9342,3.9342,3.91,3.8604,3.7586,3.776,3.8243,3.8243,3.8347,3.8433,3.8433,3.8519,3.8606,3.8606,3.8502,3.8226,3.7594,3.7376,3.681,3.5311,3.4964,3.4573,3.3713,3.3197,3.337,3.4576,3.4304,3.4743,3.6596,3.6643,3.6888,3.7682,3.7863,3.8302,3.9158,3.9425,3.9915,4.0634,4.0448,4.0982,4.2358,4.3061,4.3755,4.4415,4.4533,4.4265,4.3676,4.3556,4.3242,4.2846,4.3302,4.3556,4.372,4.4367,4.4696,4.4817,4.4964,4.51,4.522,4.5357,4.5727,4.6204,5.0898,5.0898,5.0805,5.0493,5.0143,4.9905,4.9905,4.9905,4.9905,4.9905,4.9905,4.9905,4.9905,4.9614,4.9294,4.8925,4.8909,4.8259,4.6735,4.4989,4.4005,4.4005,4.4005,4.4005,4.4005,4.4005,4.4005,4.4005,4.4005,4.395,4.3812,4.3812,4.3459,4.2866,4.2866,4.2331,4.1452,4.1452,4.1127,4.0586,4.0004,3.9643,3.9387,3.878,3.8453,3.8347,3.8277,3.8359,3.8515,3.8515,3.8899,3.9347,3.9347,3.9597,3.99,3.99,3.9623,3.9126,3.8306,3.8347,3.8606,3.8606,3.8899,3.9192,3.9192,3.9537,3.983,3.983,3.9485,3.9089,3.8744,3.8036,3.7267,3.6506,3.5687,3.5015,3.4644,3.4381,3.4613,3.5666,3.5895,3.6504,3.7868,3.7758,3.7951,3.8789,3.8827,3.9175,4.0047,4.0241,4.0473,4.0883,4.142,4.2095,4.2976,4.3684,4.4228,4.4615,4.4615,4.4207,4.3497,4.335,4.3125,4.2849,4.3155,4.353,4.3972,4.448,4.4793,4.4927,4.5059,4.5154,4.522,4.5357,4.59,4.6619,5.0898,5.0898,5.0898,5.0898,5.0477,5.0076,4.992,4.9905,4.9905,4.9905,4.9905,4.9905,4.9905,4.9905,4.9628,4.895,4.8909,4.8909,4.8909,4.655,4.4804,4.4023,4.4005,4.4005,4.4005,4.4005,4.4005,4.4005,4.4005,4.4005,4.4005,4.4005,4.3884,4.3679,4.3679,4.3247,4.2455,4.2455,4.2021,4.1289,4.1047,4.0825,4.0601,4.0311,4.0155,4.0109,3.9986,3.9996,4.0053,4.0043,4.0225,4.0462,4.0462,4.0531,4.0599,4.0599,4.0225,3.9676,3.9033,3.8985,3.9123,3.9123,3.9554,3.9986,3.9986,4.0451,4.0912,4.0912,4.04,3.9917,3.9733,3.8778,3.795,3.7778,3.676,3.6001,3.6001,3.6001,3.6208,3.6766,3.7381,3.8025,3.875,3.8614,3.8829,3.9677,3.9674,3.9959,4.0662,4.0829,4.1031,4.1304,4.2227,4.2925,4.3406,4.4222,4.464,4.464,4.4682,4.4305,4.3616,4.3396,4.3202,4.3034,4.3217,4.3636,4.4222,4.4662,4.4927,4.5059,4.515,4.5234,4.5278,4.5577,4.6325,4.7272,5.0898,5.0898,5.0898,5.0898,5.087,5.063,4.9986,4.9905,4.9905,4.9905,4.9905,4.9905,4.9905,4.9905,4.9628,4.895,4.8909,4.8909,4.8909,4.8659,4.7181,4.4135,4.4005,4.4005,4.4005,4.4005,4.4005,4.4005,4.4005,4.4005,4.4005,4.4005,4.3997,4.3974,4.3974,4.3929,4.3857,4.3857,4.382,4.3659,4.2666,4.2146,4.185,4.0842,4.0348,4.0184,4.0109,4.0284,4.0544,4.0473,4.1194,4.2118,4.2118,4.2377,4.2673,4.2673,4.2047,4.1079,3.9939,4.0158,4.0739,4.0739,4.0774,4.0814,4.0814,4.086,4.0912,4.0912,4.0848,4.0572,3.9836,3.9612,3.9301,3.864,3.8416,3.8347,3.8347,3.8347,3.8364,3.8416,3.8485,3.8756,3.937,3.9355,3.9609,4.0368,4.0424,4.0507,4.0685,4.0829,4.14,4.2527,4.2655,4.2925,4.3406,4.4333,4.4793,4.4793,4.4913,4.4614,4.3966,4.3937,4.3527,4.2862,4.3616,4.3895,4.3898,4.4672,4.5059,4.5194,4.5207,4.5274,4.547,4.6238,4.7143,4.8086,5.0898,5.0898,5.0898,5.0898,5.0898,5.0814,5.0558,5.0174,4.9905,4.9905,4.9905,4.9905,4.9905,4.9905,4.9797,4.954,4.9133,4.8909,4.8909,4.6995,4.5305,4.4061,4.4005,4.4005,4.4005,4.4005,4.4005,4.4005,4.4005,4.4005,4.4005,4.4005,4.4005,4.4005,4.4005,4.4005,4.4005,4.4005,4.4005,4.396,4.3558,4.3357,4.3229,4.2787,4.2567,4.2472,4.2318,4.2353,4.2448,4.2389,4.266,4.3047,4.3047,4.2986,4.2787,4.2198,4.1778,4.1342,4.0631,4.067,4.0912,4.0912,4.0912,4.0912,4.0912,4.0912,4.0912,4.0912,4.0912,4.0808,4.0503,4.0037,3.9612,3.9319,3.8899,3.8606,3.8606,3.8606,3.8778,3.9227,3.9278,3.9549,4.0182,4.022,4.0316,4.0602,4.0619,4.0873,4.1471,4.2043,4.2723,4.3533,4.3567,4.3782,4.4265,4.4705,4.491,4.491,4.4981,4.4655,4.4009,4.4214,4.391,4.3273,4.4013,4.4328,4.4398,4.4903,4.5207,4.5365,4.5878,4.6094,4.6278,4.7374,4.8144,4.8793,5.0898,5.0898,5.0898,5.0898,5.0898,5.0898,5.0898,5.0513,5.0208,5.0208,5.0208,5.0137,4.992,4.9905,4.9905,4.9905,4.948,4.9117,4.8899,4.5825,4.4005,4.4005,4.4005,4.4005,4.4005,4.4005,4.4005,4.4005,4.4005,4.4005,4.4005,4.4005,4.4005,4.4005,4.4005,4.4005,4.4005,4.4005,4.4005,4.4005,4.4005,4.4005,4.3997,4.3961,4.3937,4.3913,4.374,4.3684,4.3651,4.3548,4.3523,4.3506,4.3506,4.3169,4.2577,4.16,4.1362,4.1322,4.1,4.0912,4.0912,4.0912,4.0912,4.0912,4.0912,4.0912,4.0912,4.0912,4.0912,4.0912,4.0912,4.0451,4.0089,4.0089,3.9658,3.9313,3.9313,3.9313,3.9503,4.002,4.0089,4.0238,4.0657,4.0697,4.08,4.1023,4.1057,4.1444,4.2332,4.312,4.3713,4.4087,4.4371,4.4639,4.4923,4.5019,4.5059,4.5059,4.51,4.4876,4.4454,4.4683,4.4513,4.4052,4.4555,4.4807,4.4889,4.515,4.5469,4.5828,4.6376,4.6738,4.7072,4.8143,4.8897,4.9532,5.0898,5.0898,5.0898,5.0898,5.0898,5.0898,5.0898,5.0898,5.0898,5.0898,5.0898,5.0658,4.9973,4.9918,4.9918,4.9905,4.9905,4.9625,4.8933,4.5844,4.4023,4.4005,4.4005,4.4005,4.4005,4.4005,4.4005,4.4005,4.4005,4.4005,4.4005,4.4005,4.4005,4.4005,4.4005,4.4005,4.4005,4.4005,4.4005,4.4005,4.4005,4.4005,4.4005,4.4005,4.4005,4.3989,4.3929,4.3859,4.3788,4.3651,4.3548,4.3506,4.3479,4.3023,4.229,4.1209,4.1041,4.1152,4.0953,4.0894,4.0912,4.0912,4.0912,4.0912,4.0912,4.0912,4.0912,4.0912,4.0912,4.0912,4.0912,4.09,4.0929,4.0929,4.0929,4.0929,4.0929,4.0929,4.0929,4.0929,4.0929,4.087,4.0726,4.0714,4.1023,4.1744,4.183,4.223,4.3172,4.3914,4.4247,4.4104,4.4948,4.5344,4.519,4.519,4.519,4.519,4.5344,4.5397,4.5397,4.5397,4.5331,4.522,4.5344,4.5314,4.5203,4.5344,4.5893,4.66,4.66,4.7065,4.7775,4.8392,4.934,5.028,5.0898,5.0898,5.0898,5.0898,5.0898,5.0898,5.0898,5.0898,5.0898,5.0898,5.0898,5.0822,5.0615,5.0596,5.0415,4.994,4.9905,4.9625,4.8933,4.6921,4.5491,4.4934,4.4321,4.4005,4.4005,4.4005,4.4005,4.4005,4.4005,4.4005,4.4005,4.4005,4.4005,4.4005,4.4005,4.4005,4.4005,4.4005,4.4005,4.4005,4.4005,4.4005,4.4005,4.4005,4.4005,4.3989,4.3929,4.3899,4.3851,4.3667,4.3582,4.3462,4.2799,4.245,4.2126,4.1339,4.1152,4.1186,4.1117,4.1105,4.1076,4.093,4.0912,4.0912,4.0912,4.0912,4.0912,4.0912,4.1309,4.1659,4.1659,4.2137,4.2516,4.2516,4.2516,4.2516,4.2516,4.2516,4.2516,4.2516,4.2516,4.2467,4.2335,4.2393,4.2521,4.2644,4.3201,4.3674,4.3966,4.4665,4.5052,4.5,4.5263,4.5384,4.5344,4.5344,4.5344,4.5344,4.5384,4.5397,4.5397,4.5397,4.5384,4.5344,4.5384,4.5384,4.5379,4.6,4.6376,4.6703,4.7738,4.8289,4.8593,4.9566,5.0108,5.0396,5.0898,5.0898,5.0898,5.0898,5.0898,5.0898,5.0898,5.0898,5.0898,5.0898,5.0898,5.0898,5.0898,5.0898,5.0735,5.0333,5.0246,5.0057,4.9671,4.8164,4.6873,4.5973,4.5125,4.4467,4.4005,4.4005,4.4005,4.4005,4.4005,4.4005,4.4005,4.4005,4.4005,4.4005,4.4005,4.4005,4.4005,4.4005,4.4005,4.4005,4.4005,4.4005,4.4005,4.4005,4.4005,4.3997,4.3942,4.3921,4.3891,4.3726,4.3625,4.3426,4.2703,4.239,4.2208,4.1644,4.1424,4.1352,4.1232,4.1209,4.1152,4.0953,4.0912,4.0912,4.0912,4.0912,4.0969,4.1274,4.1693,4.209,4.243,4.2879,4.3189,4.3189,4.3189,4.3189,4.3189,4.3189,4.3189,4.3189,4.3189,4.3164,4.3094,4.3156,4.3302,4.3507,4.4264,4.4734,4.4734,4.5169,4.5397,4.5397,4.5397,4.5397,4.5397,4.5397,4.5397,4.5397,4.5397,4.5397,4.5397,4.5397,4.5397,4.5397,4.5397,4.5397,4.5466,4.6272,4.6772,4.7151,4.8341,4.8982,4.9338,4.9889,5.0236,5.0383,5.0898,5.0898,5.0898,5.0898,5.0898,5.0898,5.0898,5.0898,5.0898,5.0898,5.0898,5.0898,5.0898,5.0898,5.0898,5.0898,5.0781,5.0731,5.0779,4.9342,4.8067,4.7092,4.6212,4.5243,4.4171,4.4058,4.4005,4.4005,4.4005,4.4002,4.4051,4.4013,4.4002,4.4033,4.4013,4.4005,4.4005,4.4005,4.4005,4.4005,4.4005,4.4005,4.4005,4.4005,4.4005,4.4005,4.4005,4.395,4.3907,4.381,4.3669,4.3427,4.3032,4.274,4.246,4.2092,4.182,4.1565,4.1334,4.1226,4.1152,4.0953,4.0963,4.0981,4.0929,4.0963,4.1193,4.1849,4.2107,4.2418,4.3155,4.3345,4.3396,4.3396,4.3396,4.3396,4.3396,4.3396,4.3396,4.3396,4.3396,4.3396,4.3396,4.3396,4.369,4.435,4.5014,4.5397,4.5397,4.5397,4.5397,4.5397,4.5397,4.5432,4.55,4.55,4.5466,4.5397,4.5397,4.5397,4.5397,4.5397,4.5397,4.5397,4.5397,4.5432,4.5569,4.6376,4.7134,4.7876,4.8634,4.9358,4.995,4.9622,4.984,5.0186,5.0898,5.0898,5.0898,5.0898,5.0898,5.0898,5.0898,5.0898,5.0898,5.0898,5.0898,5.0898,5.0898,5.0898,5.0898,5.0898,5.0781,5.0717,5.0721,4.9338,4.8414,4.8234,4.682,4.58,4.5344,4.4467,4.4005,4.4005,4.4005,4.4098,4.4303,4.4109,4.4106,4.4303,4.4083,4.4005,4.4005,4.4005,4.4005,4.4005,4.4005,4.4005,4.4005,4.4005,4.4005,4.4005,4.4005,4.3989,4.395,4.3835,4.3669,4.3436,4.3096,4.2911,4.2769,4.2577,4.2195,4.1824,4.1753,4.1485,4.1152,4.0953,4.1331,4.1607,4.1032,4.136,4.1797,4.1969,4.2953,4.385,4.4035,4.4527,4.4928,4.4928,4.4928,4.4928,4.4928,4.4928,4.4928,4.4928,4.4928,4.4928,4.4928,4.4928,4.4996,4.5152,4.5311,4.5397,4.5397,4.5397,4.5397,4.5397,4.5397,4.569,4.6324,4.6341,4.6031,4.5397,4.5397,4.5397,4.5397,4.5397,4.5397,4.5397,4.5397,4.5759,4.6393,4.7151,4.791,4.8651,4.9427,4.9855,4.995,4.9622,4.9575,4.9619,5.0898,5.0898,5.0898,5.0898,5.0898,5.0898,5.0898,5.0898,5.0898,5.0898,5.0898,5.0898,5.0898,5.0898,5.0898,5.0898,5.0781,5.0707,5.0707,4.9986,4.9321,4.88,4.7956,4.7106,4.6289,4.5316,4.4546,4.4005,4.4005,4.4136,4.4409,4.4265,4.4272,4.4383,4.4257,4.4113,4.4005,4.4005,4.4005,4.4005,4.4005,4.4005,4.4005,4.4005,4.4005,4.4005,4.4005,4.3981,4.3945,4.3875,4.3761,4.3609,4.3444,4.3205,4.2995,4.2986,4.2655,4.2297,4.2399,4.2245,4.2048,4.2016,4.2292,4.2378,4.159,4.2021,4.2672,4.3022,4.3741,4.4402,4.4751,4.5134,4.5397,4.5397,4.5397,4.5397,4.5397,4.5397,4.5397,4.5397,4.5397,4.5552,4.5945,4.5979,4.6134,4.6466,4.6514,4.6514,4.6514,4.6514,4.6514,4.6514,4.6514,4.6703,4.7117,4.7117,4.691,4.6514,4.6514,4.6423,4.6304,4.6304,4.6108,4.5795,4.616,4.6421,4.6686,4.7772,4.8462,4.8893,4.9686,5.0011,4.995,4.9622,4.9443,4.932,5.0898,5.0898,5.0898,5.0898,5.0898,5.0898,5.0898,5.0898,5.0898,5.0898,5.0898,5.0898,5.0898,5.0898,5.0898,5.0898,5.0781,5.0707,5.0707,5.0707,5.0292,4.9321,4.9144,4.8475,4.7214,4.6398,4.5393,4.4228,4.4115,4.4177,4.439,4.4445,4.4438,4.439,4.439,4.4257,4.4005,4.4005,4.4005,4.4005,4.4005,4.4005,4.4005,4.4005,4.4005,4.4005,4.4005,4.3968,4.3897,4.3897,4.3851,4.3804,4.3812,4.3538,4.3267,4.352,4.3287,4.3004,4.3202,4.3248,4.3225,4.3197,4.335,4.3331,4.2624,4.2938,4.3552,4.4173,4.4397,4.4665,4.5276,4.5397,4.5397,4.5397,4.5397,4.5397,4.5397,4.5397,4.5397,4.5397,4.5518,4.5927,4.6703,4.6789,4.7031,4.7651,4.7703,4.7703,4.7703,4.7703,4.7703,4.7703,4.7703,4.7755,4.7893,4.7893,4.7962,4.8082,4.8194,4.7991,4.7507,4.7507,4.7169,4.662,4.7138,4.723,4.7065,4.8307,4.8893,4.9082,4.9737,4.9982,4.9906,4.9607,4.9381,4.9245,5.0898,5.0898,5.0898,5.0898,5.0898,5.0898,5.0898,5.0898,5.0898,5.0898,5.0898,5.0898,5.0898,5.0898,5.0898,5.0898,5.0781,5.0707,5.0707,5.0707,5.064,5.048,4.9745,4.904,4.8381,4.7521,4.6438,4.5119,4.461,4.4348,4.4416,4.4637,4.4618,4.439,4.439,4.4257,4.4005,4.4005,4.4005,4.4005,4.4005,4.4005,4.4005,4.4005,4.4005,4.4005,4.4005,4.3968,4.3897,4.3897,4.3851,4.3812,4.3867,4.3792,4.384,4.4558,4.4409,4.4041,4.4231,4.4201,4.3987,4.3348,4.4033,4.4749,4.4413,4.4234,4.4173,4.4276,4.4803,4.529,4.538,4.5397,4.5397,4.5397,4.5397,4.5397,4.5397,4.5397,4.5397,4.5397,4.6014,4.6738,4.7479,4.7548,4.7582,4.7686,4.7703,4.7703,4.7703,4.7703,4.7703,4.7703,4.7703,4.8013,4.8637,4.8637,4.8996,4.97,5.0154,4.9652,4.834,4.834,4.827,4.817,4.7802,4.7962,4.8517,4.8706,4.9203,4.9855,4.9959,4.9889,4.9708,4.9562,4.9488,4.9426,5.0898,5.0898,5.0898,5.0898,5.0898,5.0898,5.0898,5.0898,5.0898,5.0898,5.0898,5.0866,5.0807,5.0794,5.0794,5.0794,5.074,5.0707,5.0707,5.0707,5.0707,5.0707,5.0322,4.9927,4.9504,4.8536,4.7418,4.6199,4.5331,4.4725,4.4397,4.4519,4.4513,4.439,4.439,4.4257,4.4005,4.4005,4.4005,4.4005,4.4005,4.4005,4.4005,4.4005,4.4005,4.4005,4.4005,4.3981,4.3968,4.3968,4.426,4.4644,4.4665,4.4965,4.5368,4.5652,4.5563,4.5389,4.5441,4.5412,4.5269,4.4954,4.5303,4.5682,4.5555,4.5336,4.5134,4.5134,4.5286,4.5397,4.5397,4.5397,4.5397,4.5397,4.5776,4.6083,4.6083,4.6686,4.7139,4.7139,4.7182,4.7496,4.8255,4.831,4.8496,4.8944,4.8979,4.8979,4.8979,4.8979,4.8979,4.8979,4.8979,4.9134,4.9462,4.9479,4.9651,5.0011,5.0551,5.0365,4.9561,4.9561,4.9313,4.888,4.8798,4.8771,4.8827,4.9289,4.9669,4.9996,4.9874,4.9725,4.959,4.9728,4.9713,4.959]}]]